[[{"header":{"parameterUnit":"m.s-1","parameterCategory":1,"la1":31.0,"la2":29.5877,"lo1":-88.7671,"lo2":-86.6584,"dy":0.0162,"dx":0.0185,"nx":115,"ny":88,"refTime":"2024-03-22T18:00:00:Z","depth":0,"parameterNumber":2,"parameterNumberName":"U-component_of_WINDS"},"data":[0.0,0.0,0.0,0.0,0.0,0.0,0.0,0.0,0.0,0.0,0.0,0.0,0.0,0.0,0.0,0.0,0.0,0.0,0.0,0.0,0.0,0.0,0.0,0.0,0.0,0.0,0.0,0.0,0.0,0.0,0.0,0.0,0.0,0.0,0.0,0.0,0.0,0.0,0.0,0.0,0.0,0.0,0.0,0.0,0.0,0.0,0.0,0.0,0.0,0.0,0.0,0.0,0.0,0.0,0.0,0.0,0.0,0.0,0.0,0.0,0.0,0.0,0.0,0.0,0.0,0.0,0.0,0.0,0.0,0.0,0.0,0.0,0.0,0.0,0.0,0.0,0.0,0.0,0.0,0.0,0.0,0.0,0.0,0.0,0.0,0.0,0.0,0.0,0.0,0.0,0.0,0.0,0.0,0.0,0.0,0.0,0.0,0.0,0.0,0.0,0.0,0.0,0.0,0.0,0.0,0.0,0.0,0.0,0.0,0.0,0.0,0.0,0.0,0.0,0.0,0.0,0.0,0.0,0.0,0.0,0.0,0.0,0.0,0.0,0.0,0.0,0.0,0.0,0.0,0.0,0.0,0.0,0.0,0.0,0.0,0.0,0.0,0.0,0.0,0.0,0.0,0.0,0.0,0.0,0.0,0.0,0.0,0.0,0.0,0.0,0.0,0.0,0.0,0.0,0.0,0.0,0.0,0.0,0.0,0.0,0.0,0.0,0.0,0.0,0.0,0.0,0.0,0.0,0.0,0.0,0.0,0.0,0.0,0.0,0.0,0.0,0.0,0.0,0.0,0.0,0.0,0.0,0.0,0.0,0.0,0.0,0.0,0.0,0.0,0.0,0.0,0.0,0.0,0.0,0.0,0.0,0.0,0.0,0.0,0.0,0.0,0.0,0.0,0.0,0.0,0.0,0.0,0.0,0.0,0.0,0.0,0.0,0.0,0.0,0.0,0.0,0.0,0.0,0.0,0.0,0.0,0.0,0.0,0.0,0.0,0.0,0.0,0.0,0.0,0.0,0.0,0.0,0.0,0.0,0.0,0.0,0.0,0.0,0.0,0.0,0.0,0.0,0.0,0.0,0.0,0.0,0.0,0.0,0.0,0.0,0.0,0.0,0.0,0.0,0.0,0.0,0.0,0.0,0.0,0.0,0.0,0.0,0.0,0.0,0.0,0.0,0.0,0.0,0.0,0.0,0.0,0.0,0.0,0.0,0.0,0.0,0.0,0.0,0.0,0.0,0.0,0.0,0.0,0.0,0.0,0.0,0.0,0.0,0.0,0.0,0.0,0.0,0.0,0.0,0.0,0.0,0.0,0.0,0.0,0.0,0.0,0.0,0.0,0.0,0.0,0.0,0.0,0.0,0.0,0.0,0.0,0.0,0.0,0.0,0.0,0.0,0.0,0.0,0.0,0.0,0.0,0.0,0.0,0.0,0.0,0.0,0.0,0.0,0.0,0.0,0.0,0.0,0.0,0.0,0.0,0.0,0.0,0.0,0.0,0.0,0.0,0.0,0.0,0.0,0.0,0.0,0.0,0.0,0.0,0.0,0.0,0.0,0.0,0.0,0.0,0.0,0.0,0.0,0.0,0.0,0.0,0.0,0.0,0.0,0.0,0.0,0.0,0.0,0.0,0.0,0.0,0.0,0.0,0.0,0.0,0.0,0.0,0.0,0.0,0.0,0.0,0.0,0.0,0.0,0.0,0.0,0.0,0.0,0.0,0.0,0.0,0.0,0.0,0.0,0.0,0.0,0.0,0.0,0.0,0.0,0.0,0.0,0.0,0.0,0.0,0.0,0.0,0.0,0.0,0.0,0.0,0.0,0.0,0.0,0.0,0.0,0.0,0.0,0.0,0.0,0.0,0.0,0.0,0.0,0.0,0.0,0.0,0.0,0.0,0.0,0.0,0.0,0.0,0.0,0.0,0.0,0.0,0.0,0.0,0.0,0.0,0.0,0.0,0.0,0.0,0.0,0.0,0.0,0.0,0.0,0.0,0.0,0.0,0.0,0.0,0.0,0.0,0.0,0.0,0.0,0.0,0.0,0.0,0.0,0.0,0.0,0.0,0.0,0.0,0.0,0.0,0.0,0.0,0.0,0.0,0.0,0.0,0.0,0.0,0.0,0.0,0.0,0.0,0.0,0.0,0.0,0.0,0.0,0.0,0.0,0.0,0.0,0.0,0.0,0.0,0.0,0.0,0.0,0.0,0.0,0.0,0.0,0.0,0.0,0.0,0.0,0.0,0.0,0.0,0.0,0.0,0.0,0.0,0.0,0.0,0.0,0.0,0.0,0.0,0.0,0.0,0.0,0.0,0.0,0.0,0.0,0.0,0.0,0.0,0.0,0.0,0.0,0.0,0.0,0.0,0.0,0.0,0.0,0.0,0.0,0.0,0.0,0.0,0.0,0.0,0.0,0.0,0.0,0.0,0.0,0.0,0.0,0.0,0.0,0.0,0.0,0.0,0.0,0.0,0.0,0.0,0.0,0.0,0.0,0.0,0.0,0.0,0.0,0.0,0.0,0.0,0.0,0.0,0.0,0.0,0.0,0.0,0.0,0.0,0.0,0.0,0.0,0.0,0.0,0.0,0.0,0.0,0.0,0.0,0.0,0.0,0.0,0.0,0.0,0.0,0.0,0.0,0.0,0.0,0.0,0.0,0.0,0.0,0.0,0.0,0.0,0.0,0.0,0.0,0.0,0.0,0.0,0.0,0.0,0.0,0.0,0.0,0.0,0.0,0.0,0.0,0.0,0.0,0.0,0.0,0.0,0.0,0.0,0.0,0.0,0.0,0.0,0.0,0.0,0.0,0.0,0.0,0.0,0.0,0.0,0.0,0.0,0.0,0.0,0.0,0.0,0.0,0.0,0.0,0.0,0.0,0.0,0.0,0.0,0.0,0.0,0.0,0.0,0.0,0.0,0.0,0.0,0.0,0.0,0.0,0.0,0.0,0.0,0.0,0.0,0.0,0.0,0.0,0.0,0.0,0.0,0.0,0.0,0.0,0.0,0.0,0.0,0.0,0.0,0.0,0.0,0.0,0.0,0.0,0.0,0.0,0.0,0.0,0.0,0.0,0.0,0.0,0.0,0.0,0.0,0.0,0.0,0.0,0.0,0.0,0.0,0.0,0.0,0.0,0.0,0.0,0.0,0.0,0.0,0.0,0.0,0.0,0.0,0.0,0.0,0.0,0.0,0.0,0.0,0.0,0.0,0.0,0.0,0.0,0.0,0.0,0.0,0.0,0.0,0.0,0.0,0.0,0.0,0.0,0.0,0.0,0.0,0.0,0.0,0.0,0.0,0.0,0.0,0.0,0.0,0.0,0.0,0.0,0.0,0.0,0.0,0.0,0.0,0.0,0.0,0.0,0.0,0.0,0.0,0.0,0.0,0.0,0.0,0.0,0.0,0.0,0.0,0.0,0.0,0.0,0.0,0.0,0.0,0.0,0.0,0.0,0.0,0.0,0.0,0.0,0.0,0.0,0.0,0.0,0.0,0.0,0.0,0.0,0.0,0.0,0.0,0.0,0.0,0.0,0.0,0.0,0.0,0.0,0.0,0.0,0.0,0.0,0.0,0.0,0.0,0.0,0.0,0.0,0.0,0.0,0.0,0.0,0.0,0.0,0.0,0.0,0.0,0.0,0.0,0.0,0.0,0.0,0.0,0.0,0.0,0.0,0.0,0.0,0.0,0.0,0.0,0.0,0.0,0.0,0.0,0.0,0.0,0.0,0.0,0.0,0.0,0.0,0.0,0.0,0.0,0.0,0.0,0.0,0.0,0.0,0.0,0.0,0.0,0.0,0.0,0.0,0.0,0.0,0.0,0.0,0.0,0.0,0.0,0.0,0.0,0.0,0.0,0.0,0.0,0.0,0.0,0.0,0.0,0.0,0.0,0.0,0.0,0.0,0.0,0.0,0.0,0.0,0.0,0.0,0.0,0.0,0.0,0.0,0.0,0.0,0.0,0.0,0.0,0.0,0.0,0.0,0.0,0.0,0.0,0.0,0.0,0.0,0.0,0.0,0.0,0.0,0.0,0.0,0.0,0.0,0.0,0.0,0.0,0.0,0.0,0.0,0.0,0.0,0.0,0.0,0.0,0.0,0.0,0.0,0.0,0.0,0.0,0.0,0.0,0.0,0.0,0.0,0.0,0.0,0.0,0.0,0.0,0.0,0.0,0.0,0.0,0.0,0.0,0.0,0.0,0.0,0.0,0.0,0.0,0.0,0.0,0.0,0.0,0.0,0.0,0.0,0.0,0.0,0.0,0.0,0.0,-1.4268,0.0,0.0,0.0,0.0,0.0,0.0,0.0,0.0,0.0,0.0,0.0,0.0,0.0,0.0,0.0,0.0,0.0,0.0,0.0,0.0,0.0,0.0,0.0,0.0,0.0,0.0,0.0,0.0,0.0,0.0,0.0,0.0,0.0,0.0,0.0,0.0,0.0,0.0,0.0,0.0,0.0,0.0,0.0,0.0,0.0,0.0,0.0,0.0,0.0,0.0,0.0,0.0,0.0,0.0,0.0,0.0,0.0,0.0,0.0,0.0,0.0,0.0,0.0,0.0,0.0,0.0,0.0,0.0,0.0,0.0,0.0,0.0,0.0,0.0,0.0,0.0,0.0,0.0,0.0,0.0,0.0,0.0,0.0,0.0,0.0,0.0,0.0,0.0,0.0,0.0,0.0,0.0,0.0,0.0,0.0,0.0,0.0,0.0,0.0,0.0,0.0,0.0,0.0,0.0,0.0,0.0,0.0,0.0,0.0,0.0,-1.4359,-1.4107,-1.4356,-1.4594,-1.4828,0.0,0.0,0.0,0.0,0.0,0.0,0.0,0.0,0.0,0.0,0.0,0.0,0.0,0.0,0.0,0.0,0.0,0.0,0.0,0.0,0.0,0.0,0.0,0.0,0.0,0.0,0.0,0.0,0.0,0.0,0.0,0.0,0.0,0.0,0.0,0.0,0.0,0.0,0.0,0.0,0.0,0.0,0.0,0.0,0.0,0.0,0.0,0.0,0.0,0.0,0.0,0.0,0.0,0.0,0.0,0.0,0.0,0.0,0.0,0.0,0.0,0.0,0.0,0.0,0.0,0.0,0.0,0.0,0.0,0.0,0.0,0.0,0.0,0.0,0.0,0.0,0.0,0.0,0.0,0.0,0.0,0.0,0.0,0.0,0.0,0.0,0.0,0.0,0.0,0.0,0.0,0.0,0.0,0.0,0.0,0.0,0.0,0.0,0.0,0.0,0.0,0.0,0.0,0.0,0.0,0.0,0.0,0.0,0.0,0.0,0.0,0.0,-1.4787,-1.5011,-1.518,0.0,0.0,0.0,0.0,0.0,0.0,0.0,0.0,0.0,0.0,0.0,0.0,0.0,0.0,0.0,0.0,0.0,0.0,0.0,0.0,0.0,0.0,0.0,0.0,0.0,0.0,0.0,0.0,0.0,0.0,0.0,0.0,0.0,0.0,0.0,0.0,0.0,0.0,0.0,0.0,0.0,0.0,0.0,0.0,0.0,0.0,0.0,0.0,0.0,0.0,0.0,0.0,0.0,0.0,0.0,0.0,0.0,0.0,0.0,0.0,0.0,0.0,0.0,0.0,0.0,0.0,0.0,0.0,0.0,0.0,0.0,0.0,0.0,0.0,0.0,0.0,0.0,0.0,0.0,0.0,0.0,0.0,0.0,0.0,0.0,0.0,0.0,0.0,0.0,0.0,0.0,0.0,0.0,0.0,0.0,0.0,0.0,0.0,0.0,0.0,0.0,0.0,0.0,0.0,0.0,0.0,0.0,0.0,0.0,0.0,-1.4305,-1.4673,-1.4935,0.0,-1.4858,0.0,0.0,0.0,0.0,0.0,0.0,0.0,0.0,0.0,0.0,0.0,0.0,0.0,0.0,0.0,0.0,0.0,0.0,0.0,0.0,0.0,0.0,0.0,0.0,0.0,0.0,0.0,0.0,0.0,0.0,0.0,0.0,0.0,0.0,0.0,0.0,0.0,0.0,0.0,0.0,0.0,0.0,0.0,0.0,0.0,0.0,0.0,0.0,0.0,0.0,0.0,0.0,0.0,0.0,0.0,0.0,0.0,0.0,0.0,0.0,0.0,0.0,0.0,0.0,0.0,0.0,0.0,0.0,0.0,0.0,0.0,0.0,0.0,0.0,0.0,0.0,0.0,0.0,0.0,0.0,0.0,0.0,0.0,0.0,0.0,0.0,0.0,0.0,0.0,0.0,0.0,0.0,0.0,0.0,0.0,0.0,0.0,0.0,0.0,0.0,0.0,0.0,0.0,0.0,0.0,0.0,0.0,0.0,0.0,0.0,-1.4432,-1.5097,-1.5461,-1.5291,0.0,0.0,0.0,0.0,0.0,0.0,0.0,0.0,0.0,0.0,0.0,0.0,0.0,0.0,0.0,0.0,0.0,0.0,0.0,0.0,0.0,0.0,0.0,0.0,0.0,0.0,0.0,0.0,0.0,0.0,0.0,0.0,0.0,0.0,0.0,0.0,0.0,0.0,0.0,0.0,0.0,0.0,0.0,0.0,0.0,0.0,0.0,0.0,0.0,0.0,0.0,0.0,0.0,0.0,0.0,0.0,0.0,0.0,0.0,0.0,0.0,0.0,0.0,0.0,0.0,0.0,0.0,0.0,0.0,0.0,0.0,0.0,0.0,0.0,0.0,0.0,0.0,0.0,0.0,0.0,0.0,0.0,0.0,0.0,0.0,0.0,0.0,0.0,0.0,0.0,0.0,0.0,0.0,0.0,0.0,0.0,0.0,0.0,0.0,0.0,0.0,0.0,0.0,0.0,0.0,0.0,0.0,0.0,0.0,0.0,-1.3765,-1.4687,-1.5436,-1.5808,-1.5494,-1.4461,0.0,0.0,0.0,0.0,0.0,0.0,0.0,0.0,0.0,0.0,0.0,0.0,0.0,0.0,0.0,0.0,0.0,0.0,0.0,0.0,0.0,0.0,0.0,0.0,0.0,0.0,0.0,0.0,0.0,0.0,0.0,0.0,0.0,0.0,0.0,0.0,0.0,0.0,0.0,0.0,0.0,0.0,0.0,0.0,0.0,0.0,0.0,0.0,0.0,0.0,0.0,0.0,0.0,0.0,0.0,0.0,0.0,0.0,0.0,0.0,0.0,0.0,0.0,0.0,0.0,0.0,0.0,0.0,0.0,0.0,0.0,0.0,0.0,0.0,0.0,0.0,0.0,0.0,0.0,0.0,0.0,0.0,0.0,0.0,0.0,0.0,0.0,0.0,0.0,0.0,0.0,0.0,0.0,0.0,0.0,0.0,0.0,0.0,0.0,0.0,0.0,0.0,0.0,0.0,0.0,0.0,0.0,0.0,-1.2733,-1.4076,-1.5108,-1.566,-1.5882,-1.5459,0.0,0.0,0.0,0.0,0.0,0.0,0.0,0.0,0.0,0.0,0.0,0.0,0.0,0.0,0.0,0.0,0.0,0.0,0.0,0.0,0.0,0.0,0.0,0.0,0.0,0.0,0.0,0.0,0.0,0.0,0.0,0.0,0.0,0.0,0.0,0.0,0.0,0.0,0.0,0.0,0.0,0.0,0.0,0.0,0.0,0.0,0.0,0.0,0.0,0.0,0.0,0.0,0.0,0.0,0.0,0.0,0.0,0.0,0.0,0.0,0.0,0.0,0.0,0.0,0.0,0.0,0.0,0.0,0.0,0.0,0.0,0.0,0.0,0.0,0.0,0.0,0.0,0.0,0.0,0.0,0.0,0.0,0.0,0.0,0.0,0.0,0.0,0.0,0.0,0.0,0.0,0.0,0.0,0.0,0.0,0.0,0.0,0.0,0.0,0.0,0.0,0.0,0.0,0.0,0.0,0.0,0.0,0.0,0.0,-1.2627,-1.3778,-1.456,-1.4915,-1.5023,-1.4726,0.0,0.0,0.0,0.0,0.0,0.0,0.0,0.0,0.0,0.0,0.0,0.0,0.0,0.0,0.0,0.0,0.0,0.0,0.0,0.0,0.0,0.0,0.0,0.0,0.0,0.0,0.0,0.0,0.0,0.0,0.0,0.0,0.0,0.0,0.0,0.0,0.0,0.0,0.0,0.0,0.0,0.0,0.0,0.0,0.0,0.0,0.0,0.0,0.0,0.0,0.0,0.0,0.0,0.0,0.0,0.0,0.0,0.0,0.0,0.0,0.0,0.0,0.0,0.0,0.0,0.0,0.0,0.0,0.0,0.0,0.0,0.0,0.0,0.0,0.0,0.0,0.0,0.0,0.0,0.0,0.0,0.0,0.0,0.0,0.0,0.0,0.0,0.0,0.0,0.0,0.0,0.0,0.0,0.0,0.0,0.0,0.0,0.0,0.0,0.0,0.0,0.0,0.0,0.0,0.0,0.0,0.0,0.0,0.0,-1.3044,0.0,-1.4275,-1.4497,-1.4571,-1.4274,0.0,0.0,0.0,0.0,0.0,0.0,0.0,0.0,0.0,0.0,0.0,0.0,0.0,0.0,0.0,0.0,0.0,0.0,0.0,0.0,0.0,0.0,0.0,0.0,0.0,0.0,0.0,0.0,0.0,0.0,0.0,0.0,0.0,0.0,0.0,0.0,0.0,0.0,0.0,0.0,0.0,0.0,0.0,0.0,0.0,0.0,0.0,0.0,0.0,0.0,0.0,0.0,0.0,0.0,0.0,0.0,0.0,0.0,0.0,0.0,0.0,0.0,0.0,0.0,0.0,0.0,0.0,0.0,0.0,0.0,0.0,0.0,0.0,0.0,0.0,0.0,0.0,0.0,0.0,0.0,0.0,0.0,0.0,0.0,0.0,0.0,0.0,0.0,0.0,0.0,0.0,0.0,0.0,0.0,0.0,0.0,0.0,0.0,0.0,0.0,0.0,0.0,0.0,0.0,0.0,0.0,0.0,0.0,-1.2672,-1.4189,-1.4332,-1.4411,-1.4489,-1.4635,-1.4175,0.0,0.0,0.0,0.0,0.0,0.0,0.0,0.0,0.0,0.0,0.0,0.0,0.0,0.0,0.0,0.0,0.0,0.0,0.0,0.0,0.0,0.0,0.0,0.0,0.0,0.0,0.0,0.0,0.0,0.0,0.0,0.0,0.0,0.0,0.0,0.0,0.0,0.0,0.0,0.0,0.0,0.0,0.0,0.0,0.0,0.0,0.0,0.0,0.0,0.0,0.0,0.0,0.0,0.0,0.0,0.0,0.0,0.0,0.0,0.0,0.0,0.0,0.0,0.0,0.0,0.0,0.0,0.0,0.0,0.0,0.0,0.0,0.0,0.0,0.0,0.0,0.0,0.0,0.0,0.0,0.0,0.0,0.0,0.0,0.0,0.0,0.0,0.0,0.0,0.0,0.0,0.0,0.0,0.0,0.0,0.0,0.0,0.0,0.0,0.0,0.0,0.0,0.0,0.0,0.0,0.0,0.0,0.0,0.0,-1.3789,-1.3934,-1.4101,-1.4397,-1.3924,-1.3297,0.0,0.0,0.0,0.0,0.0,0.0,0.0,0.0,0.0,0.0,0.0,0.0,0.0,0.0,0.0,0.0,0.0,0.0,0.0,0.0,0.0,0.0,0.0,0.0,0.0,0.0,0.0,0.0,0.0,0.0,0.0,0.0,0.0,0.0,0.0,0.0,0.0,0.0,0.0,0.0,0.0,0.0,0.0,0.0,0.0,0.0,0.0,0.0,0.0,0.0,0.0,0.0,0.0,0.0,0.0,0.0,0.0,0.0,0.0,0.0,0.0,0.0,0.0,0.0,0.0,0.0,0.0,0.0,0.0,0.0,0.0,0.0,0.0,0.0,0.0,0.0,0.0,0.0,0.0,0.0,0.0,0.0,0.0,0.0,0.0,0.0,0.0,0.0,0.0,0.0,0.0,0.0,0.0,0.0,0.0,0.0,0.0,0.0,0.0,0.0,0.0,0.0,0.0,0.0,0.0,0.0,0.0,0.0,0.0,-1.3404,-1.3636,-1.3849,-1.4108,-1.3391,-1.2803,-1.2338,0.0,0.0,0.0,0.0,0.0,0.0,0.0,0.0,0.0,0.0,0.0,0.0,0.0,0.0,0.0,0.0,0.0,0.0,0.0,0.0,0.0,0.0,0.0,0.0,0.0,0.0,0.0,0.0,0.0,0.0,0.0,0.0,0.0,0.0,0.0,0.0,0.0,0.0,0.0,0.0,0.0,0.0,0.0,0.0,0.0,0.0,0.0,0.0,0.0,0.0,0.0,0.0,0.0,0.0,0.0,0.0,0.0,0.0,0.0,0.0,0.0,0.0,0.0,0.0,0.0,0.0,0.0,0.0,0.0,0.0,0.0,0.0,0.0,0.0,0.0,0.0,0.0,0.0,0.0,0.0,0.0,0.0,0.0,0.0,0.0,0.0,0.0,0.0,0.0,0.0,0.0,0.0,0.0,0.0,0.0,0.0,0.0,0.0,0.0,0.0,0.0,0.0,0.0,0.0,0.0,0.0,0.0,0.0,-1.3118,-1.3407,-1.3541,-1.3498,-1.3065,-1.2652,0.0,0.0,0.0,0.0,0.0,0.0,0.0,0.0,0.0,0.0,0.0,0.0,0.0,0.0,0.0,0.0,0.0,0.0,0.0,0.0,0.0,0.0,0.0,0.0,0.0,0.0,0.0,0.0,0.0,0.0,0.0,0.0,0.0,0.0,0.0,0.0,0.0,0.0,0.0,0.0,0.0,0.0,0.0,0.0,0.0,0.0,0.0,0.0,0.0,0.0,0.0,0.0,0.0,0.0,0.0,0.0,0.0,0.0,0.0,0.0,0.0,0.0,0.0,0.0,0.0,0.0,0.0,0.0,0.0,0.0,0.0,0.0,0.0,0.0,0.0,0.0,0.0,0.0,0.0,0.0,0.0,0.0,0.0,0.0,0.0,0.0,0.0,0.0,0.0,0.0,0.0,0.0,0.0,0.0,0.0,0.0,0.0,0.0,0.0,0.0,0.0,0.0,0.0,0.0,0.0,0.0,0.0,0.0,0.0,-1.3481,-1.3367,-1.3042,-1.2499,-1.2548,-1.2249,0.0,0.0,0.0,0.0,0.0,0.0,0.0,0.0,0.0,0.0,0.0,0.0,0.0,0.0,0.0,0.0,0.0,0.0,0.0,0.0,0.0,0.0,0.0,0.0,0.0,0.0,0.0,0.0,0.0,0.0,0.0,0.0,0.0,0.0,0.0,0.0,0.0,0.0,0.0,0.0,0.0,0.0,0.0,0.0,0.0,0.0,0.0,0.0,0.0,0.0,0.0,0.0,0.0,0.0,0.0,0.0,0.0,0.0,0.0,0.0,0.0,0.0,0.0,0.0,0.0,0.0,0.0,0.0,0.0,0.0,0.0,0.0,0.0,0.0,0.0,0.0,0.0,0.0,0.0,0.0,0.0,0.0,0.0,0.0,0.0,0.0,0.0,0.0,0.0,0.0,0.0,0.0,0.0,0.0,0.0,0.0,0.0,0.0,0.0,0.0,0.0,0.0,0.0,0.0,0.0,0.0,0.0,0.0,-1.3573,-1.3382,-1.3142,-1.2743,-1.2289,-1.2266,-1.1984,0.0,0.0,0.0,0.0,0.0,0.0,0.0,0.0,0.0,0.0,0.0,0.0,0.0,0.0,0.0,0.0,0.0,0.0,0.0,0.0,0.0,0.0,0.0,0.0,0.0,0.0,0.0,0.0,0.0,0.0,0.0,0.0,0.0,0.0,0.0,0.0,0.0,0.0,0.0,0.0,0.0,0.0,0.0,0.0,0.0,0.0,0.0,0.0,0.0,0.0,0.0,0.0,0.0,0.0,0.0,0.0,0.0,0.0,0.0,0.0,0.0,0.0,0.0,0.0,0.0,0.0,0.0,0.0,0.0,0.0,0.0,0.0,0.0,0.0,0.0,0.0,0.0,0.0,0.0,0.0,0.0,0.0,0.0,0.0,0.0,0.0,0.0,0.0,0.0,0.0,0.0,0.0,0.0,0.0,0.0,0.0,0.0,0.0,0.0,0.0,0.0,0.0,0.0,0.0,0.0,0.0,0.0,0.0,-1.3142,-1.3085,-1.2822,-1.2627,-1.251,-1.2168,-1.1777,0.0,0.0,0.0,0.0,0.0,0.0,0.0,0.0,0.0,0.0,0.0,0.0,0.0,0.0,0.0,0.0,0.0,0.0,0.0,0.0,0.0,0.0,0.0,0.0,0.0,0.0,0.0,0.0,0.0,0.0,0.0,0.0,0.0,0.0,0.0,0.0,0.0,0.0,0.0,0.0,0.0,0.0,0.0,0.0,0.0,0.0,0.0,0.0,0.0,0.0,0.0,0.0,0.0,0.0,0.0,0.0,0.0,0.0,0.0,0.0,0.0,0.0,0.0,0.0,0.0,0.0,0.0,0.0,0.0,0.0,0.0,0.0,0.0,0.0,0.0,0.0,0.0,0.0,0.0,0.0,0.0,0.0,0.0,0.0,0.0,0.0,0.0,0.0,0.0,0.0,0.0,0.0,0.0,0.0,0.0,0.0,0.0,0.0,0.0,0.0,0.0,0.0,0.0,0.0,0.0,0.0,0.0,0.0,-1.319,-1.3085,-1.2822,-1.2627,-1.2529,-1.2141,-1.1608,0.0,0.0,0.0,0.0,0.0,0.0,0.0,0.0,0.0,0.0,0.0,0.0,0.0,0.0,0.0,0.0,0.0,0.0,0.0,0.0,0.0,0.0,0.0,0.0,0.0,0.0,0.0,0.0,0.0,0.0,0.0,0.0,0.0,0.0,0.0,0.0,0.0,0.0,0.0,0.0,0.0,0.0,0.0,0.0,0.0,0.0,0.0,0.0,-1.797,0.0,0.0,0.0,0.0,0.0,0.0,0.0,0.0,0.0,0.0,0.0,0.0,0.0,0.0,0.0,0.0,0.0,0.0,0.0,0.0,0.0,0.0,0.0,0.0,0.0,0.0,0.0,0.0,0.0,0.0,0.0,0.0,0.0,0.0,0.0,0.0,0.0,0.0,0.0,0.0,0.0,0.0,0.0,0.0,0.0,0.0,0.0,0.0,0.0,0.0,0.0,0.0,0.0,0.0,0.0,0.0,0.0,0.0,0.0,-1.2968,-1.2988,-1.2725,-1.2578,-1.248,-1.2017,-1.1549,0.0,0.0,0.0,0.0,0.0,0.0,0.0,0.0,0.0,0.0,0.0,0.0,0.0,0.0,0.0,0.0,0.0,0.0,0.0,0.0,0.0,0.0,0.0,0.0,0.0,0.0,0.0,0.0,0.0,0.0,0.0,0.0,0.0,0.0,0.0,0.0,0.0,0.0,0.0,0.0,0.0,0.0,0.0,0.0,0.0,0.0,0.0,0.0,0.0,0.0,0.0,0.0,0.0,0.0,0.0,0.0,0.0,0.0,0.0,0.0,0.0,0.0,0.0,0.0,0.0,0.0,0.0,0.0,0.0,0.0,0.0,0.0,0.0,0.0,0.0,0.0,0.0,0.0,0.0,0.0,0.0,0.0,0.0,0.0,0.0,0.0,0.0,0.0,0.0,0.0,0.0,0.0,0.0,0.0,0.0,0.0,0.0,0.0,0.0,0.0,0.0,0.0,0.0,0.0,0.0,0.0,0.0,-1.2416,-1.2774,-1.2891,-1.2627,-1.2529,-1.248,-1.1968,-1.1492,-1.1119,0.0,0.0,0.0,0.0,0.0,0.0,0.0,0.0,0.0,0.0,0.0,0.0,0.0,0.0,0.0,0.0,0.0,0.0,0.0,0.0,0.0,0.0,0.0,0.0,0.0,0.0,0.0,0.0,0.0,0.0,0.0,0.0,0.0,0.0,0.0,0.0,0.0,0.0,-1.5837,-1.7268,0.0,0.0,0.0,0.0,0.0,0.0,0.0,0.0,-1.9833,0.0,0.0,0.0,0.0,0.0,0.0,0.0,0.0,0.0,0.0,0.0,0.0,0.0,0.0,0.0,0.0,0.0,0.0,0.0,0.0,0.0,0.0,0.0,0.0,0.0,0.0,0.0,0.0,0.0,0.0,0.0,0.0,0.0,0.0,0.0,0.0,0.0,0.0,0.0,0.0,0.0,0.0,0.0,0.0,0.0,0.0,0.0,0.0,0.0,0.0,0.0,0.0,0.0,0.0,0.0,0.0,-1.1574,-1.232,-1.2725,-1.2725,-1.2578,-1.2529,-1.248,-1.1968,-1.1492,-1.1119,0.0,0.0,0.0,0.0,0.0,0.0,0.0,0.0,0.0,0.0,0.0,0.0,0.0,0.0,0.0,0.0,0.0,0.0,0.0,0.0,0.0,0.0,0.0,0.0,0.0,0.0,0.0,0.0,0.0,0.0,0.0,0.0,0.0,0.0,0.0,0.0,0.0,0.0,0.0,-1.7998,-1.8561,0.0,0.0,0.0,0.0,0.0,0.0,0.0,0.0,-1.9737,0.0,0.0,0.0,0.0,0.0,0.0,0.0,0.0,0.0,0.0,0.0,0.0,0.0,0.0,0.0,0.0,0.0,0.0,0.0,0.0,0.0,0.0,0.0,0.0,0.0,0.0,0.0,0.0,0.0,0.0,0.0,0.0,0.0,0.0,0.0,0.0,0.0,0.0,0.0,0.0,0.0,0.0,0.0,0.0,0.0,0.0,0.0,0.0,0.0,0.0,0.0,0.0,0.0,0.0,0.0,-1.1822,-1.2318,-1.2627,-1.2676,-1.2578,-1.2529,-1.248,-1.1835,-1.1238,0.0,0.0,0.0,0.0,0.0,0.0,0.0,0.0,0.0,0.0,0.0,0.0,0.0,0.0,0.0,0.0,0.0,0.0,0.0,0.0,0.0,0.0,0.0,0.0,0.0,0.0,0.0,0.0,0.0,0.0,0.0,0.0,0.0,0.0,0.0,0.0,0.0,0.0,0.0,0.0,-1.8506,-1.9045,-1.9545,0.0,0.0,0.0,0.0,0.0,0.0,-1.9904,-1.969,0.0,0.0,0.0,0.0,0.0,0.0,0.0,0.0,0.0,0.0,0.0,0.0,0.0,0.0,0.0,0.0,0.0,0.0,0.0,0.0,0.0,0.0,0.0,0.0,0.0,0.0,0.0,0.0,0.0,0.0,0.0,0.0,0.0,0.0,0.0,0.0,0.0,0.0,0.0,0.0,0.0,0.0,0.0,0.0,0.0,0.0,0.0,0.0,0.0,0.0,0.0,0.0,0.0,0.0,0.0,-1.1999,-1.2332,-1.2529,-1.2676,-1.2578,-1.2529,-1.2529,-1.1796,-1.1111,0.0,0.0,0.0,0.0,0.0,0.0,0.0,0.0,0.0,0.0,0.0,0.0,0.0,0.0,0.0,0.0,0.0,0.0,0.0,0.0,0.0,0.0,0.0,0.0,0.0,0.0,0.0,0.0,0.0,0.0,0.0,0.0,0.0,0.0,0.0,0.0,0.0,0.0,0.0,0.0,0.0,-1.9494,-1.9789,-1.9779,0.0,0.0,0.0,0.0,-2.0076,-1.9904,0.0,0.0,0.0,0.0,0.0,0.0,0.0,0.0,0.0,0.0,0.0,0.0,0.0,0.0,0.0,0.0,0.0,0.0,0.0,0.0,0.0,0.0,0.0,0.0,0.0,0.0,0.0,0.0,0.0,0.0,0.0,0.0,0.0,0.0,0.0,0.0,0.0,0.0,0.0,0.0,0.0,0.0,0.0,0.0,0.0,0.0,0.0,0.0,0.0,0.0,0.0,0.0,0.0,0.0,0.0,0.0,-1.1733,-1.2135,-1.2431,-1.2676,-1.2676,-1.2676,-1.2676,-1.1892,-1.1204,0.0,0.0,0.0,0.0,0.0,0.0,0.0,0.0,0.0,0.0,0.0,0.0,0.0,0.0,0.0,0.0,0.0,0.0,0.0,0.0,0.0,0.0,0.0,0.0,0.0,0.0,0.0,0.0,0.0,0.0,0.0,0.0,0.0,0.0,0.0,0.0,0.0,0.0,0.0,0.0,0.0,-1.9671,-2.0452,-2.0115,-2.008,0.0,0.0,-2.0115,-2.022,-2.0111,0.0,0.0,0.0,0.0,0.0,0.0,0.0,0.0,0.0,0.0,0.0,0.0,0.0,0.0,0.0,0.0,0.0,0.0,0.0,0.0,0.0,0.0,0.0,0.0,0.0,0.0,0.0,0.0,0.0,0.0,0.0,0.0,0.0,0.0,0.0,0.0,0.0,0.0,0.0,0.0,0.0,0.0,0.0,0.0,0.0,0.0,0.0,0.0,0.0,0.0,0.0,0.0,0.0,0.0,0.0,-1.0608,-1.1633,-1.2184,-1.2529,-1.2676,-1.2822,-1.2706,-1.2425,-1.1815,-1.1153,0.0,0.0,0.0,0.0,0.0,0.0,0.0,0.0,0.0,0.0,0.0,0.0,0.0,0.0,0.0,0.0,0.0,0.0,0.0,0.0,0.0,0.0,0.0,0.0,0.0,0.0,0.0,0.0,0.0,0.0,0.0,0.0,0.0,0.0,0.0,0.0,0.0,0.0,0.0,0.0,0.0,0.0,-2.0079,-2.005,0.0,0.0,0.0,-2.0962,-2.1289,0.0,0.0,0.0,0.0,0.0,0.0,0.0,0.0,0.0,0.0,0.0,0.0,0.0,0.0,0.0,0.0,0.0,0.0,0.0,0.0,0.0,0.0,0.0,0.0,0.0,0.0,0.0,0.0,0.0,0.0,0.0,0.0,0.0,0.0,0.0,0.0,0.0,0.0,0.0,0.0,0.0,0.0,0.0,0.0,0.0,0.0,0.0,0.0,0.0,0.0,0.0,0.0,0.0,0.0,0.0,0.0,0.0,-1.1751,-1.2234,-1.2627,-1.2822,-1.3017,-1.2847,-1.2319,-1.1841,0.0,0.0,0.0,0.0,0.0,0.0,0.0,0.0,0.0,0.0,0.0,0.0,0.0,0.0,0.0,0.0,0.0,0.0,0.0,0.0,0.0,0.0,0.0,0.0,0.0,0.0,0.0,-1.0077,0.0,0.0,0.0,0.0,0.0,0.0,0.0,0.0,0.0,0.0,0.0,0.0,0.0,0.0,-1.9685,-2.0168,-2.0388,-2.0813,0.0,0.0,-2.167,-2.2041,-2.1554,-2.0917,0.0,0.0,0.0,0.0,0.0,0.0,0.0,0.0,0.0,0.0,0.0,0.0,0.0,0.0,0.0,0.0,0.0,0.0,0.0,0.0,0.0,0.0,0.0,0.0,0.0,0.0,0.0,0.0,0.0,0.0,0.0,0.0,0.0,0.0,0.0,0.0,0.0,0.0,0.0,0.0,0.0,0.0,0.0,0.0,0.0,0.0,0.0,0.0,0.0,0.0,0.0,0.0,0.0,0.0,-1.0625,-1.185,-1.2283,-1.2706,-1.317,-1.3314,-1.3138,-1.2645,-1.224,-1.1581,0.0,0.0,0.0,0.0,0.0,0.0,0.0,0.0,0.0,0.0,0.0,0.0,0.0,0.0,0.0,0.0,0.0,0.0,0.0,0.0,0.0,0.0,0.0,0.0,0.0,0.0,0.0,0.0,0.0,0.0,0.0,0.0,0.0,0.0,0.0,0.0,0.0,0.0,0.0,0.0,0.0,-2.0352,-2.1258,-2.1584,-2.1952,0.0,-2.2391,-2.2072,-2.2125,-2.1909,-2.1476,-2.064,0.0,0.0,0.0,0.0,0.0,0.0,0.0,0.0,0.0,0.0,0.0,0.0,0.0,0.0,0.0,0.0,0.0,0.0,0.0,0.0,0.0,0.0,0.0,0.0,0.0,0.0,0.0,0.0,0.0,0.0,0.0,0.0,0.0,0.0,0.0,0.0,0.0,0.0,0.0,0.0,0.0,0.0,0.0,0.0,0.0,0.0,0.0,0.0,0.0,0.0,0.0,0.0,0.0,-1.088,-1.2017,-1.2442,-1.2929,-1.3409,-1.3742,-1.3545,-1.2785,-1.2573,-1.1985,0.0,0.0,0.0,0.0,0.0,0.0,0.0,0.0,0.0,0.0,0.0,0.0,0.0,0.0,0.0,0.0,0.0,0.0,0.0,0.0,0.0,0.0,0.0,0.0,0.0,0.0,0.0,0.0,-1.1121,-1.146,-1.2264,0.0,0.0,0.0,0.0,0.0,0.0,0.0,0.0,0.0,0.0,-2.02,-2.1215,-2.1475,0.0,0.0,-2.2687,-2.2657,-2.2968,-2.2491,-2.1946,-2.1397,-2.0926,0.0,0.0,0.0,0.0,0.0,0.0,0.0,0.0,0.0,0.0,0.0,0.0,0.0,0.0,0.0,0.0,0.0,0.0,0.0,0.0,0.0,0.0,0.0,0.0,0.0,0.0,0.0,0.0,0.0,0.0,0.0,0.0,0.0,0.0,0.0,0.0,0.0,0.0,0.0,0.0,0.0,0.0,0.0,0.0,0.0,0.0,0.0,0.0,0.0,0.0,0.0,0.0,-1.1165,-1.2166,-1.2735,-1.3266,-1.3789,-1.4186,-1.3914,-1.3017,-1.2973,-1.2392,0.0,0.0,0.0,0.0,0.0,0.0,0.0,0.0,0.0,0.0,0.0,0.0,0.0,0.0,0.0,0.0,0.0,0.0,0.0,0.0,0.0,0.0,0.0,0.0,0.0,0.0,0.0,0.0,-1.176,-1.2086,-1.2964,0.0,0.0,0.0,0.0,0.0,0.0,0.0,0.0,0.0,0.0,-2.0372,-2.1262,-2.162,-2.2069,-2.2918,-2.3122,-2.3331,-2.3867,-2.3467,-2.2995,-2.2756,0.0,0.0,0.0,0.0,0.0,0.0,0.0,0.0,0.0,0.0,0.0,0.0,0.0,0.0,0.0,0.0,0.0,0.0,0.0,0.0,0.0,0.0,0.0,0.0,0.0,0.0,0.0,-0.5016,0.0,0.0,-0.4511,0.0,0.0,0.0,0.0,0.0,0.0,0.0,0.0,0.0,0.0,0.0,0.0,0.0,0.0,0.0,0.0,0.0,0.0,0.0,0.0,0.0,0.0,-1.1375,-1.2393,-1.3025,-1.3695,-1.4373,-1.4605,-1.4272,-1.3433,-1.3365,-1.2793,-1.1549,0.0,0.0,0.0,0.0,0.0,0.0,0.0,0.0,0.0,0.0,0.0,0.0,0.0,0.0,0.0,0.0,0.0,0.0,0.0,0.0,0.0,0.0,0.0,0.0,0.0,0.0,-1.265,-1.2896,-1.3338,0.0,0.0,0.0,0.0,0.0,0.0,0.0,0.0,0.0,-1.9669,-2.054,-2.1198,-2.1538,-2.2202,-2.2896,-2.3482,-2.3804,-2.4177,-2.4646,-2.4859,-2.4888,0.0,0.0,0.0,0.0,0.0,0.0,0.0,0.0,0.0,0.0,0.0,0.0,0.0,0.0,0.0,0.0,0.0,0.0,0.0,0.0,0.0,0.0,0.0,0.0,0.0,0.0,0.0,-0.497,-0.4826,0.0,0.0,0.0,0.0,0.0,0.0,0.0,0.0,0.0,0.0,0.0,-0.8248,-0.8767,0.0,0.0,0.0,0.0,0.0,0.0,0.0,0.0,0.0,0.0,0.0,0.0,-1.1871,-1.2764,-1.3457,-1.4165,-1.4834,-1.5108,-1.4984,-1.4518,-1.4081,-1.3205,-1.1844,0.0,0.0,0.0,0.0,0.0,0.0,0.0,0.0,0.0,0.0,0.0,0.0,0.0,0.0,0.0,0.0,0.0,0.0,0.0,0.0,0.0,0.0,0.0,0.0,0.0,-1.2938,0.0,0.0,0.0,0.0,0.0,0.0,0.0,0.0,0.0,0.0,-1.8534,-1.9189,-1.9767,-2.0637,-2.139,-2.209,-2.2916,-2.354,0.0,0.0,0.0,0.0,0.0,0.0,0.0,0.0,0.0,0.0,0.0,0.0,0.0,0.0,-2.3576,-2.3197,-2.2879,-2.2744,-2.2854,0.0,0.0,0.0,0.0,0.0,0.0,0.0,0.0,0.0,0.0,0.0,0.0,0.0,0.0,-0.5044,-0.4952,-0.4886,0.0,0.0,0.0,0.0,0.0,0.0,0.0,0.0,-0.7846,-0.8549,-0.9275,-1.0032,-1.0502,-1.068,-1.0975,-1.0638,0.0,0.0,0.0,0.0,0.0,0.0,0.0,0.0,-1.2295,-1.3102,-1.3836,-1.4536,-1.5198,-1.5468,-1.5497,-1.5222,-1.4373,-1.3388,-1.2173,-1.1872,-1.1638,0.0,0.0,0.0,0.0,0.0,0.0,0.0,0.0,0.0,0.0,0.0,0.0,0.0,0.0,0.0,0.0,0.0,0.0,0.0,0.0,0.0,0.0,0.0,-1.3374,0.0,0.0,0.0,0.0,0.0,0.0,0.0,0.0,0.0,-1.8403,-1.9002,-1.9588,-2.0092,-2.0966,-2.1821,-2.2478,0.0,0.0,0.0,0.0,0.0,0.0,0.0,-2.5567,-2.5766,-2.5785,-2.5741,-2.5597,-2.5544,-2.5425,-2.5221,0.0,0.0,-2.4284,-2.3948,-2.3801,-2.392,-2.3896,-2.3885,-2.4053,-2.4555,-2.4957,0.0,0.0,0.0,0.0,-0.4821,0.0,0.0,0.0,-0.5384,-0.5448,0.0,-0.5297,0.0,0.0,0.0,0.0,-0.5974,-0.6611,0.0,0.0,-0.881,-0.9656,-1.0504,-1.1613,-1.2259,-1.249,-1.2691,-1.2679,-1.2497,-1.0898,0.0,0.0,0.0,0.0,0.0,0.0,-1.2627,-1.3471,-1.423,-1.4925,-1.5492,-1.5715,-1.5671,-1.534,-1.4254,-1.3264,-1.2532,-1.2306,-1.2018,-1.1616,-1.1431,0.0,0.0,0.0,0.0,0.0,0.0,0.0,0.0,0.0,0.0,0.0,0.0,0.0,0.0,0.0,0.0,0.0,0.0,0.0,0.0,-1.3179,0.0,0.0,0.0,0.0,0.0,0.0,0.0,0.0,0.0,-1.8858,-1.9494,-1.986,-2.0167,-2.0544,0.0,0.0,0.0,0.0,-2.3861,-2.4682,-2.5005,-2.5412,-2.614,-2.652,-2.6864,-2.7335,0.0,0.0,-2.6534,-2.5957,-2.5567,-2.5548,-2.5176,-2.4757,-2.4554,-2.4574,-2.4655,-2.4775,-2.4863,-2.5005,-2.5005,-2.502,-2.5123,-0.5138,0.0,0.0,0.0,0.0,-0.5847,-0.61,-0.6295,-0.6462,-0.6503,-0.6382,-0.6189,0.0,0.0,0.0,0.0,0.0,0.0,-0.8259,-0.9283,-1.0151,-1.1296,-1.2577,-1.3397,-1.4106,-1.4681,-1.4351,-1.4347,-1.4689,-1.3655,-1.2461,-1.1161,0.0,0.0,0.0,0.0,-1.3698,-1.4522,-1.4953,-1.5495,-1.6125,-1.613,-1.5691,-1.4918,-1.4596,-1.3889,-1.2769,-1.2508,-1.2294,-1.1968,-1.1616,0.0,0.0,0.0,0.0,0.0,0.0,0.0,0.0,0.0,0.0,0.0,0.0,0.0,0.0,0.0,0.0,0.0,0.0,0.0,-1.335,-1.4342,-1.5051,0.0,0.0,0.0,0.0,0.0,0.0,0.0,0.0,0.0,-2.026,-2.046,-2.0588,0.0,0.0,-2.2406,-2.2605,-2.3358,-2.4007,-2.4352,-2.4712,0.0,-2.5872,-2.6221,-2.6651,-2.753,-2.7838,-2.7994,-2.8093,-2.7564,-2.6954,-2.6573,-2.5958,-2.5372,-2.4941,-2.4966,-2.5123,-2.5201,-2.5317,-2.5464,-2.5476,-2.5513,-2.5551,-0.6751,-0.6251,-0.5788,-0.5867,-0.6359,-0.6758,-0.7207,-0.7542,-0.7689,-0.77,-0.7715,-0.7523,-0.7368,-0.7315,-0.7445,0.0,0.0,0.0,-0.9767,-1.0745,-1.1668,-1.2703,-1.395,-1.4893,-1.5685,-1.629,-1.6158,-1.6344,-1.671,-1.6055,-1.5053,-1.3749,0.0,-1.2546,-1.2767,-1.3313,-1.3961,-1.4777,-1.5257,-1.5759,-1.6197,-1.6248,-1.5885,-1.5057,-1.4809,-1.4211,-1.3119,-1.277,-1.2401,-1.2041,-1.1726,-1.1319,0.0,0.0,0.0,0.0,0.0,0.0,0.0,0.0,0.0,0.0,0.0,-1.1327,-1.1567,0.0,0.0,0.0,-1.3141,-1.3679,-1.4524,-1.5316,0.0,0.0,0.0,0.0,0.0,0.0,0.0,-1.9987,-2.014,-2.0401,-2.0913,-2.1215,-2.1237,-2.097,-2.1947,-2.2825,-2.3021,0.0,-2.4426,-2.4624,-2.482,-2.516,-2.5658,-2.6149,-2.6752,-2.7583,-2.798,-2.8124,-2.8029,-2.7404,-2.6854,-2.6416,-2.5822,-2.5237,-2.4949,-2.5005,-2.5123,-2.5278,-2.5432,-2.5546,-2.5589,-2.5663,-2.5775,-0.8624,-0.8852,-0.732,-0.7069,-0.7567,-0.7894,-0.8373,-0.8955,-0.9025,-0.9132,-0.9395,-0.9103,-0.8978,-0.9017,-0.9346,0.0,-1.008,-1.0802,-1.1546,-1.2269,-1.3148,-1.4032,-1.4959,-1.6138,-1.7053,-1.7579,-1.8165,-1.8466,-1.849,-1.8009,-1.7533,-1.7016,-1.4505,-1.3166,-1.3072,-1.3387,-1.3917,-1.464,-1.5332,-1.5797,-1.6008,-1.6272,-1.6108,-1.543,-1.4992,-1.4318,-1.354,-1.3022,-1.2543,-1.2022,-1.1801,-1.1427,-1.0817,0.0,0.0,0.0,0.0,0.0,0.0,0.0,0.0,0.0,0.0,0.0,0.0,0.0,0.0,-1.3497,-1.4253,0.0,-1.5805,-1.6068,0.0,0.0,0.0,-1.8495,-1.8816,-1.9565,-2.0274,-2.0909,0.0,0.0,-2.1643,-2.2002,-2.2021,-2.1595,-2.2592,-2.3464,-2.3605,-2.4258,-2.4886,-2.4941,-2.5124,-2.5265,-2.5511,-2.6176,-2.6866,-2.7272,-2.7626,-2.7543,-2.7024,-2.6334,-2.579,-2.5706,-2.5072,-2.4605,-2.4757,-2.4757,-2.4806,-2.4974,-2.5208,-2.5394,-2.5432,-2.5584,-2.5738,-0.975,-1.0626,-1.0184,-0.9587,-0.889,-0.9717,-1.0113,-1.0388,-1.0681,-1.093,-1.1054,-1.0877,-1.0837,-1.0812,-1.0823,-1.1096,-1.1573,-1.1995,-1.2765,-1.3744,-1.4511,-1.5477,-1.6597,-1.7523,-1.8302,-1.9117,-1.9836,-2.0004,-1.9772,-1.9514,-1.8902,-1.7985,-1.6678,-1.5708,-1.5155,-1.4939,-1.5091,-1.5625,-1.5835,-1.6027,-1.6126,-1.6405,-1.6037,-1.5013,-1.4869,-1.441,-1.3593,-1.3397,-1.3146,-1.2843,-1.2582,-1.2233,-1.1736,-1.142,0.0,0.0,0.0,0.0,0.0,0.0,0.0,0.0,0.0,-1.2212,-1.251,0.0,-1.3126,0.0,-1.5114,-1.581,-1.5759,-1.6484,0.0,0.0,-1.86,-1.9418,-2.0681,-2.1037,-2.1465,-2.2181,-2.2147,-2.2158,-2.2392,-2.2291,-2.2265,-2.2395,-2.2922,-2.3452,-2.3775,-2.407,-2.4394,-2.4597,-2.464,-2.4909,-2.5431,-2.6089,-2.655,-2.6565,-2.6745,-2.6772,-2.6691,-2.6069,-2.5517,-2.5369,-2.4833,-2.4431,-2.4441,-2.4441,-2.4441,-2.4492,-2.4855,-2.5201,-2.5317,-2.547,-2.5696,-1.1539,-1.2382,-1.2455,-1.1991,-1.1358,-1.1425,-1.1593,-1.188,-1.2369,-1.2589,-1.265,-1.2489,-1.2593,-1.2898,-1.2792,-1.3143,-1.3705,-1.4007,-1.4673,-1.5585,-1.6298,-1.7131,-1.8184,-1.8994,-1.9802,-2.0617,-2.1062,-2.1206,-2.1078,-2.0597,-1.9824,-1.8892,-1.7958,-1.7135,-1.6326,-1.5605,-1.542,-1.5831,-1.6048,-1.6321,-1.6643,-1.6574,-1.6028,-1.5089,-1.483,-1.4425,-1.3811,-1.3501,-1.3223,-1.2909,-1.2764,-1.2468,-1.2062,-1.1824,-1.1582,0.0,0.0,0.0,0.0,0.0,0.0,0.0,0.0,0.0,0.0,0.0,-1.3894,-1.4911,-1.5849,-1.6439,-1.6427,-1.7113,-1.7908,-1.8837,-1.9558,-2.0512,-2.183,-2.2308,-2.2717,-2.3069,-2.3054,-2.3009,-2.298,-2.27,-2.2539,-2.2828,-2.297,-2.3112,-2.3354,-2.3482,-2.3725,-2.4075,-2.4098,-2.4389,-2.5222,-2.5716,-2.5962,-2.5843,-2.5901,-2.5895,-2.5531,-2.5161,-2.4841,-2.4725,-2.4407,-2.4151,-2.4193,-2.4193,-2.4193,-2.4234,-2.441,-2.4695,-2.4966,-2.524,-2.5508,-1.3678,-1.4162,-1.423,-1.4196,-1.4044,-1.3308,-1.3055,-1.3453,-1.3849,-1.4122,-1.4162,-1.4089,-1.4367,-1.4952,-1.4922,-1.5327,-1.6049,-1.6201,-1.6733,-1.7486,-1.81,-1.8746,-1.9476,-2.0431,-2.121,-2.1885,-2.1958,-2.2085,-2.2217,-2.1384,-2.0553,-1.9701,-1.8751,-1.7852,-1.6991,-1.5938,-1.5514,-1.575,-1.6202,-1.6699,-1.7158,-1.6668,-1.6033,-1.5266,-1.4891,-1.4485,-1.4005,-1.3561,-1.3148,-1.2851,-1.2786,-1.2593,-1.229,-1.2223,-1.2047,0.0,-1.2116,0.0,0.0,0.0,0.0,0.0,0.0,0.0,0.0,-1.4373,-1.4971,-1.5932,-1.6454,-1.6947,-1.7376,-1.7814,-1.8464,-1.9555,-2.0546,-2.1568,-2.2569,-2.3408,-2.3782,-2.3696,-2.3653,-2.361,-2.3537,-2.3053,-2.2869,-2.3121,-2.294,-2.2817,-2.2797,-2.3033,-2.3354,-2.3676,-2.3717,-2.4141,-2.486,-2.5124,-2.5198,-2.5037,-2.505,-2.4805,-2.4189,-2.4097,-2.4024,-2.394,-2.397,-2.394,-2.394,-2.394,-2.394,-2.394,-2.3994,-2.4162,-2.4492,-2.4886,-2.524,-1.5144,-1.5589,-1.5873,-1.5816,-1.5487,-1.5293,-1.4874,-1.4364,-1.4878,-1.5507,-1.6242,-1.6538,-1.6711,-1.6847,-1.6776,-1.6867,-1.7278,-1.7278,-1.7728,-1.8544,-1.8893,-1.9476,-2.0053,-2.0836,-2.142,-2.1929,-2.2321,-2.2524,-2.2501,-2.1886,-2.1174,-2.0371,-1.9251,-1.8414,-1.7784,0.0,0.0,0.0,-1.667,-1.658,-1.639,-1.6505,-1.6049,-1.4925,-1.4812,0.0,-1.4011,-1.39,-1.379,-1.3605,-1.3465,0.0,0.0,0.0,0.0,0.0,0.0,0.0,0.0,0.0,0.0,0.0,-1.4419,-1.4466,-1.4488,-1.5062,-1.5603,-1.6001,-1.6582,-1.7089,-1.7447,-1.8028,-1.899,-2.0464,-2.1134,-2.2032,-2.3462,-2.3849,-2.3982,-2.4067,-2.3982,-2.394,-2.3994,-2.357,-2.3302,-2.3476,-2.3211,-2.2948,-2.2948,-2.3469,-2.3883,-2.3885,-2.4021,-2.4318,-2.4471,-2.4365,-2.4298,-2.4079,-2.3963,-2.3846,-2.367,-2.364,-2.364,-2.3596,-2.3596,-2.3596,-2.3596,-2.3596,-2.3596,-2.3596,-2.3653,-2.3824,-2.4245,-2.4533,-2.4815,-1.6199,-1.6592,-1.6554,-1.6469,0.0,-1.6315,-1.6072,-1.5615,-1.5859,-1.6535,-1.7382,-1.7652,-1.8009,-1.8513,-1.8538,-1.8664,-1.8921,-1.8921,-1.9217,-1.9696,-2.0053,-2.0575,-2.1167,-2.1897,-2.2474,-2.2853,-2.2981,-2.3052,-2.2983,-2.1936,-2.1107,-2.0411,-1.936,-1.8549,-1.8124,-1.767,-1.7409,-1.7176,-1.7041,-1.6983,-1.6996,-1.6985,-1.6409,-1.5238,-1.5193,0.0,0.0,0.0,0.0,0.0,0.0,0.0,0.0,-1.381,0.0,-1.3789,-1.3905,-1.4071,-1.4212,-1.4419,-1.4651,-1.488,-1.5062,-1.5108,-1.5062,-1.5468,-1.5913,-1.6219,-1.6752,-1.7256,-1.7625,-1.8187,-1.9205,-2.0826,-2.1435,-2.2375,-2.3834,-2.4151,-2.4193,-2.4234,-2.4151,-2.4067,-2.4109,-2.3651,-2.3372,-2.3437,-2.3136,-2.2839,-2.2765,-2.3238,-2.3628,-2.3631,-2.4008,-2.4162,-2.3994,-2.3782,-2.364,-2.348,-2.3348,-2.3304,-2.3304,-2.3304,-2.3304,-2.3348,-2.3422,-2.3422,-2.3422,-2.3422,-2.3422,-2.3422,-2.3392,-2.3566,-2.3909,-2.4204,-2.4533,-1.7148,-1.736,-1.7009,-1.6871,-1.6821,-1.6769,-1.682,-1.6843,-1.6809,0.0,0.0,-1.8523,-1.9056,-1.9865,-2.0103,-2.0327,-2.0536,-2.0517,-2.0671,-2.0938,-2.1191,-2.1691,-2.2303,-2.297,-2.3446,-2.379,-2.3478,-2.3345,-2.3276,-2.1909,-2.0899,-2.0292,-1.9417,-1.8812,-1.8556,-1.807,-1.7856,-1.7873,-1.754,-1.7444,-1.7746,-1.7554,-1.6848,-1.5672,-1.5578,-1.5067,-1.4136,-1.4114,-1.4067,-1.3952,-1.3952,-1.3999,-1.4161,-1.4326,-1.4419,-1.4558,-1.4697,-1.4834,-1.4994,-1.513,-1.5244,-1.5402,-1.5603,-1.5647,-1.5558,-1.578,-1.6064,-1.6479,-1.6947,-1.7406,-1.7787,-1.8416,-1.9477,-2.1046,-2.1715,-2.2646,-2.3978,-2.4234,-2.4234,-2.4234,-2.412,-2.4078,-2.4024,-2.3692,-2.3446,-2.3425,-2.3204,-2.2885,-2.274,-2.293,-2.323,-2.3535,-2.3762,-2.3782,-2.3566,-2.3348,-2.3127,-2.3038,-2.2859,-2.283,-2.2949,-2.2994,-2.3038,-2.3127,-2.3172,-2.3172,-2.3172,-2.3172,-2.3172,-2.3201,-2.3246,-2.326,-2.3523,-2.3867,-2.4245,-1.8046,-1.7928,-1.7888,-1.7702,-1.7397,-1.7261,-1.7223,-1.7327,-1.7769,-1.8427,-1.9372,-1.9957,-2.0465,-2.0948,-2.1207,-2.1325,-2.1345,-2.1326,-2.1637,-2.223,-2.2009,-2.2298,-2.29,-2.3047,-2.315,-2.3372,-2.3305,-2.3187,-2.2974,-2.2034,-2.1225,-2.0469,-1.9893,-1.9661,-1.953,-1.9135,-1.9052,-1.9458,-1.8374,-1.7725,-1.7659,-1.7612,-1.7,-1.5934,-1.5745,-1.5305,-1.4556,-1.4534,-1.4488,-1.4488,-1.4534,-1.4651,-1.4766,-1.5017,-1.5176,-1.5176,-1.5289,-1.5424,-1.5513,-1.5513,-1.5647,-1.5869,-1.6001,-1.6001,-1.578,-1.6001,-1.6287,-1.6479,-1.7031,-1.7529,-1.7975,-1.8967,-2.0045,-2.1215,-2.2092,-2.2998,-2.3933,-2.4067,-2.4067,-2.4067,-2.4024,-2.4024,-2.3952,-2.3903,-2.3853,-2.3926,-2.3682,-2.3701,-2.3466,-2.3234,-2.3244,-2.369,-2.3593,-2.3392,-2.326,-2.2978,-2.2723,-2.2678,-2.2449,-2.2356,-2.2495,-2.2495,-2.2586,-2.2768,-2.2785,-2.2785,-2.2814,-2.2785,-2.2814,-2.2814,-2.2904,-2.3038,-2.3231,-2.3569,-2.3958,-1.8645,-1.849,-1.8183,-1.7969,-1.7796,-1.7653,-1.7908,-1.839,-1.867,-1.9095,-1.9637,-2.0456,-2.1176,-2.1632,-2.207,-2.2169,-2.2039,-2.2039,-2.2154,-2.2513,-2.2473,-2.2773,-2.3287,-2.3229,-2.3243,-2.3297,-2.3057,-2.2927,-2.2734,-2.1987,-2.1376,-2.1123,-2.0727,-2.0335,-2.0001,-2.0152,-2.0064,-1.979,-1.8893,-1.8401,-1.8377,-1.8041,-1.7494,-1.6619,-1.629,-1.5707,-1.4994,-1.4971,-1.4971,-1.4971,-1.4994,-1.5085,-1.522,-1.5334,-1.5424,-1.5468,-1.5582,-1.5647,-1.5691,-1.5824,-1.6001,-1.6219,-1.6306,-1.6306,-1.6175,-1.6306,-1.6479,-1.6735,-1.7199,-1.7786,-1.8535,-1.9329,-2.0344,-2.1786,-2.2378,-2.3047,-2.3788,-2.394,-2.3897,-2.3897,-2.3824,-2.3782,-2.3812,-2.3824,-2.3897,-2.3824,-2.3696,-2.3566,-2.3553,-2.3068,-2.295,-2.342,-2.3246,-2.2949,-2.2859,-2.2523,-2.2217,-2.217,-2.1935,-2.1888,-2.203,-2.2105,-2.217,-2.2356,-2.2402,-2.2449,-2.242,-2.2449,-2.2449,-2.254,-2.2632,-2.2855,-2.3402,-2.4147,-2.4835,-1.8971,-1.8878,-1.8437,-1.817,-1.8104,-1.8206,-1.8644,-1.9336,-1.9539,-1.9743,-2.0154,-2.087,-2.1553,-2.2176,-2.2618,-2.2795,-2.2676,-2.2656,-2.265,-2.2752,-2.2796,-2.3084,-2.345,-2.3329,-2.3275,-2.3289,-2.2862,-2.2627,-2.2584,-2.1935,-2.1639,-2.1833,-2.1457,-2.1059,-2.0694,-2.1054,-2.0888,-2.0322,-1.9613,-1.9172,-1.9081,-1.8642,-1.8061,-1.7314,-1.686,-1.6243,-1.5492,-1.54,-1.54,-1.54,-1.54,-1.5445,-1.5558,-1.5558,-1.5603,-1.5647,-1.5715,-1.576,-1.5824,-1.6113,-1.6262,-1.6392,-1.6604,-1.6722,-1.6722,-1.6823,-1.6903,-1.7024,-1.7371,-1.8013,-1.8879,-1.9726,-2.0694,-2.2072,-2.2592,-2.3143,-2.3734,-2.3782,-2.3739,-2.3739,-2.3653,-2.361,-2.361,-2.3653,-2.3653,-2.348,-2.326,-2.3157,-2.3038,-2.2678,-2.2586,-2.2768,-2.2632,-2.2402,-2.2356,-2.1935,-2.165,-2.1602,-2.141,-2.1361,-2.1506,-2.1602,-2.1698,-2.1935,-2.1983,-2.1983,-2.203,-2.203,-2.2123,-2.2217,-2.2544,-2.3091,-2.4072,-2.5112,-2.5833,-1.9172,-1.8945,-1.8851,-1.8642,-1.8454,-1.8626,-1.9038,-1.9652,-2.0167,-2.0864,-2.1344,-2.1536,-2.1909,-2.2441,-2.2882,-2.3018,-2.3066,-2.3086,-2.3114,-2.3295,-2.2978,-2.3032,-2.341,-2.3084,-2.294,-2.3039,-2.2704,-2.2475,-2.2434,-2.215,-2.2179,-2.243,-2.1936,-2.1947,-2.232,-2.1861,-2.1712,-2.1857,-2.1031,-2.0126,-1.9393,-1.919,-1.8627,-1.7581,-1.7412,-1.6811,-1.5876,-1.5736,-1.576,-1.5736,-1.5736,-1.5736,-1.5804,-1.5736,-1.578,-1.5804,-1.5804,-1.5824,-1.5957,-1.6219,-1.6417,-1.6442,-1.6979,-1.73,-1.7325,-1.7752,-1.7693,-1.7247,-1.7609,-1.8269,-1.8832,-2.0184,-2.131,-2.1975,-2.2731,-2.3333,-2.358,-2.361,-2.3653,-2.361,-2.361,-2.3566,-2.3553,-2.3509,-2.3378,-2.3038,-2.2814,-2.2615,-2.2495,-2.2123,-2.1888,-2.1935,-2.1888,-2.1841,-2.1793,-2.141,-2.1144,-2.1095,-2.0898,-2.0901,-2.1126,-2.1175,-2.1193,-2.1458,-2.1506,-2.1506,-2.1554,-2.1554,-2.1698,-2.2158,-2.2752,-2.3674,-2.4809,-2.589,-2.6421,-1.9292,-1.9172,-1.8998,-1.8807,-1.8777,-1.8759,-1.9273,-2.0163,-2.0718,-2.1349,-2.1937,-2.2172,-2.2419,-2.2618,-2.2969,-2.3144,-2.3144,-2.3144,-2.3232,-2.3493,-2.3315,-2.3408,-2.3604,-2.322,-2.3081,-2.3124,-2.2778,-2.249,-2.2282,-2.2387,-2.2518,-2.2782,-2.2914,-2.3136,-2.3334,-2.3018,-2.2787,-2.2561,-2.1988,-2.1162,-2.0179,-1.948,-1.8883,-1.8412,-1.777,-1.7205,-1.6737,-1.6372,-1.6132,-1.6132,-1.6001,-1.5913,-1.5913,-1.578,-1.576,-1.576,-1.576,-1.5879,-1.6212,-1.6553,-1.6905,-1.7202,-1.7634,-1.7877,-1.7877,-1.8078,-1.8071,-1.7925,-1.8203,-1.8779,-1.9692,-2.056,-2.1383,-2.2173,-2.2803,-2.3172,-2.3392,-2.3436,-2.3436,-2.3436,-2.3436,-2.3392,-2.3378,-2.3172,-2.2949,-2.2723,-2.2402,-2.2077,-2.203,-2.165,-2.1388,-2.1313,-2.1118,-2.1118,-2.1242,-2.097,-2.083,-2.1041,-2.1017,-2.1017,-2.112,-2.1172,-2.1169,-2.1099,-2.1122,-2.1171,-2.1291,-2.1367,-2.1539,-2.2242,-2.3724,-2.4933,-2.5737,-2.6692,-2.7321,-1.9439,-1.9332,-1.9052,-1.8959,-1.8996,-1.8992,-1.9643,-2.057,-2.1146,-2.1816,-2.25,-2.2741,-2.2896,-2.3075,-2.3115,-2.3144,-2.3144,-2.3144,-2.3232,-2.3406,-2.3406,-2.3493,-2.3541,-2.3368,-2.3188,-2.3128,-2.2998,-2.2737,-2.2501,-2.2917,-2.3231,-2.3364,-2.3886,-2.4133,-2.4177,-2.4033,-2.3679,-2.3193,-2.2765,-2.2071,-2.1117,-2.0037,-1.9334,-1.8958,-1.8254,-1.7777,-1.753,-1.696,-1.6573,-1.6529,-1.6118,-1.5844,-1.5869,-1.5647,-1.5539,-1.568,-1.5749,-1.6007,-1.6504,-1.6928,-1.7333,-1.7773,-1.8161,-1.843,-1.8455,-1.8555,-1.8679,-1.8849,-1.9015,-1.9504,-2.0181,-2.0817,-2.1537,-2.2392,-2.2723,-2.2904,-2.3172,-2.3172,-2.3172,-2.3172,-2.3172,-2.3172,-2.3083,-2.2768,-2.2495,-2.231,-2.1888,-2.1554,-2.1506,-2.1166,-2.0848,-2.0848,-2.0653,-2.0732,-2.0985,-2.0835,-2.0836,-2.1144,-2.1268,-2.1215,-2.1375,-2.1375,-2.1301,-2.1223,-2.1013,-2.098,-2.1126,-2.1225,-2.2078,-2.3292,-2.4611,-2.5887,-2.6564,-2.744,-2.8064,-1.9626,-1.9332,-1.9052,-1.9067,-1.929,-1.9521,-2.0061,-2.0893,-2.1562,-2.246,-2.3286,-2.3168,-2.3229,-2.3711,-2.334,-2.3144,-2.3144,-2.3144,-2.3144,-2.3144,-2.3144,-2.3144,-2.3144,-2.3125,-2.3105,-2.3114,-2.3188,-2.3227,-2.3367,-2.393,-2.434,-2.4612,-2.4517,-2.4735,-2.5043,-2.4797,-2.4339,-2.3891,-2.3401,-2.2799,-2.2146,-2.1142,-2.0112,-1.9158,-1.8908,-1.8534,-1.8012,-1.7464,-1.7029,-1.68,-1.6044,-1.5626,-1.5513,-1.5153,-1.5199,-1.5609,-1.582,-1.6241,-1.6903,-1.7364,-1.7654,-1.7921,-1.8536,-1.8933,-1.8958,-1.9309,-1.956,-1.9889,-1.9864,-2.0086,-2.0258,-2.0934,-2.1683,-2.2235,-2.2495,-2.2678,-2.2875,-2.2904,-2.2875,-2.2933,-2.3049,-2.2999,-2.2747,-2.2263,-2.2085,-2.1848,-2.1388,-2.1019,-2.0997,-2.0699,-2.055,-2.0603,-2.0707,-2.0985,-2.1197,-2.1118,-2.1189,-2.1517,-2.1746,-2.1579,-2.161,-2.167,-2.1527,-2.143,-2.1381,-2.1302,-2.1191,-2.1834,-2.3151,-2.4301,-2.5236,-2.6293,-2.7151,-2.7689,-2.8253,-1.9466,-1.9345,-1.9038,-1.9081,-1.9318,-1.9564,-2.0197,-2.1011,-2.1896,-2.2786,-2.3432,-2.371,-2.3836,-2.3789,-2.3633,-2.3398,-2.3164,-2.3144,-2.3144,-2.3144,-2.3144,-2.3144,-2.3144,-2.3144,-2.3144,-2.3105,-2.3421,-2.3887,-2.4218,-2.436,-2.4619,-2.5128,-2.5229,-2.5453,-2.5723,-2.5478,-2.4993,-2.4531,-2.3979,-2.3251,-2.2339,-2.1806,-2.1081,-2.0032,-1.9258,-1.866,-1.8289,-1.7654,-1.7049,-1.6456,-1.5916,-1.5452,-1.504,-1.5103,-1.5255,-1.5578,-1.6115,-1.6802,-1.742,-1.7917,-1.8262,-1.8678,-1.9027,-1.9228,-1.9329,-1.9505,-1.9708,-1.9759,-1.999,-2.0117,-2.0291,-2.0815,-2.141,-2.1793,-2.1983,-2.217,-2.2356,-2.2449,-2.2591,-2.297,-2.3339,-2.3526,-2.3112,-2.2671,-2.2205,-2.1853,-2.1209,-2.0801,-2.0651,-2.063,-2.0731,-2.0781,-2.1056,-2.1453,-2.1888,-2.1644,-2.1589,-2.2051,-2.2305,-2.2362,-2.2419,-2.2419,-2.23,-2.2027,-2.1925,-2.2115,-2.2165,-2.3183,-2.4395,-2.5089,-2.6061,-2.684,-2.77,-2.8057,-2.8542,-1.9372,-1.9332,-1.9158,-1.9163,-1.9332,-1.9664,-2.0182,-2.1043,-2.2013,-2.298,-2.3651,-2.4103,-2.4277,-2.4238,-2.4062,-2.3848,-2.3516,-2.3281,-2.3144,-2.3144,-2.3144,-2.3144,-2.3144,-2.3144,-2.3144,-2.3232,-2.3734,-2.4366,-2.4876,-2.4982,-2.5256,-2.5678,-2.59,-2.6082,-2.6233,-2.5995,-2.5611,-2.5084,-2.4531,-2.3716,-2.2805,-2.2322,-2.1708,-2.0772,-1.9809,-1.9044,-1.857,-1.7915,-1.7164,-1.6492,-1.6015,-1.5523,-1.5015,-1.5208,-1.5571,-1.5947,-1.6569,-1.7287,-1.796,-1.8394,-1.877,-1.9133,-1.9263,-1.9368,-1.942,-1.9473,-1.9448,-1.9552,-1.9784,-1.9965,-2.0118,-2.0472,-2.0947,-2.1313,-2.1533,-2.1808,-2.2138,-2.2241,-2.2498,-2.3025,-2.3363,-2.351,-2.333,-2.2848,-2.2374,-2.2035,-2.1355,-2.094,-2.0887,-2.0985,-2.1129,-2.11,-2.1529,-2.182,-2.2261,-2.2299,-2.2274,-2.2655,-2.293,-2.3013,-2.3045,-2.3071,-2.2974,-2.2622,-2.269,-2.2963,-2.3607,-2.4543,-2.5265,-2.5936,-2.6608,-2.739,-2.7959,-2.8398,-2.8983,-1.9372,-1.9359,-1.9359,-1.9339,-1.9388,-1.9866,-2.0377,-2.0988,-2.203,-2.3103,-2.4024,-2.4234,-2.4603,-2.4828,-2.457,-2.4394,-2.418,-2.3594,-2.3262,-2.3223,-2.3144,-2.3144,-2.3144,-2.3144,-2.3144,-2.3232,-2.4079,-2.4682,-2.5126,-2.5836,-2.6186,-2.621,-2.6432,-2.6544,-2.649,-2.6414,-2.6138,-2.5561,-2.5034,-2.4379,-2.3679,-2.2675,-2.1928,-2.1295,-2.0532,-1.9728,-1.8827,-1.8177,-1.7485,-1.6856,-1.6291,-1.5836,-1.5442,-1.5558,-1.5981,-1.6647,-1.7066,-1.7709,-1.8501,-1.8887,-1.9148,-1.9226,-1.9206,-1.9259,-1.9263,-1.9239,-1.9239,-1.942,-1.9679,-1.9861,-1.9938,-2.022,-2.0577,-2.0898,-2.1202,-2.1538,-2.2119,-2.2332,-2.2498,-2.304,-2.323,-2.3044,-2.2831,-2.267,-2.2482,-2.2185,-2.1809,-2.1517,-2.1492,-2.1479,-2.1549,-2.1594,-2.1945,-2.2372,-2.269,-2.2959,-2.3052,-2.3263,-2.3416,-2.3592,-2.3541,-2.3599,-2.3418,-2.3228,-2.3405,-2.3712,-2.4367,-2.5311,-2.5897,-2.6572,-2.7217,-2.7831,-2.8301,-2.8817,-2.9517,-1.9372,-1.9372,-1.9372,-1.9353,-1.9374,-1.9895,-2.0392,-2.1043,-2.203,-2.3138,-2.3998,-2.4496,-2.4775,-2.4983,-2.4902,-2.4839,-2.4657,-2.4232,-2.3867,-2.3594,-2.3301,-2.3144,-2.3144,-2.3144,-2.3319,-2.3667,-2.4166,-2.4872,-2.5622,-2.6129,-2.6636,-2.71,-2.6846,-2.6863,-2.6992,-2.6735,-2.6163,-2.5636,-2.5328,-2.4673,-2.3765,-2.3032,-2.2249,-2.1248,-2.0531,-1.9778,-1.8928,-1.8442,-1.7655,-1.6601,-1.6245,-1.5849,-1.5478,-1.5806,-1.6308,-1.6953,-1.7961,-1.8681,-1.9223,-1.9618,-1.9698,-1.9538,-1.9254,-1.9064,-1.8887,-1.8863,-1.8917,-1.9177,-1.9687,-2.0122,-2.0357,-2.0873,-2.1194,-2.1199,-2.125,-2.1563,-2.2221,-2.2643,-2.2933,-2.3171,-2.357,-2.3695,-2.3472,-2.315,-2.2752,-2.2475,-2.2076,-2.1767,-2.168,-2.1952,-2.2046,-2.2096,-2.2523,-2.2799,-2.2934,-2.3162,-2.3382,-2.3484,-2.3688,-2.3806,-2.3891,-2.3949,-2.3794,-2.3864,-2.4129,-2.4527,-2.5244,-2.5838,-2.6428,-2.696,-2.7518,-2.8112,-2.8767,-2.9441,-3.0179,-1.9372,-1.9372,-1.9372,-1.9421,-1.9514,-1.9952,-2.0467,-2.1131,-2.208,-2.312,-2.4035,-2.4627,-2.4985,-2.514,-2.5312,-2.529,-2.5169,-2.4859,-2.4512,-2.418,-2.3633,-2.3379,-2.334,-2.3203,-2.3319,-2.3841,-2.4186,-2.4871,-2.5801,-2.6237,-2.6794,-2.7275,-2.7257,-2.7163,-2.7176,-2.6942,-2.649,-2.5852,-2.5468,-2.4821,-2.3986,-2.3224,-2.2313,-2.1385,-2.0591,-1.9754,-1.8942,-1.8594,-1.7867,-1.6842,-1.6411,-1.6102,-1.5849,-1.6407,-1.7026,-1.7698,-1.8539,-1.9362,-1.9743,-2.006,-2.0098,-1.97,-1.9378,-1.9148,-1.8983,-1.8913,-1.9001,-1.9428,-1.9944,-2.0416,-2.0686,-2.1131,-2.1534,-2.1703,-2.1581,-2.1789,-2.2415,-2.2985,-2.3327,-2.343,-2.3664,-2.3813,-2.3644,-2.3456,-2.3032,-2.2748,-2.2438,-2.221,-2.2171,-2.2422,-2.2548,-2.2648,-2.2849,-2.3025,-2.31,-2.3305,-2.3569,-2.3747,-2.3891,-2.3949,-2.4067,-2.4067,-2.3989,-2.4253,-2.446,-2.4885,-2.5576,-2.6144,-2.6759,-2.7292,-2.7867,-2.8414,-2.9114,-3.0099,-3.0889,-1.9372,-1.9372,-1.9372,-1.953,-1.9766,-2.0053,-2.0602,-2.1401,-2.2231,-2.3173,-2.4035,-2.4627,-2.5216,-2.5606,-2.5664,-2.5625,-2.5644,-2.5293,-2.5098,-2.4844,-2.4297,-2.3867,-2.3691,-2.3398,-2.3398,-2.3754,-2.412,-2.47,-2.5527,-2.6152,-2.6712,-2.7199,-2.7633,-2.7753,-2.7309,-2.7297,-2.6922,-2.6238,-2.5536,-2.492,-2.4454,-2.3219,-2.2259,-2.1684,-2.0861,-1.9922,-1.9062,-1.8596,-1.8093,-1.7378,-1.6953,-1.6878,-1.7006,-1.74,-1.8014,-1.8714,-1.9249,-1.9771,-2.0111,-2.0429,-2.0264,-1.9877,-1.9536,-1.9335,-1.934,-1.919,-1.9308,-1.9796,-2.025,-2.0668,-2.0978,-2.1329,-2.1699,-2.2196,-2.2173,-2.2286,-2.2725,-2.3237,-2.3416,-2.3492,-2.3569,-2.3509,-2.339,-2.3339,-2.3255,-2.311,-2.3,-2.2949,-2.31,-2.315,-2.3201,-2.3265,-2.3502,-2.3577,-2.3753,-2.3876,-2.4147,-2.4208,-2.4262,-2.4261,-2.4171,-2.4093,-2.4256,-2.4522,-2.4895,-2.5353,-2.5966,-2.6631,-2.7292,-2.793,-2.8479,-2.8854,-2.955,-3.0587,-3.135,-1.9372,-1.9372,-1.9372,-1.953,-1.9822,-2.0269,-2.0922,-2.1481,-2.2498,-2.3419,-2.4089,-2.4627,-2.5254,-2.5645,-2.5723,-2.5723,-2.5684,-2.5605,-2.5547,-2.5469,-2.5,-2.4355,-2.3906,-2.3691,-2.3634,-2.366,-2.4074,-2.4529,-2.5274,-2.603,-2.6849,-2.7622,-2.7663,-2.7992,-2.8077,-2.7503,-2.7055,-2.6735,-2.5889,-2.5123,-2.4486,-2.3582,-2.2754,-2.1958,-2.1039,-2.0285,-1.9603,-1.895,-1.8344,-1.7718,-1.7733,-1.8008,-1.832,-1.8731,-1.9206,-1.9854,-2.0381,-2.0819,-2.095,-2.1077,-2.0796,-2.0045,-1.9633,-1.9254,-1.8901,-1.8879,-1.9097,-1.9559,-2.0228,-2.0986,-2.1472,-2.2036,-2.2546,-2.2815,-2.2783,-2.2816,-2.2968,-2.3085,-2.3271,-2.3245,-2.3271,-2.3296,-2.3311,-2.3311,-2.3311,-2.3226,-2.3215,-2.329,-2.3653,-2.3778,-2.3803,-2.423,-2.4431,-2.4406,-2.4431,-2.4558,-2.4709,-2.4798,-2.4745,-2.4684,-2.4442,-2.4112,-2.438,-2.4655,-2.5143,-2.5612,-2.6574,-2.7427,-2.8025,-2.8554,-2.8996,-2.9379,-3.0159,-3.1022,-3.1619,-1.9372,-1.9372,-1.9372,-1.9611,-1.999,-2.0554,-2.1163,-2.191,-2.2867,-2.3753,-2.4363,-2.4889,-2.5388,-2.5645,-2.5723,-2.5723,-2.5723,-2.5723,-2.5723,-2.5703,-2.5449,-2.4863,-2.4238,-2.4043,-2.3918,-2.3811,-2.4122,-2.4543,-2.4977,-2.5695,-2.6505,-2.7197,-2.7608,-2.7999,-2.8246,-2.7978,-2.7457,-2.7137,-2.6285,-2.5468,-2.4945,-2.3745,-2.2931,-2.2221,-2.1428,-2.0685,-2.0323,-1.9948,-1.9228,-1.8428,-1.8379,-1.8736,-1.9179,-1.9654,-2.0159,-2.0758,-2.1152,-2.1452,-2.1534,-2.151,-2.0986,-2.034,-1.983,-1.9445,-1.9208,-1.91,-1.935,-1.989,-2.0634,-2.1303,-2.1922,-2.2614,-2.2944,-2.3065,-2.3351,-2.3376,-2.3115,-2.3125,-2.3251,-2.3401,-2.3502,-2.3602,-2.3778,-2.3766,-2.3766,-2.3816,-2.3954,-2.4104,-2.428,-2.433,-2.4456,-2.4808,-2.4958,-2.4833,-2.4782,-2.4911,-2.5026,-2.5102,-2.5103,-2.5049,-2.488,-2.4425,-2.465,-2.5031,-2.5501,-2.6049,-2.7028,-2.7872,-2.8455,-2.8966,-2.9474,-3.0133,-3.0835,-3.1238,-3.1873,-1.9372,-1.9372,-1.9372,-1.9707,-2.0329,-2.067,-2.1405,-2.2386,-2.3319,-2.414,-2.4765,-2.5301,-2.5695,-2.5801,-2.5879,-2.5801,-2.5742,-2.5723,-2.5801,-2.582,-2.5762,-2.541,-2.4844,-2.4551,-2.4349,-2.4177,-2.4406,-2.452,-2.4778,-2.5317,-2.5906,-2.6693,-2.7383,-2.7894,-2.8208,-2.8371,-2.82,-2.7582,-2.6749,-2.6043,-2.5462,-2.42,-2.3334,-2.2889,-2.1931,-2.1252,-2.1047,-2.0898,-2.0586,-1.9211,-1.9241,-1.9537,-1.9893,-2.0311,-2.0878,-2.1391,-2.1704,-2.1777,-2.1844,-2.1604,-2.1146,-2.0526,-2.0074,-1.9813,-1.964,-1.9705,-2.0053,-2.0484,-2.1174,-2.1886,-2.2601,-2.3071,-2.3391,-2.3491,-2.3853,-2.3716,-2.3391,-2.324,-2.3502,-2.3979,-2.4079,-2.4267,-2.4568,-2.4743,-2.4693,-2.4229,-2.4392,-2.4607,-2.4757,-2.4883,-2.5008,-2.5234,-2.5234,-2.5109,-2.5174,-2.5174,-2.529,-2.5431,-2.5369,-2.532,-2.5396,-2.5217,-2.5215,-2.5428,-2.5923,-2.6543,-2.74,-2.8176,-2.8797,-2.9493,-3.01,-3.0798,-3.1441,-3.1581,-3.2013,-1.9372,-1.9372,-1.9372,-1.9707,-2.0385,-2.0873,-2.1601,-2.2482,-2.3603,-2.4527,-2.5185,-2.5834,-2.6116,-2.625,-2.623,-2.6074,-2.584,-2.584,-2.5898,-2.623,-2.625,-2.6191,-2.5781,-2.5312,-2.4727,-2.4559,-2.4572,-2.4696,-2.4907,-2.5333,-2.5957,-2.6512,-2.7185,-2.7924,-2.8518,-2.8464,-2.8295,-2.7973,-2.7383,-2.6668,-2.6123,-2.5108,-2.4346,-2.3884,-2.2827,-2.1974,-2.1625,-2.1768,-2.1798,-2.1576,-2.1348,-2.1192,-2.1354,-2.1653,-2.2092,-2.2372,-2.236,-2.2286,-2.2235,-2.1808,-2.1169,-2.0747,-2.0336,-1.9813,-1.9637,-2.0044,-2.0463,-2.1019,-2.1822,-2.2667,-2.3603,-2.4176,-2.4292,-2.4292,-2.4354,-2.4389,-2.4201,-2.4279,-2.4367,-2.4518,-2.4503,-2.4424,-2.4573,-2.4673,-2.4648,-2.4638,-2.4803,-2.4993,-2.5234,-2.5435,-2.5561,-2.5711,-2.5762,-2.5711,-2.5686,-2.5753,-2.5753,-2.5794,-2.5734,-2.5658,-2.58,-2.5699,-2.5665,-2.591,-2.6323,-2.7057,-2.7822,-2.8691,-2.9416,-3.004,-3.069,-3.119,-3.1629,-3.186,-3.2182,-1.9372,-1.9372,-1.9372,-1.9707,-2.0385,-2.0945,-2.1752,-2.2736,-2.3938,-2.4931,-2.5587,-2.6266,-2.6557,-2.6699,-2.668,-2.6543,-2.6387,-2.6348,-2.6465,-2.666,-2.668,-2.668,-2.6641,-2.6172,-2.5605,-2.4883,-2.5006,-2.5045,-2.5157,-2.5493,-2.5937,-2.6528,-2.7076,-2.7834,-2.8578,-2.868,-2.8737,-2.8537,-2.802,-2.7372,-2.6742,-2.5937,-2.5378,-2.5104,-2.4303,-2.3734,-2.3329,-2.3478,-2.3465,-2.3282,-2.3094,-2.2921,-2.2886,-2.311,-2.3427,-2.3553,-2.3553,-2.3301,-2.3047,-2.2574,-2.2012,-2.1374,-2.0929,-2.0593,-2.0432,-2.0599,-2.096,-2.1506,-2.2207,-2.3136,-2.4157,-2.4613,-2.4768,-2.4728,-2.4797,-2.4764,-2.4674,-2.4567,-2.4673,-2.4847,-2.4814,-2.4962,-2.5036,-2.4945,-2.5135,-2.5259,-2.5443,-2.5677,-2.5727,-2.597,-2.6088,-2.6282,-2.6314,-2.6339,-2.6339,-2.6382,-2.6307,-2.6257,-2.6156,-2.6198,-2.6249,-2.6097,-2.5962,-2.637,-2.6712,-2.7458,-2.8238,-2.9121,-2.9741,-3.0266,-3.0805,-3.1338,-3.1931,-3.2406,-3.2735,-1.9372,-1.9372,-1.9372,-1.9707,-2.0385,-2.096,-2.1858,-2.3006,-2.4239,-2.5121,-2.5863,-2.6467,-2.6788,-2.6879,-2.6904,-2.6987,-2.689,-2.6973,-2.6953,-2.6987,-2.7007,-2.6904,-2.6865,-2.673,-2.6284,-2.5449,-2.5523,-2.555,-2.5401,-2.5537,-2.6189,-2.6671,-2.716,-2.7906,-2.8563,-2.8919,-2.9057,-2.8959,-2.8586,-2.8135,-2.7574,-2.686,-2.6347,-2.5984,-2.5838,-2.5605,-2.5257,-2.5312,-2.5297,-2.4753,-2.4867,-2.474,-2.4487,-2.4362,-2.4638,-2.4589,-2.4449,-2.4245,-2.3937,-2.3484,-2.2907,-2.2343,-2.1907,-2.1538,-2.1307,-2.1301,-2.1669,-2.2154,-2.2799,-2.3739,-2.4401,-2.4946,-2.4987,-2.4946,-2.5202,-2.5105,-2.492,-2.4511,-2.4609,-2.4964,-2.5018,-2.5046,-2.5404,-2.5477,-2.5718,-2.5935,-2.6074,-2.6238,-2.6332,-2.6352,-2.6465,-2.6483,-2.6508,-2.6533,-2.6533,-2.6533,-2.6533,-2.6508,-2.6458,-2.6483,-2.6533,-2.6357,-2.6316,-2.6671,-2.7178,-2.7762,-2.8287,-2.8958,-2.9582,-3.0258,-3.1035,-3.172,-3.2375,-3.3004,-3.3275,-1.9372,-1.9372,-1.9372,-1.9707,-2.0385,-2.0945,-2.1759,-2.2796,-2.3921,-2.4889,-2.5682,-2.6336,-2.6635,-2.6797,-2.6826,-2.674,-2.6775,-2.6962,-2.7059,-2.7064,-2.7102,-2.7017,-2.6807,-2.6807,-2.6569,-2.6435,-2.6229,-2.5956,-2.5913,-2.6167,-2.6584,-2.7151,-2.755,-2.8161,-2.876,-2.9163,-2.9204,-2.9361,-2.9164,-2.8831,-2.8397,-2.7927,-2.7416,-2.6976,-2.6876,-2.6808,-2.6713,-2.6866,-2.6942,-2.6846,-2.7115,-2.689,-2.6247,-2.5369,-2.4912,-2.4853,-2.4813,-2.4772,-2.455,-2.4056,-2.3518,-2.3001,-2.2502,-2.2087,-2.1945,-2.2024,-2.2364,-2.2973,-2.3909,-2.4987,-2.5571,-2.5698,-2.5865,-2.5778,-2.5526,-2.532,-2.5155,-2.4944,-2.4732,-2.5229,-2.5205,-2.5085,-2.5346,-2.5632,-2.5729,-2.5968,-2.6254,-2.635,-2.642,-2.6532,-2.6546,-2.654,-2.6508,-2.6533,-2.6533,-2.6533,-2.6533,-2.6533,-2.6508,-2.6508,-2.6533,-2.6533,-2.6602,-2.6807,-2.7146,-2.759,-2.8118,-2.8794,-2.968,-3.0534,-3.1319,-3.21,-3.2847,-3.3508,-3.3662,-1.9372,-1.9372,-1.9372,-1.9707,-2.027,-2.0716,-2.1531,-2.2683,-2.3585,-2.4462,-2.5348,-2.5881,-2.6354,-2.6621,-2.6691,-2.6667,-2.6854,-2.7046,-2.716,-2.71,-2.7119,-2.7012,-2.6691,-2.6691,-2.6536,-2.6427,-2.6351,-2.6443,-2.644,-2.6525,-2.6886,-2.7363,-2.7785,-2.8418,-2.9142,-2.9359,-2.9438,-2.9579,-2.9514,-2.9287,-2.8973,-2.868,-2.8411,-2.8187,-2.7989,-2.7968,-2.7724,-2.7775,-2.7704,-2.7631,-2.7705,-2.7728,-2.7401,-2.6876,-2.617,-2.5745,-2.5619,-2.5553,-2.5418,-2.4988,-2.4534,-2.4002,-2.3513,-2.3041,-2.28,-2.2833,-2.3112,-2.3663,-2.4425,-2.5465,-2.5791,-2.6099,-2.6119,-2.6029,-2.5849,-2.5637,-2.5443,-2.5339,-2.5386,-2.5389,-2.506,-2.5016,-2.5206,-2.5445,-2.5613,-2.5973,-2.6431,-2.6527,-2.6623,-2.6717,-2.6831,-2.6631,-2.6557,-2.6496,-2.6471,-2.649,-2.6465,-2.6533,-2.6533,-2.6533,-2.6609,-2.6634,-2.6584,-2.6602,-2.7011,-2.7598,-2.8146,-2.8882,-2.9831,-3.0828,-3.1853,-3.2698,-3.3431,-3.3951,-3.4074,-1.9372,-1.9372,-1.9372,-1.9707,-2.0155,-2.0601,-2.1303,-2.2343,-2.3006,-2.3904,-2.4778,-2.5238,-2.5679,-2.61,-2.6318,-2.6518,-2.6772,-2.706,-2.6933,-2.6717,-2.6608,-2.6536,-2.6318,-2.63,-2.6136,-2.6203,-2.6356,-2.6588,-2.6705,-2.6845,-2.7118,-2.7613,-2.7944,-2.8491,-2.9262,-2.9559,-2.9779,-2.9861,-2.9732,-2.9436,-2.9312,-2.9234,-2.9234,-2.9209,-2.9209,-2.8963,-2.8694,-2.8645,-2.8548,-2.8375,-2.8276,-2.825,-2.8224,-2.8273,-2.7795,-2.6992,-2.6816,-2.6721,-2.6582,-2.63,-2.5851,-2.5325,-2.4842,-2.4328,-2.3981,-2.3929,-2.4003,-2.4499,-2.518,-2.5804,-2.6259,-2.6374,-2.6374,-2.6306,-2.6239,-2.6015,-2.584,-2.5681,-2.5616,-2.5408,-2.4969,-2.5172,-2.5585,-2.5706,-2.5944,-2.6286,-2.6749,-2.6871,-2.6968,-2.7066,-2.709,-2.6795,-2.6646,-2.6536,-2.6527,-2.6471,-2.6421,-2.6533,-2.6584,-2.654,-2.671,-2.6785,-2.681,-2.6936,-2.7367,-2.7937,-2.8463,-2.9092,-3.0113,-3.117,-3.2331,-3.3289,-3.3849,-3.425,-3.4564,-1.9372,-1.9372,-1.9372,-1.9591,-1.9924,-2.0486,-2.096,-2.1546,-2.257,-2.3231,-2.368,-2.4256,-2.4701,-2.5017,-2.5569,-2.5789,-2.6008,-2.6336,-2.6336,-2.5898,-2.5789,-2.5459,-2.511,-2.5,-2.5313,-2.5611,-2.6117,-2.6437,-2.652,-2.6784,-2.7338,-2.7798,-2.813,-2.8768,-2.9584,-2.9659,-2.993,-3.0226,-3.0195,-3.0019,-2.9774,-2.9724,-2.9827,-2.9674,-2.9674,-2.9624,-2.9474,-2.9424,-2.9426,-2.9426,-2.9426,-2.9302,-2.895,-2.8825,-2.8524,-2.8097,-2.7921,-2.7896,-2.7748,-2.7431,-2.7115,-2.6552,-2.6202,-2.5844,-2.5196,-2.4943,-2.4966,-2.5455,-2.5995,-2.65,-2.6797,-2.6993,-2.714,-2.6967,-2.6695,-2.6491,-2.6259,-2.631,-2.6216,-2.617,-2.5977,-2.5984,-2.6288,-2.6288,-2.6363,-2.6689,-2.7037,-2.7134,-2.7233,-2.733,-2.723,-2.694,-2.6724,-2.6625,-2.6742,-2.6615,-2.6656,-2.6646,-2.6741,-2.6816,-2.6992,-2.7218,-2.7444,-2.7641,-2.7982,-2.8196,-2.8586,-2.9369,-3.0418,-3.135,-3.2354,-3.3321,-3.4129,-3.4572,-3.4735,-1.9372,-1.9372,-1.9372,-1.9591,-1.9809,-2.004,-2.0615,-2.1203,-2.1774,-2.2343,-2.2909,-2.3247,-2.3585,-2.3904,-2.4445,-2.4667,-2.4778,-2.5331,-2.5221,-2.4778,-2.4667,-2.4334,-2.4016,-2.4016,-2.4351,-2.4761,-2.53,-2.5667,-2.589,-2.6501,-2.7138,-2.771,-2.8049,-2.8624,-2.9556,-2.9741,-3.0138,-3.0459,-3.0679,-3.0562,-3.0523,-3.0528,-3.0403,-2.9895,-3.0127,-3.0105,-2.988,-2.9779,-2.9779,-2.9779,-2.9779,-2.9704,-2.9478,-2.9402,-2.9277,-2.9151,-2.9051,-2.875,-2.8222,-2.7927,-2.7706,-2.7235,-2.6784,-2.6107,-2.5615,-2.5351,-2.5351,-2.5538,-2.6077,-2.6633,-2.7184,-2.7285,-2.7434,-2.7358,-2.7248,-2.709,-2.6978,-2.705,-2.7079,-2.7009,-2.6916,-2.6956,-2.6995,-2.6978,-2.7008,-2.7162,-2.7406,-2.7544,-2.7472,-2.7323,-2.7228,-2.7061,-2.6832,-2.6723,-2.6919,-2.6968,-2.7089,-2.7135,-2.7304,-2.7379,-2.7645,-2.7846,-2.8021,-2.8245,-2.8492,-2.8686,-2.8826,-2.9652,-3.0707,-3.1541,-3.2278,-3.3099,-3.3796,-3.4031,-3.4264,-1.9372,-1.9372,-1.9372,-1.9475,-1.9707,-1.9809,-2.0169,-2.0744,-2.1089,-2.1531,-2.1987,-2.2214,-2.2328,-2.2667,-2.3103,-2.344,-2.3552,-2.4111,-2.3888,-2.3664,-2.344,-2.3103,-2.2893,-2.2893,-2.3231,-2.3664,-2.4428,-2.4902,-2.554,-2.6097,-2.682,-2.74,-2.7827,-2.8494,-2.9161,-2.9647,-3.0038,-3.0735,-3.1038,-3.1051,-3.1016,-3.1179,-3.0848,-3.0623,-3.0498,-3.0557,-3.0105,-3.003,-3.003,-2.9779,-2.9779,-2.9754,-2.9704,-2.9704,-2.9679,-2.9628,-2.9603,-2.9352,-2.8875,-2.85,-2.8076,-2.7675,-2.7167,-2.6691,-2.5859,-2.5611,-2.5611,-2.5984,-2.6511,-2.7008,-2.7396,-2.7748,-2.7973,-2.8044,-2.796,-2.7825,-2.7687,-2.7664,-2.7566,-2.7519,-2.7472,-2.7749,-2.7767,-2.7703,-2.7656,-2.7656,-2.779,-2.7891,-2.7613,-2.7195,-2.7046,-2.6883,-2.6691,-2.6647,-2.6904,-2.7131,-2.7357,-2.7532,-2.7705,-2.7903,-2.8051,-2.8274,-2.8399,-2.8649,-2.8975,-2.925,-2.9474,-3.0241,-3.093,-3.1523,-3.2116,-3.268,-3.3269,-3.3479,-3.3687,-1.9372,-1.9372,-1.9372,-1.9372,-1.9475,-1.9693,-1.9809,-2.0053,-2.0486,-2.073,-2.0945,-2.1174,-2.1402,-2.1517,-2.1987,-2.2214,-2.2214,-2.2893,-2.278,-2.2441,-2.223,-2.2101,-2.2002,-2.1987,-2.2328,-2.3119,-2.3776,-2.4539,-2.5191,-2.6004,-2.6645,-2.7219,-2.7737,-2.8334,-2.8942,-2.9483,-3.005,-3.0787,-3.126,-3.1462,-3.1332,-3.1455,-3.1436,-3.1361,-3.1286,-3.1085,-3.0583,-3.0557,-3.0407,-3.0005,-2.993,-2.9905,-2.9955,-2.9829,-2.9804,-2.9779,-2.9779,-2.9628,-2.9428,-2.9326,-2.9269,-2.8827,-2.8148,-2.7312,-2.6517,-2.6862,-2.693,-2.6689,-2.7059,-2.7711,-2.8179,-2.8591,-2.866,-2.8737,-2.8582,-2.8421,-2.8258,-2.8092,-2.8051,-2.7938,-2.8042,-2.8179,-2.8099,-2.7909,-2.7758,-2.7735,-2.7278,-2.729,-2.6962,-2.6617,-2.6662,-2.6526,-2.6474,-2.6484,-2.6808,-2.6995,-2.7055,-2.7392,-2.7621,-2.8022,-2.8424,-2.8599,-2.8825,-2.9126,-2.9402,-2.9732,-2.9961,-3.0364,-3.0834,-3.1362,-3.1909,-3.2273,-3.2632,-3.2917,-3.3129,-1.9372,-1.9372,-1.9372,-1.9372,-1.9372,-1.9475,-1.9577,-1.9809,-2.004,-2.027,-2.05,-2.0601,-2.0615,-2.073,-2.0945,-2.1288,-2.1303,-2.1645,-2.1645,-2.166,-2.1546,-2.1432,-2.1432,-2.1774,-2.223,-2.2796,-2.3568,-2.4334,-2.5186,-2.6118,-2.671,-2.7303,-2.7702,-2.8017,-2.8582,-2.9377,-3.0056,-3.0791,-3.1511,-3.1908,-3.2361,-3.2331,-3.224,-3.178,-3.1888,-3.1612,-3.1185,-3.111,-3.0959,-3.0733,-3.0457,-3.0357,-3.0206,-3.003,-2.9854,-2.9829,-2.9829,-2.9779,-2.9779,-2.9702,-2.9468,-2.8736,-2.8179,-2.7638,-2.6985,-2.6985,-2.6985,-2.7044,-2.7394,-2.7938,-2.8419,-2.8791,-2.9032,-2.9238,-2.9184,-2.8949,-2.8736,-2.8498,-2.8363,-2.8283,-2.8339,-2.8474,-2.8259,-2.8099,-2.7914,-2.773,-2.7185,-2.6633,-2.6279,-2.603,-2.603,-2.603,-2.5931,-2.6169,-2.6449,-2.6577,-2.6622,-2.7073,-2.752,-2.8028,-2.8484,-2.8994,-2.9272,-2.9574,-2.9702,-2.9806,-2.996,-3.0216,-3.0596,-3.1048,-3.1272,-3.1495,-3.1909,-3.2345,-3.2489,-1.9372,-1.9372,-1.9372,-1.9372,-1.9372,-1.9372,-1.9488,-1.9707,-1.9707,-1.9822,-2.0053,-2.004,-2.004,-2.0155,-2.027,-2.0486,-2.0716,-2.096,-2.1074,-2.1089,-2.1203,-2.1203,-2.1432,-2.1774,-2.2343,-2.2796,-2.3568,-2.4445,-2.5221,-2.6209,-2.6915,-2.7389,-2.7819,-2.8147,-2.8655,-2.9387,-3.0148,-3.0624,-3.1383,-3.2113,-3.2574,-3.2871,-3.2807,-3.2381,-3.2466,-3.2164,-3.1813,-3.1612,-3.1486,-3.126,-3.1035,-3.0884,-3.0658,-3.0407,-3.0105,-3.0005,-2.988,-2.9804,-2.9779,-2.9546,-2.9312,-2.8578,-2.8122,-2.7638,-2.7149,-2.6985,-2.7067,-2.7126,-2.7534,-2.7938,-2.8578,-2.8973,-2.9287,-2.9443,-2.9341,-2.9184,-2.9052,-2.8816,-2.8657,-2.8498,-2.8474,-2.8315,-2.7834,-2.7534,-2.7103,-2.6857,-2.6445,-2.5863,-2.538,-2.5189,-2.5189,-2.5274,-2.5316,-2.5652,-2.6008,-2.5997,-2.611,-2.6783,-2.7265,-2.7862,-2.8299,-2.887,-2.9341,-2.9419,-2.9599,-2.9779,-2.9934,-3.0088,-3.0318,-3.052,-3.0823,-3.1048,-3.1198,-3.1643,-3.169,-1.9372,-1.9372,-1.9372,-1.9372,-1.9372,-1.9372,-1.9372,-1.9475,-1.9475,-1.9475,-1.9488,-1.9475,-1.9475,-1.9591,-1.9822,-2.004,-2.0385,-2.0615,-2.0845,-2.096,-2.1203,-2.1203,-2.1546,-2.2002,-2.278,-2.3119,-2.3999,-2.4778,-2.5331,-2.6445,-2.7098,-2.753,-2.798,-2.8376,-2.8758,-2.944,-2.9836,-3.0057,-3.0918,-3.1632,-3.2113,-3.255,-3.2735,-3.2857,-3.2893,-3.2616,-3.234,-3.2215,-3.2039,-3.1738,-3.1512,-3.1386,-3.1311,-3.0859,-3.0633,-3.0583,-3.0105,-2.988,-2.9804,-2.939,-2.8895,-2.8498,-2.8042,-2.7638,-2.7313,-2.7149,-2.7208,-2.7371,-2.7857,-2.8235,-2.8712,-2.9131,-2.9443,-2.9521,-2.9419,-2.9263,-2.9106,-2.8973,-2.8736,-2.8395,-2.8259,-2.8018,-2.7429,-2.6857,-2.6362,-2.5946,-2.5527,-2.5126,-2.4615,-2.4529,-2.4594,-2.4529,-2.4615,-2.4956,-2.5274,-2.5359,-2.5652,-2.6279,-2.6857,-2.7348,-2.7834,-2.8315,-2.8712,-2.9184,-2.9419,-2.9521,-2.9702,-2.9779,-3.0088,-3.0318,-3.047,-3.0698,-3.0773,-3.0924,-3.1048,-1.9372,-1.9372,-1.9372,-1.9372,-1.9372,-1.9372,-1.9372,-1.9372,-1.9372,-1.9372,-1.9372,-1.9372,-1.9372,-1.9475,-1.9707,-1.9924,-2.004,-2.0486,-2.0716,-2.1089,-2.1546,-2.1888,-2.223,-2.2893,-2.344,-2.3999,-2.4778,-2.5551,-2.6209,-2.6989,-2.7422,-2.7745,-2.8155,-2.8575,-2.886,-2.9345,-2.9633,-3.0184,-3.0974,-3.1675,-3.1898,-3.2376,-3.2748,-3.2835,-3.2982,-3.2943,-3.2742,-3.2717,-3.2566,-3.234,-3.2139,-3.1938,-3.1838,-3.1436,-3.1135,-3.1035,-3.0633,-3.0052,-2.9592,-2.9052,-2.8578,-2.8283,-2.7857,-2.7557,-2.7208,-2.7231,-2.729,-2.7557,-2.7985,-2.8363,-2.8791,-2.9209,-2.9443,-2.9443,-2.9341,-2.9184,-2.9028,-2.887,-2.8633,-2.8211,-2.7891,-2.7267,-2.661,-2.603,-2.5527,-2.5189,-2.4786,-2.4444,-2.4013,-2.4013,-2.4013,-2.3927,-2.4013,-2.4272,-2.4444,-2.47,-2.5041,-2.5527,-2.603,-2.6528,-2.7103,-2.7672,-2.8235,-2.8633,-2.8949,-2.9287,-2.9443,-2.9702,-2.9779,-3.0011,-3.0318,-3.0369,-3.0394,-3.0444,-3.0596,-1.9372,-1.9372,-1.9372,-1.9372,-1.9372,-1.9372,-1.9372,-1.9372,-1.9372,-1.9372,-1.9372,-1.9372,-1.9488,-1.9591,-1.9707,-2.0169,-2.0284,-2.0716,-2.1303,-2.1774,-2.2441,-2.278,-2.3328,-2.3999,-2.4556,-2.5,-2.5661,-2.6336,-2.6663,-2.7314,-2.7745,-2.8067,-2.8388,-2.8589,-2.8857,-2.9185,-2.9621,-3.0127,-3.0827,-3.1437,-3.177,-3.2204,-3.266,-3.2711,-3.2896,-3.2957,-3.3068,-3.3093,-3.3068,-3.2943,-3.2767,-3.2491,-3.234,-3.2039,-3.1712,-3.1512,-3.0867,-3.0258,-2.9658,-2.9181,-2.8763,-2.8327,-2.7707,-2.7313,-2.7044,-2.7067,-2.7208,-2.7557,-2.8103,-2.8578,-2.9003,-2.9401,-2.9653,-2.9757,-2.9622,-2.9407,-2.8787,-2.873,-2.8241,-2.7813,-2.7244,-2.6505,-2.5779,-2.5189,-2.4615,-2.4358,-2.4013,-2.3754,-2.358,-2.358,-2.358,-2.358,-2.36,-2.3774,-2.4034,-2.41,-2.4444,-2.4786,-2.5338,-2.5931,-2.6362,-2.694,-2.751,-2.8099,-2.8522,-2.8943,-2.9287,-2.9521,-2.9777,-2.9955,-3.0211,-3.0213,-3.0036,-3.0164,-3.0394,-1.9372,-1.9372,-1.9372,-1.9372,-1.9372,-1.9372,-1.9372,-1.9372,-1.9372,-1.9372,-1.9488,-1.9475,-1.9591,-1.9809,-1.9924,-2.0399,-2.1203,-2.1517,-2.2146,-2.2812,-2.3601,-2.3921,-2.4368,-2.5145,-2.5569,-2.6008,-2.6445,-2.6989,-2.7098,-2.7638,-2.8067,-2.8194,-2.8301,-2.8542,-2.8805,-2.8981,-2.9467,-2.9947,-3.0652,-3.1244,-3.1669,-3.2194,-3.2568,-3.2818,-3.2884,-3.3009,-3.3133,-3.3057,-3.3093,-3.2957,-3.2932,-3.3043,-3.2893,-3.2541,-3.2231,-3.1714,-3.0968,-3.0406,-2.9845,-2.9379,-2.8835,-2.814,-2.7554,-2.7107,-2.6896,-2.7031,-2.7349,-2.781,-2.8363,-2.8974,-2.9455,-2.991,-3.026,-3.0177,-3.0119,-2.9535,-2.8727,-2.8208,-2.769,-2.7175,-2.6512,-2.5863,-2.502,-2.4444,-2.4034,-2.3841,-2.3667,-2.358,-2.3406,-2.3319,-2.3319,-2.3319,-2.3319,-2.3446,-2.364,-2.3847,-2.4183,-2.4702,-2.4989,-2.5508,-2.5912,-2.6479,-2.7349,-2.7893,-2.815,-2.8691,-2.9518,-2.9866,-2.982,-3.0102,-3.0536,-3.0385,-3.0284,-3.031,-3.0489,-1.9372,-1.9372,-1.9372,-1.9372,-1.9372,-1.9372,-1.9372,-1.9372,-1.9372,-1.9475,-1.9707,-1.9707,-2.004,-2.0371,-2.073,-2.1203,-2.1888,-2.2585,-2.331,-2.4006,-2.4889,-2.5259,-2.5798,-2.6316,-2.6628,-2.6899,-2.7225,-2.7676,-2.7745,-2.8067,-2.8174,-2.8301,-2.8301,-2.8514,-2.8688,-2.88,-2.9167,-2.9716,-3.0491,-3.1069,-3.1544,-3.2183,-3.2551,-3.2841,-3.3064,-3.3256,-3.327,-3.3059,-3.2959,-3.2884,-3.2686,-3.2574,-3.2525,-3.2377,-3.2228,-3.1625,-3.104,-3.047,-2.982,-2.9044,-2.8423,-2.7965,-2.7326,-2.7151,-2.7063,-2.7192,-2.7514,-2.7918,-2.8457,-2.9019,-2.9558,-2.9941,-3.0048,-2.9925,-2.9753,-2.9246,-2.8563,-2.7996,-2.745,-2.656,-2.5894,-2.5147,-2.4374,-2.4013,-2.3667,-2.3406,-2.3251,-2.3291,-2.3251,-2.3184,-2.3242,-2.3242,-2.3281,-2.3536,-2.3624,-2.385,-2.4207,-2.4526,-2.4873,-2.5295,-2.5886,-2.652,-2.7278,-2.7895,-2.8407,-2.9272,-3.0253,-3.035,-3.0183,-3.0673,-3.1085,-3.0809,-3.0633,-3.0658,-3.0809,-1.9372,-1.9372,-1.9372,-1.9372,-1.9372,-1.9475,-1.9591,-1.9591,-1.9591,-1.9809,-2.0155,-2.0155,-2.0615,-2.1189,-2.1546,-2.2063,-2.3115,-2.3715,-2.4431,-2.556,-2.6211,-2.6673,-2.7103,-2.7475,-2.7657,-2.7872,-2.7956,-2.8261,-2.8125,-2.8174,-2.8301,-2.8301,-2.8301,-2.8408,-2.8495,-2.8688,-2.8906,-2.9456,-3.0215,-3.0865,-3.1532,-3.2007,-3.251,-3.2887,-3.3174,-3.335,-3.3457,-3.3088,-3.3015,-3.3015,-3.2836,-3.2536,-3.2479,-3.2259,-3.1977,-3.139,-3.0834,-3.0477,-2.9875,-2.919,-2.8545,-2.7894,-2.742,-2.7168,-2.7024,-2.7144,-2.7503,-2.7917,-2.8491,-2.9022,-2.9439,-2.9769,-2.9602,-2.9431,-2.9209,-2.8899,-2.8321,-2.7788,-2.6928,-2.6034,-2.5213,-2.4486,-2.3994,-2.3612,-2.3359,-2.3291,-2.332,-2.3477,-2.3379,-2.3242,-2.3379,-2.3477,-2.3516,-2.3574,-2.3809,-2.4043,-2.4291,-2.4572,-2.4786,-2.5259,-2.5805,-2.6325,-2.6931,-2.7808,-2.878,-2.9555,-3.0277,-3.0538,-3.0663,-3.1133,-3.1555,-3.1562,-3.1336,-3.1185,-3.1361,-1.9372,-1.9372,-1.9372,-1.9372,-1.9475,-1.9707,-1.9809,-1.9924,-1.9938,-2.027,-2.0716,-2.0831,-2.1417,-2.223,-2.2518,-2.3358,-2.4334,-2.5003,-2.5943,-2.7079,-2.7505,-2.8013,-2.8427,-2.8859,-2.8646,-2.8713,-2.8629,-2.8505,-2.8379,-2.8301,-2.8301,-2.8301,-2.8301,-2.8301,-2.8408,-2.8514,-2.8668,-2.8946,-2.9704,-3.0384,-3.1061,-3.1681,-3.2111,-3.2485,-3.2889,-3.3308,-3.347,-3.3538,-3.3538,-3.3421,-3.314,-3.2715,-3.2357,-3.2022,-3.1669,-3.1187,-3.0734,-3.0351,-2.9966,-2.9326,-2.8883,-2.825,-2.7704,-2.7336,-2.7181,-2.7154,-2.7377,-2.7785,-2.8342,-2.8791,-2.9194,-2.9397,-2.9308,-2.9082,-2.8787,-2.8335,-2.7678,-2.7162,-2.6501,-2.5694,-2.5117,-2.4426,-2.4167,-2.38,-2.3761,-2.3496,-2.3555,-2.3789,-2.3769,-2.3555,-2.3652,-2.3828,-2.3848,-2.3965,-2.4297,-2.4492,-2.4531,-2.4683,-2.4888,-2.5152,-2.5817,-2.6248,-2.6605,-2.7743,-2.8922,-2.9439,-3.0081,-3.0555,-3.1052,-3.1497,-3.1922,-3.2156,-3.2139,-3.1938,-3.1989,-1.9372,-1.9372,-1.9372,-1.9372,-1.9475,-1.9693,-2.004,-2.0486,-2.0744,-2.1074,-2.1402,-2.1744,-2.2425,-2.3344,-2.3715,-2.4594,-2.5718,-2.6505,-2.7398,-2.8118,-2.8671,-2.8994,-2.9393,-2.9485,-2.9458,-2.9244,-2.9082,-2.873,-2.8437,-2.834,-2.8301,-2.8301,-2.8301,-2.8301,-2.8301,-2.8408,-2.8514,-2.8621,-2.9026,-2.9723,-3.049,-3.1411,-3.2129,-3.2423,-3.2873,-3.31,-3.3173,-3.2913,-3.2795,-3.2583,-3.2206,-3.2018,-3.1808,-3.1692,-3.1437,-3.1067,-3.0559,-3.028,-2.9836,-2.9431,-2.8946,-2.8494,-2.7986,-2.7452,-2.7186,-2.7158,-2.7306,-2.77,-2.7979,-2.8392,-2.8734,-2.8822,-2.891,-2.8631,-2.8373,-2.7704,-2.7034,-2.6525,-2.5999,-2.5551,-2.4973,-2.4631,-2.4349,-2.418,-2.4141,-2.4141,-2.416,-2.4277,-2.4297,-2.4199,-2.4238,-2.4355,-2.4277,-2.4414,-2.4746,-2.4941,-2.498,-2.5137,-2.5425,-2.5694,-2.5809,-2.637,-2.6898,-2.7963,-2.9012,-2.9486,-3.0127,-3.1001,-3.1549,-3.192,-3.2361,-3.2646,-3.2957,-3.2943,-3.2943,-1.9252,-1.9359,-1.9372,-1.9372,-1.9475,-1.9822,-2.027,-2.0831,-2.1546,-2.2101,-2.2539,-2.278,-2.3344,-2.4496,-2.5076,-2.5953,-2.7115,-2.7742,-2.8589,-2.9354,-2.9584,-2.9911,-3.0083,-3.0101,-3.0039,-2.9805,-2.9199,-2.8769,-2.8555,-2.8359,-2.8301,-2.8301,-2.8301,-2.8301,-2.8301,-2.8301,-2.8408,-2.8514,-2.8621,-2.9046,-2.9764,-3.0681,-3.1505,-3.1882,-3.2397,-3.2689,-3.2741,-3.2512,-3.2466,-3.2185,-3.175,-3.142,-3.1308,-3.1009,-3.0807,-3.0533,-3.0252,-3.0083,-2.9698,-2.9354,-2.8972,-2.8582,-2.8064,-2.7562,-2.7262,-2.7154,-2.7017,-2.7262,-2.7306,-2.7704,-2.7891,-2.7955,-2.7882,-2.7694,-2.7526,-2.72,-2.6683,-2.62,-2.5889,-2.5619,-2.5228,-2.4952,-2.4629,-2.4394,-2.4355,-2.4375,-2.4473,-2.4687,-2.4727,-2.4785,-2.4844,-2.4863,-2.4785,-2.4922,-2.5254,-2.5391,-2.543,-2.5702,-2.582,-2.5935,-2.5912,-2.6587,-2.7336,-2.7977,-2.8702,-2.9326,-3.0079,-3.1008,-3.1673,-3.1981,-3.2574,-3.3158,-3.3471,-3.3847,-3.3872,-1.9038,-1.9292,-1.9345,-1.9372,-1.9475,-2.0053,-2.05,-2.0945,-2.1987,-2.3119,-2.3776,-2.3792,-2.4462,-2.536,-2.627,-2.7304,-2.8143,-2.8801,-2.9697,-3.014,-3.0432,-3.049,-3.0626,-3.0781,-3.0469,-3.0059,-2.9512,-2.9121,-2.8828,-2.8613,-2.8437,-2.834,-2.8301,-2.8301,-2.8301,-2.8301,-2.8301,-2.8408,-2.8514,-2.8621,-2.9152,-2.9659,-3.0495,-3.1219,-3.171,-3.2218,-3.2218,-3.2196,-3.2196,-3.1838,-3.1271,-3.0961,-3.073,-3.0535,-3.0274,-3.0144,-3.0079,-2.9904,-2.9607,-2.9409,-2.9095,-2.8714,-2.8147,-2.7763,-2.7481,-2.7182,-2.6961,-2.6936,-2.6988,-2.6976,-2.7071,-2.7146,-2.7051,-2.686,-2.6764,-2.6668,-2.6187,-2.5897,-2.58,-2.5703,-2.5469,-2.5156,-2.498,-2.4746,-2.4687,-2.4687,-2.4785,-2.5,-2.5176,-2.5254,-2.5332,-2.5312,-2.5234,-2.5449,-2.5684,-2.5664,-2.5644,-2.5664,-2.582,-2.5917,-2.6014,-2.64,-2.686,-2.7431,-2.8092,-2.8927,-2.9849,-3.0765,-3.1281,-3.2043,-3.2665,-3.3276,-3.3856,-3.4259,-3.4585,-1.8744,-1.9025,-1.9265,-1.9359,-1.9475,-2.0053,-2.0615,-2.1174,-2.2214,-2.3247,-2.4239,-2.5128,-2.5679,-2.6373,-2.7455,-2.8314,-2.8937,-2.9623,-3.0199,-3.0762,-3.0762,-3.0879,-3.0898,-3.0879,-3.0605,-3.0254,-2.9902,-2.957,-2.9121,-2.8867,-2.8613,-2.832,-2.8301,-2.8301,-2.8301,-2.8301,-2.8301,-2.8301,-2.8408,-2.8514,-2.8834,-2.9343,-2.9764,-3.0391,-3.0806,-3.1116,-3.13,-3.1197,-3.1094,-3.0845,-3.0596,-3.0223,-3.0139,-3.0137,-3.0028,-2.9817,-2.9775,-2.9775,-2.9695,-2.9593,-2.933,-2.894,-2.8445,-2.8141,-2.7796,-2.7231,-2.712,-2.6962,-2.6904,-2.6697,-2.6673,-2.6709,-2.6592,-2.6304,-2.6207,-2.611,-2.582,-2.5723,-2.5723,-2.5723,-2.5644,-2.5527,-2.5488,-2.5352,-2.5352,-2.5352,-2.5332,-2.5508,-2.5488,-2.5625,-2.5625,-2.5664,-2.5605,-2.5644,-2.5723,-2.5723,-2.5703,-2.5723,-2.5762,-2.5879,-2.5976,-2.6014,-2.6496,-2.7201,-2.7851,-2.8632,-2.9542,-3.0557,-3.1552,-3.2313,-3.2798,-3.3381,-3.4057,-3.4719,-3.5136]},{"header":{"parameterUnit":"m.s-1","parameterCategory":1,"la1":31.0,"la2":29.5877,"lo1":-88.7671,"lo2":-86.6584,"dy":0.0162,"dx":0.0185,"nx":115,"ny":88,"refTime":"2024-03-22T18:00:00:Z","depth":0,"parameterNumber":3,"parameterNumberName":"V-component_of_WINDS"},"data":[0.0,0.0,0.0,0.0,0.0,0.0,0.0,0.0,0.0,0.0,0.0,0.0,0.0,0.0,0.0,0.0,0.0,0.0,0.0,0.0,0.0,0.0,0.0,0.0,0.0,0.0,0.0,0.0,0.0,0.0,0.0,0.0,0.0,0.0,0.0,0.0,0.0,0.0,0.0,0.0,0.0,0.0,0.0,0.0,0.0,0.0,0.0,0.0,0.0,0.0,0.0,0.0,0.0,0.0,0.0,0.0,0.0,0.0,0.0,0.0,0.0,0.0,0.0,0.0,0.0,0.0,0.0,0.0,0.0,0.0,0.0,0.0,0.0,0.0,0.0,0.0,0.0,0.0,0.0,0.0,0.0,0.0,0.0,0.0,0.0,0.0,0.0,0.0,0.0,0.0,0.0,0.0,0.0,0.0,0.0,0.0,0.0,0.0,0.0,0.0,0.0,0.0,0.0,0.0,0.0,0.0,0.0,0.0,0.0,0.0,0.0,0.0,0.0,0.0,0.0,0.0,0.0,0.0,0.0,0.0,0.0,0.0,0.0,0.0,0.0,0.0,0.0,0.0,0.0,0.0,0.0,0.0,0.0,0.0,0.0,0.0,0.0,0.0,0.0,0.0,0.0,0.0,0.0,0.0,0.0,0.0,0.0,0.0,0.0,0.0,0.0,0.0,0.0,0.0,0.0,0.0,0.0,0.0,0.0,0.0,0.0,0.0,0.0,0.0,0.0,0.0,0.0,0.0,0.0,0.0,0.0,0.0,0.0,0.0,0.0,0.0,0.0,0.0,0.0,0.0,0.0,0.0,0.0,0.0,0.0,0.0,0.0,0.0,0.0,0.0,0.0,0.0,0.0,0.0,0.0,0.0,0.0,0.0,0.0,0.0,0.0,0.0,0.0,0.0,0.0,0.0,0.0,0.0,0.0,0.0,0.0,0.0,0.0,0.0,0.0,0.0,0.0,0.0,0.0,0.0,0.0,0.0,0.0,0.0,0.0,0.0,0.0,0.0,0.0,0.0,0.0,0.0,0.0,0.0,0.0,0.0,0.0,0.0,0.0,0.0,0.0,0.0,0.0,0.0,0.0,0.0,0.0,0.0,0.0,0.0,0.0,0.0,0.0,0.0,0.0,0.0,0.0,0.0,0.0,0.0,0.0,0.0,0.0,0.0,0.0,0.0,0.0,0.0,0.0,0.0,0.0,0.0,0.0,0.0,0.0,0.0,0.0,0.0,0.0,0.0,0.0,0.0,0.0,0.0,0.0,0.0,0.0,0.0,0.0,0.0,0.0,0.0,0.0,0.0,0.0,0.0,0.0,0.0,0.0,0.0,0.0,0.0,0.0,0.0,0.0,0.0,0.0,0.0,0.0,0.0,0.0,0.0,0.0,0.0,0.0,0.0,0.0,0.0,0.0,0.0,0.0,0.0,0.0,0.0,0.0,0.0,0.0,0.0,0.0,0.0,0.0,0.0,0.0,0.0,0.0,0.0,0.0,0.0,0.0,0.0,0.0,0.0,0.0,0.0,0.0,0.0,0.0,0.0,0.0,0.0,0.0,0.0,0.0,0.0,0.0,0.0,0.0,0.0,0.0,0.0,0.0,0.0,0.0,0.0,0.0,0.0,0.0,0.0,0.0,0.0,0.0,0.0,0.0,0.0,0.0,0.0,0.0,0.0,0.0,0.0,0.0,0.0,0.0,0.0,0.0,0.0,0.0,0.0,0.0,0.0,0.0,0.0,0.0,0.0,0.0,0.0,0.0,0.0,0.0,0.0,0.0,0.0,0.0,0.0,0.0,0.0,0.0,0.0,0.0,0.0,0.0,0.0,0.0,0.0,0.0,0.0,0.0,0.0,0.0,0.0,0.0,0.0,0.0,0.0,0.0,0.0,0.0,0.0,0.0,0.0,0.0,0.0,0.0,0.0,0.0,0.0,0.0,0.0,0.0,0.0,0.0,0.0,0.0,0.0,0.0,0.0,0.0,0.0,0.0,0.0,0.0,0.0,0.0,0.0,0.0,0.0,0.0,0.0,0.0,0.0,0.0,0.0,0.0,0.0,0.0,0.0,0.0,0.0,0.0,0.0,0.0,0.0,0.0,0.0,0.0,0.0,0.0,0.0,0.0,0.0,0.0,0.0,0.0,0.0,0.0,0.0,0.0,0.0,0.0,0.0,0.0,0.0,0.0,0.0,0.0,0.0,0.0,0.0,0.0,0.0,0.0,0.0,0.0,0.0,0.0,0.0,0.0,0.0,0.0,0.0,0.0,0.0,0.0,0.0,0.0,0.0,0.0,0.0,0.0,0.0,0.0,0.0,0.0,0.0,0.0,0.0,0.0,0.0,0.0,0.0,0.0,0.0,0.0,0.0,0.0,0.0,0.0,0.0,0.0,0.0,0.0,0.0,0.0,0.0,0.0,0.0,0.0,0.0,0.0,0.0,0.0,0.0,0.0,0.0,0.0,0.0,0.0,0.0,0.0,0.0,0.0,0.0,0.0,0.0,0.0,0.0,0.0,0.0,0.0,0.0,0.0,0.0,0.0,0.0,0.0,0.0,0.0,0.0,0.0,0.0,0.0,0.0,0.0,0.0,0.0,0.0,0.0,0.0,0.0,0.0,0.0,0.0,0.0,0.0,0.0,0.0,0.0,0.0,0.0,0.0,0.0,0.0,0.0,0.0,0.0,0.0,0.0,0.0,0.0,0.0,0.0,0.0,0.0,0.0,0.0,0.0,0.0,0.0,0.0,0.0,0.0,0.0,0.0,0.0,0.0,0.0,0.0,0.0,0.0,0.0,0.0,0.0,0.0,0.0,0.0,0.0,0.0,0.0,0.0,0.0,0.0,0.0,0.0,0.0,0.0,0.0,0.0,0.0,0.0,0.0,0.0,0.0,0.0,0.0,0.0,0.0,0.0,0.0,0.0,0.0,0.0,0.0,0.0,0.0,0.0,0.0,0.0,0.0,0.0,0.0,0.0,0.0,0.0,0.0,0.0,0.0,0.0,0.0,0.0,0.0,0.0,0.0,0.0,0.0,0.0,0.0,0.0,0.0,0.0,0.0,0.0,0.0,0.0,0.0,0.0,0.0,0.0,0.0,0.0,0.0,0.0,0.0,0.0,0.0,0.0,0.0,0.0,0.0,0.0,0.0,0.0,0.0,0.0,0.0,0.0,0.0,0.0,0.0,0.0,0.0,0.0,0.0,0.0,0.0,0.0,0.0,0.0,0.0,0.0,0.0,0.0,0.0,0.0,0.0,0.0,0.0,0.0,0.0,0.0,0.0,0.0,0.0,0.0,0.0,0.0,0.0,0.0,0.0,0.0,0.0,0.0,0.0,0.0,0.0,0.0,0.0,0.0,0.0,0.0,0.0,0.0,0.0,0.0,0.0,0.0,0.0,0.0,0.0,0.0,0.0,0.0,0.0,0.0,0.0,0.0,0.0,0.0,0.0,0.0,0.0,0.0,0.0,0.0,0.0,0.0,0.0,0.0,0.0,0.0,0.0,0.0,0.0,0.0,0.0,0.0,0.0,0.0,0.0,0.0,0.0,0.0,0.0,0.0,0.0,0.0,0.0,0.0,0.0,0.0,0.0,0.0,0.0,0.0,0.0,0.0,0.0,0.0,0.0,0.0,0.0,0.0,0.0,0.0,0.0,0.0,0.0,0.0,0.0,0.0,0.0,0.0,0.0,0.0,0.0,0.0,0.0,0.0,0.0,0.0,0.0,0.0,0.0,0.0,0.0,0.0,0.0,0.0,0.0,0.0,0.0,0.0,0.0,0.0,0.0,0.0,0.0,0.0,0.0,0.0,0.0,0.0,0.0,0.0,0.0,0.0,0.0,0.0,0.0,0.0,0.0,0.0,0.0,0.0,0.0,0.0,0.0,0.0,0.0,0.0,0.0,0.0,0.0,0.0,0.0,0.0,0.0,0.0,0.0,0.0,0.0,0.0,0.0,0.0,0.0,0.0,0.0,0.0,0.0,0.0,0.0,0.0,0.0,0.0,0.0,0.0,0.0,0.0,0.0,0.0,0.0,0.0,0.0,0.0,0.0,0.0,0.0,0.0,0.0,0.0,0.0,0.0,0.0,0.0,0.0,0.0,0.0,0.0,0.0,0.0,0.0,0.0,0.0,0.0,0.0,0.0,0.0,0.0,0.0,0.0,0.0,0.0,0.0,0.0,0.0,0.0,0.0,0.0,0.0,0.0,0.0,0.0,0.0,0.0,0.0,0.0,0.0,0.0,0.0,0.0,0.0,0.0,0.0,0.0,0.0,0.0,0.0,-1.4839,0.0,0.0,0.0,0.0,0.0,0.0,0.0,0.0,0.0,0.0,0.0,0.0,0.0,0.0,0.0,0.0,0.0,0.0,0.0,0.0,0.0,0.0,0.0,0.0,0.0,0.0,0.0,0.0,0.0,0.0,0.0,0.0,0.0,0.0,0.0,0.0,0.0,0.0,0.0,0.0,0.0,0.0,0.0,0.0,0.0,0.0,0.0,0.0,0.0,0.0,0.0,0.0,0.0,0.0,0.0,0.0,0.0,0.0,0.0,0.0,0.0,0.0,0.0,0.0,0.0,0.0,0.0,0.0,0.0,0.0,0.0,0.0,0.0,0.0,0.0,0.0,0.0,0.0,0.0,0.0,0.0,0.0,0.0,0.0,0.0,0.0,0.0,0.0,0.0,0.0,0.0,0.0,0.0,0.0,0.0,0.0,0.0,0.0,0.0,0.0,0.0,0.0,0.0,0.0,0.0,0.0,0.0,0.0,0.0,0.0,-1.6812,-1.5945,-1.5667,-1.5446,-1.5221,0.0,0.0,0.0,0.0,0.0,0.0,0.0,0.0,0.0,0.0,0.0,0.0,0.0,0.0,0.0,0.0,0.0,0.0,0.0,0.0,0.0,0.0,0.0,0.0,0.0,0.0,0.0,0.0,0.0,0.0,0.0,0.0,0.0,0.0,0.0,0.0,0.0,0.0,0.0,0.0,0.0,0.0,0.0,0.0,0.0,0.0,0.0,0.0,0.0,0.0,0.0,0.0,0.0,0.0,0.0,0.0,0.0,0.0,0.0,0.0,0.0,0.0,0.0,0.0,0.0,0.0,0.0,0.0,0.0,0.0,0.0,0.0,0.0,0.0,0.0,0.0,0.0,0.0,0.0,0.0,0.0,0.0,0.0,0.0,0.0,0.0,0.0,0.0,0.0,0.0,0.0,0.0,0.0,0.0,0.0,0.0,0.0,0.0,0.0,0.0,0.0,0.0,0.0,0.0,0.0,0.0,0.0,0.0,0.0,0.0,0.0,0.0,-1.6067,-1.575,-1.5313,0.0,0.0,0.0,0.0,0.0,0.0,0.0,0.0,0.0,0.0,0.0,0.0,0.0,0.0,0.0,0.0,0.0,0.0,0.0,0.0,0.0,0.0,0.0,0.0,0.0,0.0,0.0,0.0,0.0,0.0,0.0,0.0,0.0,0.0,0.0,0.0,0.0,0.0,0.0,0.0,0.0,0.0,0.0,0.0,0.0,0.0,0.0,0.0,0.0,0.0,0.0,0.0,0.0,0.0,0.0,0.0,0.0,0.0,0.0,0.0,0.0,0.0,0.0,0.0,0.0,0.0,0.0,0.0,0.0,0.0,0.0,0.0,0.0,0.0,0.0,0.0,0.0,0.0,0.0,0.0,0.0,0.0,0.0,0.0,0.0,0.0,0.0,0.0,0.0,0.0,0.0,0.0,0.0,0.0,0.0,0.0,0.0,0.0,0.0,0.0,0.0,0.0,0.0,0.0,0.0,0.0,0.0,0.0,0.0,0.0,-1.6601,-1.6224,-1.5876,0.0,-1.4474,0.0,0.0,0.0,0.0,0.0,0.0,0.0,0.0,0.0,0.0,0.0,0.0,0.0,0.0,0.0,0.0,0.0,0.0,0.0,0.0,0.0,0.0,0.0,0.0,0.0,0.0,0.0,0.0,0.0,0.0,0.0,0.0,0.0,0.0,0.0,0.0,0.0,0.0,0.0,0.0,0.0,0.0,0.0,0.0,0.0,0.0,0.0,0.0,0.0,0.0,0.0,0.0,0.0,0.0,0.0,0.0,0.0,0.0,0.0,0.0,0.0,0.0,0.0,0.0,0.0,0.0,0.0,0.0,0.0,0.0,0.0,0.0,0.0,0.0,0.0,0.0,0.0,0.0,0.0,0.0,0.0,0.0,0.0,0.0,0.0,0.0,0.0,0.0,0.0,0.0,0.0,0.0,0.0,0.0,0.0,0.0,0.0,0.0,0.0,0.0,0.0,0.0,0.0,0.0,0.0,0.0,0.0,0.0,0.0,0.0,-1.6749,-1.6841,-1.6507,-1.5697,0.0,0.0,0.0,0.0,0.0,0.0,0.0,0.0,0.0,0.0,0.0,0.0,0.0,0.0,0.0,0.0,0.0,0.0,0.0,0.0,0.0,0.0,0.0,0.0,0.0,0.0,0.0,0.0,0.0,0.0,0.0,0.0,0.0,0.0,0.0,0.0,0.0,0.0,0.0,0.0,0.0,0.0,0.0,0.0,0.0,0.0,0.0,0.0,0.0,0.0,0.0,0.0,0.0,0.0,0.0,0.0,0.0,0.0,0.0,0.0,0.0,0.0,0.0,0.0,0.0,0.0,0.0,0.0,0.0,0.0,0.0,0.0,0.0,0.0,0.0,0.0,0.0,0.0,0.0,0.0,0.0,0.0,0.0,0.0,0.0,0.0,0.0,0.0,0.0,0.0,0.0,0.0,0.0,0.0,0.0,0.0,0.0,0.0,0.0,0.0,0.0,0.0,0.0,0.0,0.0,0.0,0.0,0.0,0.0,0.0,-1.6698,-1.7045,-1.7219,-1.6878,-1.6045,-1.4651,0.0,0.0,0.0,0.0,0.0,0.0,0.0,0.0,0.0,0.0,0.0,0.0,0.0,0.0,0.0,0.0,0.0,0.0,0.0,0.0,0.0,0.0,0.0,0.0,0.0,0.0,0.0,0.0,0.0,0.0,0.0,0.0,0.0,0.0,0.0,0.0,0.0,0.0,0.0,0.0,0.0,0.0,0.0,0.0,0.0,0.0,0.0,0.0,0.0,0.0,0.0,0.0,0.0,0.0,0.0,0.0,0.0,0.0,0.0,0.0,0.0,0.0,0.0,0.0,0.0,0.0,0.0,0.0,0.0,0.0,0.0,0.0,0.0,0.0,0.0,0.0,0.0,0.0,0.0,0.0,0.0,0.0,0.0,0.0,0.0,0.0,0.0,0.0,0.0,0.0,0.0,0.0,0.0,0.0,0.0,0.0,0.0,0.0,0.0,0.0,0.0,0.0,0.0,0.0,0.0,0.0,0.0,0.0,-1.6225,-1.7151,-1.7456,-1.7015,-1.6809,-1.6078,0.0,0.0,0.0,0.0,0.0,0.0,0.0,0.0,0.0,0.0,0.0,0.0,0.0,0.0,0.0,0.0,0.0,0.0,0.0,0.0,0.0,0.0,0.0,0.0,0.0,0.0,0.0,0.0,0.0,0.0,0.0,0.0,0.0,0.0,0.0,0.0,0.0,0.0,0.0,0.0,0.0,0.0,0.0,0.0,0.0,0.0,0.0,0.0,0.0,0.0,0.0,0.0,0.0,0.0,0.0,0.0,0.0,0.0,0.0,0.0,0.0,0.0,0.0,0.0,0.0,0.0,0.0,0.0,0.0,0.0,0.0,0.0,0.0,0.0,0.0,0.0,0.0,0.0,0.0,0.0,0.0,0.0,0.0,0.0,0.0,0.0,0.0,0.0,0.0,0.0,0.0,0.0,0.0,0.0,0.0,0.0,0.0,0.0,0.0,0.0,0.0,0.0,0.0,0.0,0.0,0.0,0.0,0.0,0.0,-1.6308,-1.6789,-1.6897,-1.6637,-1.6539,-1.607,0.0,0.0,0.0,0.0,0.0,0.0,0.0,0.0,0.0,0.0,0.0,0.0,0.0,0.0,0.0,0.0,0.0,0.0,0.0,0.0,0.0,0.0,0.0,0.0,0.0,0.0,0.0,0.0,0.0,0.0,0.0,0.0,0.0,0.0,0.0,0.0,0.0,0.0,0.0,0.0,0.0,0.0,0.0,0.0,0.0,0.0,0.0,0.0,0.0,0.0,0.0,0.0,0.0,0.0,0.0,0.0,0.0,0.0,0.0,0.0,0.0,0.0,0.0,0.0,0.0,0.0,0.0,0.0,0.0,0.0,0.0,0.0,0.0,0.0,0.0,0.0,0.0,0.0,0.0,0.0,0.0,0.0,0.0,0.0,0.0,0.0,0.0,0.0,0.0,0.0,0.0,0.0,0.0,0.0,0.0,0.0,0.0,0.0,0.0,0.0,0.0,0.0,0.0,0.0,0.0,0.0,0.0,0.0,0.0,-1.6923,0.0,-1.7088,-1.6899,-1.6836,-1.6421,0.0,0.0,0.0,0.0,0.0,0.0,0.0,0.0,0.0,0.0,0.0,0.0,0.0,0.0,0.0,0.0,0.0,0.0,0.0,0.0,0.0,0.0,0.0,0.0,0.0,0.0,0.0,0.0,0.0,0.0,0.0,0.0,0.0,0.0,0.0,0.0,0.0,0.0,0.0,0.0,0.0,0.0,0.0,0.0,0.0,0.0,0.0,0.0,0.0,0.0,0.0,0.0,0.0,0.0,0.0,0.0,0.0,0.0,0.0,0.0,0.0,0.0,0.0,0.0,0.0,0.0,0.0,0.0,0.0,0.0,0.0,0.0,0.0,0.0,0.0,0.0,0.0,0.0,0.0,0.0,0.0,0.0,0.0,0.0,0.0,0.0,0.0,0.0,0.0,0.0,0.0,0.0,0.0,0.0,0.0,0.0,0.0,0.0,0.0,0.0,0.0,0.0,0.0,0.0,0.0,0.0,0.0,0.0,-1.7204,-1.8161,-1.8099,-1.8036,-1.7973,-1.7753,-1.712,0.0,0.0,0.0,0.0,0.0,0.0,0.0,0.0,0.0,0.0,0.0,0.0,0.0,0.0,0.0,0.0,0.0,0.0,0.0,0.0,0.0,0.0,0.0,0.0,0.0,0.0,0.0,0.0,0.0,0.0,0.0,0.0,0.0,0.0,0.0,0.0,0.0,0.0,0.0,0.0,0.0,0.0,0.0,0.0,0.0,0.0,0.0,0.0,0.0,0.0,0.0,0.0,0.0,0.0,0.0,0.0,0.0,0.0,0.0,0.0,0.0,0.0,0.0,0.0,0.0,0.0,0.0,0.0,0.0,0.0,0.0,0.0,0.0,0.0,0.0,0.0,0.0,0.0,0.0,0.0,0.0,0.0,0.0,0.0,0.0,0.0,0.0,0.0,0.0,0.0,0.0,0.0,0.0,0.0,0.0,0.0,0.0,0.0,0.0,0.0,0.0,0.0,0.0,0.0,0.0,0.0,0.0,0.0,0.0,-1.8466,-1.8407,-1.8377,-1.8345,-1.7823,-1.7173,0.0,0.0,0.0,0.0,0.0,0.0,0.0,0.0,0.0,0.0,0.0,0.0,0.0,0.0,0.0,0.0,0.0,0.0,0.0,0.0,0.0,0.0,0.0,0.0,0.0,0.0,0.0,0.0,0.0,0.0,0.0,0.0,0.0,0.0,0.0,0.0,0.0,0.0,0.0,0.0,0.0,0.0,0.0,0.0,0.0,0.0,0.0,0.0,0.0,0.0,0.0,0.0,0.0,0.0,0.0,0.0,0.0,0.0,0.0,0.0,0.0,0.0,0.0,0.0,0.0,0.0,0.0,0.0,0.0,0.0,0.0,0.0,0.0,0.0,0.0,0.0,0.0,0.0,0.0,0.0,0.0,0.0,0.0,0.0,0.0,0.0,0.0,0.0,0.0,0.0,0.0,0.0,0.0,0.0,0.0,0.0,0.0,0.0,0.0,0.0,0.0,0.0,0.0,0.0,0.0,0.0,0.0,0.0,0.0,-1.9321,-1.9206,-1.915,-1.9154,-1.8517,-1.7785,-1.7061,0.0,0.0,0.0,0.0,0.0,0.0,0.0,0.0,0.0,0.0,0.0,0.0,0.0,0.0,0.0,0.0,0.0,0.0,0.0,0.0,0.0,0.0,0.0,0.0,0.0,0.0,0.0,0.0,0.0,0.0,0.0,0.0,0.0,0.0,0.0,0.0,0.0,0.0,0.0,0.0,0.0,0.0,0.0,0.0,0.0,0.0,0.0,0.0,0.0,0.0,0.0,0.0,0.0,0.0,0.0,0.0,0.0,0.0,0.0,0.0,0.0,0.0,0.0,0.0,0.0,0.0,0.0,0.0,0.0,0.0,0.0,0.0,0.0,0.0,0.0,0.0,0.0,0.0,0.0,0.0,0.0,0.0,0.0,0.0,0.0,0.0,0.0,0.0,0.0,0.0,0.0,0.0,0.0,0.0,0.0,0.0,0.0,0.0,0.0,0.0,0.0,0.0,0.0,0.0,0.0,0.0,0.0,0.0,-2.0591,-2.045,-2.0362,-2.0297,-1.9646,-1.8935,0.0,0.0,0.0,0.0,0.0,0.0,0.0,0.0,0.0,0.0,0.0,0.0,0.0,0.0,0.0,0.0,0.0,0.0,0.0,0.0,0.0,0.0,0.0,0.0,0.0,0.0,0.0,0.0,0.0,0.0,0.0,0.0,0.0,0.0,0.0,0.0,0.0,0.0,0.0,0.0,0.0,0.0,0.0,0.0,0.0,0.0,0.0,0.0,0.0,0.0,0.0,0.0,0.0,0.0,0.0,0.0,0.0,0.0,0.0,0.0,0.0,0.0,0.0,0.0,0.0,0.0,0.0,0.0,0.0,0.0,0.0,0.0,0.0,0.0,0.0,0.0,0.0,0.0,0.0,0.0,0.0,0.0,0.0,0.0,0.0,0.0,0.0,0.0,0.0,0.0,0.0,0.0,0.0,0.0,0.0,0.0,0.0,0.0,0.0,0.0,0.0,0.0,0.0,0.0,0.0,0.0,0.0,0.0,0.0,-2.147,-2.1495,-2.1283,-2.0699,-2.0577,-1.989,0.0,0.0,0.0,0.0,0.0,0.0,0.0,0.0,0.0,0.0,0.0,0.0,0.0,0.0,0.0,0.0,0.0,0.0,0.0,0.0,0.0,0.0,0.0,0.0,0.0,0.0,0.0,0.0,0.0,0.0,0.0,0.0,0.0,0.0,0.0,0.0,0.0,0.0,0.0,0.0,0.0,0.0,0.0,0.0,0.0,0.0,0.0,0.0,0.0,0.0,0.0,0.0,0.0,0.0,0.0,0.0,0.0,0.0,0.0,0.0,0.0,0.0,0.0,0.0,0.0,0.0,0.0,0.0,0.0,0.0,0.0,0.0,0.0,0.0,0.0,0.0,0.0,0.0,0.0,0.0,0.0,0.0,0.0,0.0,0.0,0.0,0.0,0.0,0.0,0.0,0.0,0.0,0.0,0.0,0.0,0.0,0.0,0.0,0.0,0.0,0.0,0.0,0.0,0.0,0.0,0.0,0.0,0.0,-2.1827,-2.1945,-2.2089,-2.1961,-2.1501,-2.1245,-2.055,0.0,0.0,0.0,0.0,0.0,0.0,0.0,0.0,0.0,0.0,0.0,0.0,0.0,0.0,0.0,0.0,0.0,0.0,0.0,0.0,0.0,0.0,0.0,0.0,0.0,0.0,0.0,0.0,0.0,0.0,0.0,0.0,0.0,0.0,0.0,0.0,0.0,0.0,0.0,0.0,0.0,0.0,0.0,0.0,0.0,0.0,0.0,0.0,0.0,0.0,0.0,0.0,0.0,0.0,0.0,0.0,0.0,0.0,0.0,0.0,0.0,0.0,0.0,0.0,0.0,0.0,0.0,0.0,0.0,0.0,0.0,0.0,0.0,0.0,0.0,0.0,0.0,0.0,0.0,0.0,0.0,0.0,0.0,0.0,0.0,0.0,0.0,0.0,0.0,0.0,0.0,0.0,0.0,0.0,0.0,0.0,0.0,0.0,0.0,0.0,0.0,0.0,0.0,0.0,0.0,0.0,0.0,0.0,-2.2089,-2.2214,-2.2321,-2.2432,-2.2453,-2.1839,-2.1028,0.0,0.0,0.0,0.0,0.0,0.0,0.0,0.0,0.0,0.0,0.0,0.0,0.0,0.0,0.0,0.0,0.0,0.0,0.0,0.0,0.0,0.0,0.0,0.0,0.0,0.0,0.0,0.0,0.0,0.0,0.0,0.0,0.0,0.0,0.0,0.0,0.0,0.0,0.0,0.0,0.0,0.0,0.0,0.0,0.0,0.0,0.0,0.0,0.0,0.0,0.0,0.0,0.0,0.0,0.0,0.0,0.0,0.0,0.0,0.0,0.0,0.0,0.0,0.0,0.0,0.0,0.0,0.0,0.0,0.0,0.0,0.0,0.0,0.0,0.0,0.0,0.0,0.0,0.0,0.0,0.0,0.0,0.0,0.0,0.0,0.0,0.0,0.0,0.0,0.0,0.0,0.0,0.0,0.0,0.0,0.0,0.0,0.0,0.0,0.0,0.0,0.0,0.0,0.0,0.0,0.0,0.0,0.0,-2.2061,-2.2214,-2.2321,-2.2432,-2.2487,-2.2478,-2.1832,0.0,0.0,0.0,0.0,0.0,0.0,0.0,0.0,0.0,0.0,0.0,0.0,0.0,0.0,0.0,0.0,0.0,0.0,0.0,0.0,0.0,0.0,0.0,0.0,0.0,0.0,0.0,0.0,0.0,0.0,0.0,0.0,0.0,0.0,0.0,0.0,0.0,0.0,0.0,0.0,0.0,0.0,0.0,0.0,0.0,0.0,0.0,0.0,-1.4617,0.0,0.0,0.0,0.0,0.0,0.0,0.0,0.0,0.0,0.0,0.0,0.0,0.0,0.0,0.0,0.0,0.0,0.0,0.0,0.0,0.0,0.0,0.0,0.0,0.0,0.0,0.0,0.0,0.0,0.0,0.0,0.0,0.0,0.0,0.0,0.0,0.0,0.0,0.0,0.0,0.0,0.0,0.0,0.0,0.0,0.0,0.0,0.0,0.0,0.0,0.0,0.0,0.0,0.0,0.0,0.0,0.0,0.0,0.0,-2.2237,-2.2271,-2.2377,-2.246,-2.2515,-2.2721,-2.2304,0.0,0.0,0.0,0.0,0.0,0.0,0.0,0.0,0.0,0.0,0.0,0.0,0.0,0.0,0.0,0.0,0.0,0.0,0.0,0.0,0.0,0.0,0.0,0.0,0.0,0.0,0.0,0.0,0.0,0.0,0.0,0.0,0.0,0.0,0.0,0.0,0.0,0.0,0.0,0.0,0.0,0.0,0.0,0.0,0.0,0.0,0.0,0.0,0.0,0.0,0.0,0.0,0.0,0.0,0.0,0.0,0.0,0.0,0.0,0.0,0.0,0.0,0.0,0.0,0.0,0.0,0.0,0.0,0.0,0.0,0.0,0.0,0.0,0.0,0.0,0.0,0.0,0.0,0.0,0.0,0.0,0.0,0.0,0.0,0.0,0.0,0.0,0.0,0.0,0.0,0.0,0.0,0.0,0.0,0.0,0.0,0.0,0.0,0.0,0.0,0.0,0.0,0.0,0.0,0.0,0.0,0.0,-2.2058,-2.2349,-2.2327,-2.2432,-2.2487,-2.2515,-2.2747,-2.2554,-2.1823,0.0,0.0,0.0,0.0,0.0,0.0,0.0,0.0,0.0,0.0,0.0,0.0,0.0,0.0,0.0,0.0,0.0,0.0,0.0,0.0,0.0,0.0,0.0,0.0,0.0,0.0,0.0,0.0,0.0,0.0,0.0,0.0,0.0,0.0,0.0,0.0,0.0,0.0,-1.5428,-1.5962,0.0,0.0,0.0,0.0,0.0,0.0,0.0,0.0,-1.6349,0.0,0.0,0.0,0.0,0.0,0.0,0.0,0.0,0.0,0.0,0.0,0.0,0.0,0.0,0.0,0.0,0.0,0.0,0.0,0.0,0.0,0.0,0.0,0.0,0.0,0.0,0.0,0.0,0.0,0.0,0.0,0.0,0.0,0.0,0.0,0.0,0.0,0.0,0.0,0.0,0.0,0.0,0.0,0.0,0.0,0.0,0.0,0.0,0.0,0.0,0.0,0.0,0.0,0.0,0.0,0.0,-2.154,-2.2112,-2.2377,-2.2377,-2.246,-2.2487,-2.2515,-2.2747,-2.2554,-2.1823,0.0,0.0,0.0,0.0,0.0,0.0,0.0,0.0,0.0,0.0,0.0,0.0,0.0,0.0,0.0,0.0,0.0,0.0,0.0,0.0,0.0,0.0,0.0,0.0,0.0,0.0,0.0,0.0,0.0,0.0,0.0,0.0,0.0,0.0,0.0,0.0,0.0,0.0,0.0,-1.6205,-1.6278,0.0,0.0,0.0,0.0,0.0,0.0,0.0,0.0,-1.6343,0.0,0.0,0.0,0.0,0.0,0.0,0.0,0.0,0.0,0.0,0.0,0.0,0.0,0.0,0.0,0.0,0.0,0.0,0.0,0.0,0.0,0.0,0.0,0.0,0.0,0.0,0.0,0.0,0.0,0.0,0.0,0.0,0.0,0.0,0.0,0.0,0.0,0.0,0.0,0.0,0.0,0.0,0.0,0.0,0.0,0.0,0.0,0.0,0.0,0.0,0.0,0.0,0.0,0.0,0.0,-2.2117,-2.2337,-2.2432,-2.2405,-2.246,-2.2487,-2.2515,-2.2375,-2.1937,0.0,0.0,0.0,0.0,0.0,0.0,0.0,0.0,0.0,0.0,0.0,0.0,0.0,0.0,0.0,0.0,0.0,0.0,0.0,0.0,0.0,0.0,0.0,0.0,0.0,0.0,0.0,0.0,0.0,0.0,0.0,0.0,0.0,0.0,0.0,0.0,0.0,0.0,0.0,0.0,-1.6517,-1.6555,-1.6693,0.0,0.0,0.0,0.0,0.0,0.0,-1.6262,-1.6522,0.0,0.0,0.0,0.0,0.0,0.0,0.0,0.0,0.0,0.0,0.0,0.0,0.0,0.0,0.0,0.0,0.0,0.0,0.0,0.0,0.0,0.0,0.0,0.0,0.0,0.0,0.0,0.0,0.0,0.0,0.0,0.0,0.0,0.0,0.0,0.0,0.0,0.0,0.0,0.0,0.0,0.0,0.0,0.0,0.0,0.0,0.0,0.0,0.0,0.0,0.0,0.0,0.0,0.0,0.0,-2.2686,-2.2596,-2.2487,-2.2405,-2.246,-2.2487,-2.2487,-2.1953,-2.1344,0.0,0.0,0.0,0.0,0.0,0.0,0.0,0.0,0.0,0.0,0.0,0.0,0.0,0.0,0.0,0.0,0.0,0.0,0.0,0.0,0.0,0.0,0.0,0.0,0.0,0.0,0.0,0.0,0.0,0.0,0.0,0.0,0.0,0.0,0.0,0.0,0.0,0.0,0.0,0.0,0.0,-1.6871,-1.6827,-1.6597,0.0,0.0,0.0,0.0,-1.6113,-1.6262,0.0,0.0,0.0,0.0,0.0,0.0,0.0,0.0,0.0,0.0,0.0,0.0,0.0,0.0,0.0,0.0,0.0,0.0,0.0,0.0,0.0,0.0,0.0,0.0,0.0,0.0,0.0,0.0,0.0,0.0,0.0,0.0,0.0,0.0,0.0,0.0,0.0,0.0,0.0,0.0,0.0,0.0,0.0,0.0,0.0,0.0,0.0,0.0,0.0,0.0,0.0,0.0,0.0,0.0,0.0,0.0,-2.2781,-2.2703,-2.2542,-2.2405,-2.2405,-2.2405,-2.2405,-2.1902,-2.1295,0.0,0.0,0.0,0.0,0.0,0.0,0.0,0.0,0.0,0.0,0.0,0.0,0.0,0.0,0.0,0.0,0.0,0.0,0.0,0.0,0.0,0.0,0.0,0.0,0.0,0.0,0.0,0.0,0.0,0.0,0.0,0.0,0.0,0.0,0.0,0.0,0.0,0.0,0.0,0.0,0.0,-1.7025,-1.7314,-1.6804,-1.6479,0.0,0.0,-1.6001,-1.5869,-1.6069,0.0,0.0,0.0,0.0,0.0,0.0,0.0,0.0,0.0,0.0,0.0,0.0,0.0,0.0,0.0,0.0,0.0,0.0,0.0,0.0,0.0,0.0,0.0,0.0,0.0,0.0,0.0,0.0,0.0,0.0,0.0,0.0,0.0,0.0,0.0,0.0,0.0,0.0,0.0,0.0,0.0,0.0,0.0,0.0,0.0,0.0,0.0,0.0,0.0,0.0,0.0,0.0,0.0,0.0,0.0,-2.1511,-2.2832,-2.2676,-2.2487,-2.2405,-2.2321,-2.2118,-2.1739,-2.1097,-2.0436,0.0,0.0,0.0,0.0,0.0,0.0,0.0,0.0,0.0,0.0,0.0,0.0,0.0,0.0,0.0,0.0,0.0,0.0,0.0,0.0,0.0,0.0,0.0,0.0,0.0,0.0,0.0,0.0,0.0,0.0,0.0,0.0,0.0,0.0,0.0,0.0,0.0,0.0,0.0,0.0,0.0,0.0,-1.6848,-1.6455,0.0,0.0,0.0,-1.6378,-1.6783,0.0,0.0,0.0,0.0,0.0,0.0,0.0,0.0,0.0,0.0,0.0,0.0,0.0,0.0,0.0,0.0,0.0,0.0,0.0,0.0,0.0,0.0,0.0,0.0,0.0,0.0,0.0,0.0,0.0,0.0,0.0,0.0,0.0,0.0,0.0,0.0,0.0,0.0,0.0,0.0,0.0,0.0,0.0,0.0,0.0,0.0,0.0,0.0,0.0,0.0,0.0,0.0,0.0,0.0,0.0,0.0,0.0,-2.2816,-2.2649,-2.2432,-2.2321,-2.2209,-2.181,-2.1123,-2.0407,0.0,0.0,0.0,0.0,0.0,0.0,0.0,0.0,0.0,0.0,0.0,0.0,0.0,0.0,0.0,0.0,0.0,0.0,0.0,0.0,0.0,0.0,0.0,0.0,0.0,0.0,0.0,-1.3681,0.0,0.0,0.0,0.0,0.0,0.0,0.0,0.0,0.0,0.0,0.0,0.0,0.0,0.0,-1.7188,-1.6923,-1.6658,-1.663,0.0,0.0,-1.6931,-1.7533,-1.7454,-1.7551,0.0,0.0,0.0,0.0,0.0,0.0,0.0,0.0,0.0,0.0,0.0,0.0,0.0,0.0,0.0,0.0,0.0,0.0,0.0,0.0,0.0,0.0,0.0,0.0,0.0,0.0,0.0,0.0,0.0,0.0,0.0,0.0,0.0,0.0,0.0,0.0,0.0,0.0,0.0,0.0,0.0,0.0,0.0,0.0,0.0,0.0,0.0,0.0,0.0,0.0,0.0,0.0,0.0,0.0,-2.1546,-2.2764,-2.2623,-2.2343,-2.2027,-2.194,-2.1545,-2.0838,-2.0171,-1.9563,0.0,0.0,0.0,0.0,0.0,0.0,0.0,0.0,0.0,0.0,0.0,0.0,0.0,0.0,0.0,0.0,0.0,0.0,0.0,0.0,0.0,0.0,0.0,0.0,0.0,0.0,0.0,0.0,0.0,0.0,0.0,0.0,0.0,0.0,0.0,0.0,0.0,0.0,0.0,0.0,0.0,-1.8085,-1.8236,-1.8031,-1.8016,0.0,-1.7971,-1.7557,-1.7678,-1.7821,-1.81,-1.8584,0.0,0.0,0.0,0.0,0.0,0.0,0.0,0.0,0.0,0.0,0.0,0.0,0.0,0.0,0.0,0.0,0.0,0.0,0.0,0.0,0.0,0.0,0.0,0.0,0.0,0.0,0.0,0.0,0.0,0.0,0.0,0.0,0.0,0.0,0.0,0.0,0.0,0.0,0.0,0.0,0.0,0.0,0.0,0.0,0.0,0.0,0.0,0.0,0.0,0.0,0.0,0.0,0.0,-2.1943,-2.2721,-2.2446,-2.2169,-2.1882,-2.1675,-2.1059,-1.9876,-1.9641,-1.8996,0.0,0.0,0.0,0.0,0.0,0.0,0.0,0.0,0.0,0.0,0.0,0.0,0.0,0.0,0.0,0.0,0.0,0.0,0.0,0.0,0.0,0.0,0.0,0.0,0.0,0.0,0.0,0.0,-1.4559,-1.4343,-1.4746,0.0,0.0,0.0,0.0,0.0,0.0,0.0,0.0,0.0,0.0,-1.8429,-1.8524,-1.8342,0.0,0.0,-1.8536,-1.8512,-1.8933,-1.8956,-1.8993,-1.9436,-1.9429,0.0,0.0,0.0,0.0,0.0,0.0,0.0,0.0,0.0,0.0,0.0,0.0,0.0,0.0,0.0,0.0,0.0,0.0,0.0,0.0,0.0,0.0,0.0,0.0,0.0,0.0,0.0,0.0,0.0,0.0,0.0,0.0,0.0,0.0,0.0,0.0,0.0,0.0,0.0,0.0,0.0,0.0,0.0,0.0,0.0,0.0,0.0,0.0,0.0,0.0,0.0,0.0,-2.215,-2.2642,-2.2281,-2.1969,-2.1645,-2.1433,-2.0629,-1.9208,-1.9143,-1.8546,0.0,0.0,0.0,0.0,0.0,0.0,0.0,0.0,0.0,0.0,0.0,0.0,0.0,0.0,0.0,0.0,0.0,0.0,0.0,0.0,0.0,0.0,0.0,0.0,0.0,0.0,0.0,0.0,-1.5052,-1.4792,-1.5178,0.0,0.0,0.0,0.0,0.0,0.0,0.0,0.0,0.0,0.0,-1.9164,-1.906,-1.9128,-1.9269,-1.966,-1.9661,-1.9838,-2.0474,-2.0399,-2.0344,-2.067,0.0,0.0,0.0,0.0,0.0,0.0,0.0,0.0,0.0,0.0,0.0,0.0,0.0,0.0,0.0,0.0,0.0,0.0,0.0,0.0,0.0,0.0,0.0,0.0,0.0,0.0,0.0,-2.3853,0.0,0.0,-2.2681,0.0,0.0,0.0,0.0,0.0,0.0,0.0,0.0,0.0,0.0,0.0,0.0,0.0,0.0,0.0,0.0,0.0,0.0,0.0,0.0,0.0,0.0,-2.2086,-2.2473,-2.2113,-2.1705,-2.1309,-2.1151,-2.0383,-1.8919,-1.8824,-1.8271,-1.7041,0.0,0.0,0.0,0.0,0.0,0.0,0.0,0.0,0.0,0.0,0.0,0.0,0.0,0.0,0.0,0.0,0.0,0.0,0.0,0.0,0.0,0.0,0.0,0.0,0.0,0.0,-1.6191,-1.5996,-1.6038,0.0,0.0,0.0,0.0,0.0,0.0,0.0,0.0,0.0,-2.0103,-2.045,-2.056,-2.0261,-2.0523,-2.098,-2.1612,-2.1433,-2.1484,-2.2191,-2.2187,-2.2213,0.0,0.0,0.0,0.0,0.0,0.0,0.0,0.0,0.0,0.0,0.0,0.0,0.0,0.0,0.0,0.0,0.0,0.0,0.0,0.0,0.0,0.0,0.0,0.0,0.0,0.0,0.0,-2.6491,-2.5723,0.0,0.0,0.0,0.0,0.0,0.0,0.0,0.0,0.0,0.0,0.0,-2.6561,-2.6394,0.0,0.0,0.0,0.0,0.0,0.0,0.0,0.0,0.0,0.0,0.0,0.0,-2.2444,-2.222,-2.1853,-2.1401,-2.099,-2.0794,-2.0158,-1.9092,-1.8687,-1.7927,-1.6837,0.0,0.0,0.0,0.0,0.0,0.0,0.0,0.0,0.0,0.0,0.0,0.0,0.0,0.0,0.0,0.0,0.0,0.0,0.0,0.0,0.0,0.0,0.0,0.0,0.0,-1.6412,0.0,0.0,0.0,0.0,0.0,0.0,0.0,0.0,0.0,0.0,-2.0316,-2.0668,-2.1198,-2.1558,-2.1862,-2.1994,-2.2324,-2.2634,0.0,0.0,0.0,0.0,0.0,0.0,0.0,0.0,0.0,0.0,0.0,0.0,0.0,0.0,-1.9608,-1.9207,-1.861,-1.8092,-1.8017,0.0,0.0,0.0,0.0,0.0,0.0,0.0,0.0,0.0,0.0,0.0,0.0,0.0,0.0,-2.755,-2.705,-2.7023,0.0,0.0,0.0,0.0,0.0,0.0,0.0,0.0,-2.6276,-2.6507,-2.713,-2.7193,-2.7182,-2.7113,-2.6995,-2.6331,0.0,0.0,0.0,0.0,0.0,0.0,0.0,0.0,-2.2527,-2.2022,-2.1615,-2.115,-2.0728,-2.0527,-2.0014,-1.9137,-1.8315,-1.7448,-1.6601,-1.6722,-1.6933,0.0,0.0,0.0,0.0,0.0,0.0,0.0,0.0,0.0,0.0,0.0,0.0,0.0,0.0,0.0,0.0,0.0,0.0,0.0,0.0,0.0,0.0,0.0,-1.6814,0.0,0.0,0.0,0.0,0.0,0.0,0.0,0.0,0.0,-2.0801,-2.1104,-2.147,-2.212,-2.2483,-2.2696,-2.2874,0.0,0.0,0.0,0.0,0.0,0.0,0.0,-2.2919,-2.2695,-2.2316,-2.1888,-2.1574,-2.1151,-2.068,-2.0061,0.0,0.0,-1.923,-1.871,-1.8263,-1.8107,-1.7682,-1.7433,-1.7798,-1.784,-1.7884,0.0,0.0,0.0,0.0,-3.1785,0.0,0.0,0.0,-2.8361,-2.803,0.0,-2.79,0.0,0.0,0.0,0.0,-2.6403,-2.7015,0.0,0.0,-2.6915,-2.708,-2.7725,-2.8211,-2.8362,-2.8219,-2.8172,-2.7662,-2.68,-2.5673,0.0,0.0,0.0,0.0,0.0,0.0,-2.2432,-2.1982,-2.1499,-2.1021,-2.0559,-2.0388,-1.9878,-1.8943,-1.7761,-1.6901,-1.6332,-1.6405,-1.6617,-1.6901,-1.7027,0.0,0.0,0.0,0.0,0.0,0.0,0.0,0.0,0.0,0.0,0.0,0.0,0.0,0.0,0.0,0.0,0.0,0.0,0.0,0.0,-1.6868,0.0,0.0,0.0,0.0,0.0,0.0,0.0,0.0,0.0,-2.1598,-2.2131,-2.1961,-2.2105,-2.2817,0.0,0.0,0.0,0.0,-2.3758,-2.4149,-2.4041,-2.401,-2.4376,-2.4195,-2.3872,-2.345,0.0,0.0,-2.073,-2.0008,-1.9618,-1.9515,-1.8971,-1.8487,-1.8756,-1.8602,-1.8494,-1.8333,-1.8147,-1.8084,-1.8084,-1.7929,-1.792,-3.7146,0.0,0.0,0.0,0.0,-3.316,-3.2519,-3.1646,-3.1412,-3.0925,-3.0352,-2.9754,0.0,0.0,0.0,0.0,0.0,0.0,-2.766,-2.8569,-2.8272,-2.8676,-2.9629,-2.9567,-2.9409,-2.9126,-2.8942,-2.8464,-2.7627,-2.68,-2.6126,-2.5517,0.0,0.0,0.0,0.0,-2.3846,-2.3353,-2.2378,-2.1623,-2.1206,-2.0461,-1.9463,-1.8178,-1.7785,-1.7152,-1.6197,-1.6301,-1.6463,-1.6701,-1.6901,0.0,0.0,0.0,0.0,0.0,0.0,0.0,0.0,0.0,0.0,0.0,0.0,0.0,0.0,0.0,0.0,0.0,0.0,0.0,-1.6783,-1.779,-1.8422,0.0,0.0,0.0,0.0,0.0,0.0,0.0,0.0,0.0,-2.26,-2.2525,-2.2566,0.0,0.0,-2.3,-2.2804,-2.3155,-2.3387,-2.3311,-2.3044,0.0,-2.3398,-2.3301,-2.3167,-2.31,-2.2542,-2.197,-2.1459,-2.0865,-2.0311,-1.9843,-1.9295,-1.8774,-1.8371,-1.8139,-1.792,-1.781,-1.7645,-1.7501,-1.7346,-1.729,-1.7234,-4.0892,-3.8915,-3.7604,-3.6524,-3.5608,-3.5177,-3.4649,-3.4018,-3.3304,-3.2699,-3.2134,-3.1336,-3.069,-3.0181,-2.9585,0.0,0.0,0.0,-2.9191,-2.9926,-2.9621,-2.9745,-3.026,-3.0199,-2.9972,-2.9692,-2.9452,-2.9036,-2.8511,-2.7807,-2.7296,-2.6839,0.0,-2.5302,-2.5192,-2.4907,-2.455,-2.4114,-2.3161,-2.2298,-2.1592,-2.0518,-1.9355,-1.8266,-1.7964,-1.7394,-1.6567,-1.6345,-1.6382,-1.6649,-1.6825,-1.7101,0.0,0.0,0.0,0.0,0.0,0.0,0.0,0.0,0.0,0.0,0.0,-1.8394,-1.8244,0.0,0.0,0.0,-1.7439,-1.712,-1.7541,-1.8253,0.0,0.0,0.0,0.0,0.0,0.0,0.0,-2.1527,-2.1598,-2.1782,-2.2426,-2.2356,-2.2282,-2.2586,-2.2628,-2.2528,-2.2328,0.0,-2.2778,-2.2564,-2.2348,-2.226,-2.2403,-2.2433,-2.2447,-2.2236,-2.1861,-2.1483,-2.1026,-2.0557,-2.0053,-1.9726,-1.9282,-1.8759,-1.8294,-1.8084,-1.792,-1.77,-1.7479,-1.7312,-1.7179,-1.7067,-1.6899,-4.4365,-4.4001,-4.0992,-3.9092,-3.8044,-3.7139,-3.6633,-3.6254,-3.4584,-3.3787,-3.3594,-3.2824,-3.2372,-3.2239,-3.2064,0.0,-3.0568,-3.1149,-3.1297,-3.1147,-3.0787,-3.0437,-3.0167,-3.0351,-3.0296,-2.9993,-2.9642,-2.941,-2.9164,-2.8682,-2.8472,-2.8602,-2.6439,-2.5426,-2.5518,-2.531,-2.4978,-2.4607,-2.395,-2.2985,-2.1733,-2.0548,-1.9627,-1.897,-1.8268,-1.776,-1.733,-1.6743,-1.6569,-1.6855,-1.7011,-1.7264,-1.7652,0.0,0.0,0.0,0.0,0.0,0.0,0.0,0.0,0.0,0.0,0.0,0.0,0.0,0.0,-1.8922,-1.8408,0.0,-1.8505,-1.8484,0.0,0.0,0.0,-1.966,-1.957,-1.9822,-2.0274,-2.0909,0.0,0.0,-2.1833,-2.1527,-2.1452,-2.188,-2.1817,-2.169,-2.1536,-2.1746,-2.1921,-2.1681,-2.1648,-2.1483,-2.1312,-2.1674,-2.1756,-2.1308,-2.0912,-2.0567,-2.0088,-1.9575,-1.9259,-1.9371,-1.8979,-1.8625,-1.8487,-1.8487,-1.8356,-1.8061,-1.7733,-1.7534,-1.7479,-1.7256,-1.6955,-4.6369,-4.5574,-4.4113,-4.2366,-4.052,-4.0089,-3.9104,-3.7777,-3.7249,-3.6606,-3.5875,-3.503,-3.3855,-3.2548,-3.1885,-3.1335,-3.0954,-3.1045,-3.1201,-3.1422,-3.1119,-3.1043,-3.1214,-3.0972,-3.061,-3.0153,-2.9827,-2.9242,-2.8501,-2.8394,-2.8289,-2.8096,-2.7894,-2.8049,-2.8352,-2.7803,-2.7365,-2.7063,-2.5342,-2.3538,-2.1694,-2.1188,-2.0435,-1.9302,-1.9117,-1.878,-1.8369,-1.8271,-1.826,-1.8427,-1.8653,-1.8837,-1.9151,-1.9387,0.0,0.0,0.0,0.0,0.0,0.0,0.0,0.0,0.0,-1.9638,-1.9449,0.0,-1.937,0.0,-1.952,-1.9265,-1.8698,-1.8796,0.0,0.0,-1.9345,-1.9418,-1.9971,-2.0051,-2.0281,-2.0775,-2.0925,-2.1027,-2.1064,-2.0426,-1.9872,-1.9726,-2.0191,-2.0476,-2.0039,-1.993,-1.9842,-1.9653,-1.9599,-1.9637,-2.0048,-2.0475,-2.0836,-2.0754,-2.0522,-2.0358,-2.0205,-1.9733,-1.9491,-1.9555,-1.9227,-1.8917,-1.8839,-1.8839,-1.8839,-1.8709,-1.8224,-1.781,-1.7645,-1.7423,-1.7088,-4.7606,-4.703,-4.6081,-4.4749,-4.3139,-4.1908,-4.0766,-3.9788,-3.9229,-3.8461,-3.7535,-3.6269,-3.5073,-3.4045,-3.3542,-3.3154,-3.2883,-3.2798,-3.2763,-3.2858,-3.2511,-3.2389,-3.2304,-3.1926,-3.1384,-3.0855,-3.022,-2.9593,-2.9011,-2.8876,-2.8844,-2.8952,-2.9449,-2.998,-3.0384,-2.9042,-2.8253,-2.7981,-2.5808,-2.3858,-2.2186,-2.16,-2.0887,-1.9933,-1.959,-1.9406,-1.9273,-1.9015,-1.8972,-1.9139,-1.9284,-1.9476,-1.9684,-1.9874,-2.0061,0.0,0.0,0.0,0.0,0.0,0.0,0.0,0.0,0.0,0.0,0.0,-2.0122,-1.9969,-1.9836,-1.9504,-1.8897,-1.8757,-1.8871,-1.9169,-1.9053,-1.9128,-1.9656,-1.9824,-2.001,-2.032,-2.0396,-2.0446,-2.0421,-1.9733,-1.9081,-1.8734,-1.8684,-1.8633,-1.8328,-1.81,-1.8041,-1.8225,-1.8324,-1.8715,-1.9617,-2.0001,-2.0193,-2.0282,-2.0145,-1.996,-1.9857,-1.9569,-1.9408,-1.9492,-1.9327,-1.921,-1.9158,-1.9158,-1.9158,-1.9105,-1.8815,-1.8441,-1.8139,-1.7755,-1.7368,-4.8499,-4.8197,-4.728,-4.6433,-4.5581,-4.3191,-4.2043,-4.1712,-4.0799,-3.9878,-3.8909,-3.7186,-3.624,-3.5876,-3.5804,-3.5462,-3.5013,-3.4942,-3.4691,-3.4318,-3.4042,-3.3646,-3.3229,-3.2696,-3.2196,-3.1694,-3.0784,-3.0258,-3.0162,-2.9705,-2.9765,-3.0336,-3.0749,-3.1235,-3.1623,-2.9661,-2.8425,-2.7981,-2.5804,-2.4072,-2.2873,-2.202,-2.1276,-2.063,-2.0033,-1.9846,-2.0188,-1.964,-1.9402,-1.96,-1.9689,-1.9767,-1.9957,-2.0044,-2.015,0.0,-2.088,0.0,0.0,0.0,0.0,0.0,0.0,0.0,0.0,-2.1309,-2.0893,-2.012,-1.9696,-1.9325,-1.9046,-1.8528,-1.8383,-1.8719,-1.8745,-1.8832,-1.9106,-1.9382,-1.9604,-1.9708,-1.9759,-1.9811,-1.9837,-1.9258,-1.8685,-1.8309,-1.7523,-1.7038,-1.6869,-1.6811,-1.6968,-1.7519,-1.7791,-1.8524,-1.951,-1.9806,-1.9775,-1.9916,-1.9837,-1.9643,-1.9413,-1.934,-1.9368,-1.9473,-1.9497,-1.9473,-1.9473,-1.9473,-1.9473,-1.9473,-1.9344,-1.9133,-1.8709,-1.8247,-1.7755,-4.9533,-4.8699,-4.7784,-4.7268,-4.6965,-4.5053,-4.3504,-4.2316,-4.2014,-4.1202,-3.9949,-3.8726,-3.7756,-3.6967,-3.6183,-3.5363,-3.4466,-3.4466,-3.4237,-3.3802,-3.3564,-3.3229,-3.2884,-3.2393,-3.2057,-3.1758,-3.1292,-3.1002,-3.097,-3.0402,-3.038,-3.0924,-3.0808,-3.0952,-3.1274,0.0,0.0,0.0,-2.6294,-2.4814,-2.3191,-2.2821,-2.209,-2.1021,-2.0862,0.0,-2.1269,-2.1201,-2.1133,-2.1253,-2.1341,0.0,0.0,0.0,0.0,0.0,0.0,0.0,0.0,0.0,0.0,0.0,-2.1277,-2.1246,-2.1278,-2.0827,-2.0426,-2.0115,-1.9588,-1.9147,-1.8874,-1.8266,-1.8179,-1.8835,-1.8616,-1.8652,-1.9255,-1.9399,-1.942,-1.9316,-1.942,-1.9473,-1.9344,-1.8748,-1.8205,-1.7851,-1.7097,-1.6596,-1.6596,-1.6741,-1.7035,-1.7433,-1.8101,-1.8744,-1.9119,-1.9381,-1.9589,-1.9673,-1.9753,-1.9833,-1.9861,-1.9836,-1.9836,-1.9888,-1.9888,-1.9888,-1.9888,-1.9888,-1.9888,-1.9888,-1.9759,-1.9552,-1.9028,-1.8655,-1.8278,-4.9856,-4.9232,-4.842,-4.783,0.0,-4.6394,-4.5072,-4.3493,-4.2988,-4.1978,-4.0702,-3.9646,-3.8841,-3.8169,-3.7591,-3.683,-3.5773,-3.5773,-3.5393,-3.4635,-3.4385,-3.4074,-3.371,-3.324,-3.2853,-3.2638,-3.2069,-3.1729,-3.1634,-3.0895,-3.0712,-3.1132,-3.0832,-3.0871,-3.1078,-2.9849,-2.8548,-2.7222,-2.6241,-2.5061,-2.3719,-2.3486,-2.2794,-2.1661,-2.1598,0.0,0.0,0.0,0.0,0.0,0.0,0.0,0.0,-2.1678,0.0,-2.1645,-2.1617,-2.1462,-2.137,-2.1277,-2.1119,-2.0958,-2.0827,-2.0794,-2.0827,-2.0527,-2.0185,-1.994,-1.9442,-1.8997,-1.8655,-1.8108,-1.8066,-1.8669,-1.8389,-1.8363,-1.9044,-1.921,-1.9158,-1.9105,-1.921,-1.9316,-1.9263,-1.8645,-1.8178,-1.7903,-1.7198,-1.6746,-1.6846,-1.6729,-1.6854,-1.7646,-1.8505,-1.9133,-1.9344,-1.9604,-1.9836,-1.9965,-2.0118,-2.0169,-2.0169,-2.0169,-2.0169,-2.0118,-2.0093,-2.0093,-2.0093,-2.0093,-2.0093,-2.0093,-2.0067,-1.9862,-1.9448,-1.9081,-1.8655,-5.0157,-4.9712,-4.9049,-4.8311,-4.75,-4.7353,-4.6214,-4.4455,-4.3506,0.0,0.0,-4.041,-3.9729,-3.9199,-3.9033,-3.8432,-3.7432,-3.7398,-3.6911,-3.5903,-3.5618,-3.5224,-3.484,-3.4216,-3.3797,-3.3507,-3.2914,-3.2577,-3.2482,-3.1582,-3.1277,-3.1396,-3.1073,-3.0849,-3.073,-2.9059,-2.7761,-2.7004,-2.6005,-2.5029,-2.4092,-2.3941,-2.3296,-2.2073,-2.2043,-2.1923,-2.156,-2.1528,-2.1559,-2.1587,-2.1587,-2.1556,-2.1497,-2.134,-2.1277,-2.1183,-2.1087,-2.099,-2.0828,-2.073,-2.0695,-2.0626,-2.0426,-2.0392,-2.046,-2.0289,-2.0015,-1.9726,-1.9325,-1.8912,-1.85,-1.8098,-1.8004,-1.8539,-1.8302,-1.8339,-1.8988,-1.9105,-1.9105,-1.9105,-1.9186,-1.9239,-1.9368,-1.8846,-1.8401,-1.8301,-1.7885,-1.7402,-1.7528,-1.7279,-1.7268,-1.8223,-1.9071,-1.9604,-1.9862,-2.0118,-2.0372,-2.0472,-2.0673,-2.0646,-2.0573,-2.0523,-2.0472,-2.0372,-2.0321,-2.0321,-2.0321,-2.0321,-2.0321,-2.0347,-2.0296,-2.022,-1.9914,-1.95,-1.9028,-5.0961,-4.9593,-4.9483,-4.8969,-4.8124,-4.7425,-4.6065,-4.4269,-4.3165,-4.2378,-4.1782,-4.1376,-4.0603,-3.9606,-3.9468,-3.887,-3.7921,-3.7887,-3.7665,-3.7181,-3.6449,-3.5859,-3.5431,-3.4493,-3.4,-3.3848,-3.3751,-3.3738,-3.3742,-3.329,-3.284,-3.2442,-3.1835,-3.1011,-3.0074,-2.8369,-2.7336,-2.6904,-2.5759,-2.4735,-2.3864,-2.3802,-2.3185,-2.1932,-2.1972,-2.1757,-2.1279,-2.1247,-2.1278,-2.1278,-2.1247,-2.1119,-2.0991,-2.086,-2.0793,-2.0793,-2.0662,-2.0561,-2.0494,-2.0494,-2.0392,-2.022,-2.0115,-2.0115,-2.0289,-2.0115,-1.9935,-1.9726,-1.925,-1.8798,-1.8372,-1.8316,-1.8368,-1.8524,-1.8702,-1.8958,-1.9294,-1.9316,-1.9316,-1.9316,-1.9368,-1.9368,-1.9396,-1.927,-1.9144,-1.9117,-1.8922,-1.9022,-1.9002,-1.8731,-1.8655,-1.9098,-1.9709,-2.0067,-2.022,-2.0599,-2.0822,-2.0871,-2.1118,-2.1215,-2.1068,-2.1068,-2.097,-2.0772,-2.0696,-2.0696,-2.0723,-2.0696,-2.0723,-2.0723,-2.0623,-2.0472,-2.0373,-2.0041,-1.9574,-5.1577,-5.0802,-4.9958,-4.937,-4.8893,-4.7531,-4.6348,-4.5233,-4.3719,-4.2638,-4.1874,-4.148,-4.0897,-4.0259,-4.0021,-3.9384,-3.856,-3.856,-3.8179,-3.7467,-3.7035,-3.6622,-3.6204,-3.5263,-3.4785,-3.4702,-3.4345,-3.4151,-3.4185,-3.3695,-3.3393,-3.2998,-3.1765,-3.0433,-2.9102,-2.7993,-2.6992,-2.6025,-2.5186,-2.453,-2.4058,-2.3725,-2.311,-2.2155,-2.1815,-2.1421,-2.0924,-2.0893,-2.0893,-2.0893,-2.0828,-2.0763,-2.0663,-2.0628,-2.0561,-2.0527,-2.0491,-2.0392,-2.0357,-2.0254,-2.0115,-1.994,-1.9869,-1.9869,-1.9975,-1.9869,-1.9726,-1.9508,-1.9101,-1.8825,-1.8698,-1.8503,-1.8561,-1.8939,-1.9029,-1.9083,-1.9349,-1.9473,-1.9525,-1.9525,-1.9552,-1.9604,-1.9629,-1.9552,-1.9525,-1.9552,-1.9708,-1.9862,-1.9939,-1.9965,-1.9862,-1.9914,-2.0296,-2.0573,-2.0673,-2.1095,-2.1361,-2.141,-2.165,-2.1698,-2.1554,-2.1533,-2.141,-2.1215,-2.1166,-2.1118,-2.1091,-2.1118,-2.1118,-2.1019,-2.0921,-2.0851,-2.0887,-2.0807,-2.0291,-5.2123,-5.1867,-5.0655,-4.9921,-4.9404,-4.774,-4.6731,-4.611,-4.4407,-4.3073,-4.2018,-4.1405,-4.0965,-4.0631,-4.0387,-3.9883,-3.9276,-3.9242,-3.8839,-3.8053,-3.7753,-3.7486,-3.7166,-3.627,-3.584,-3.5691,-3.5037,-3.4677,-3.4611,-3.4101,-3.3641,-3.3142,-3.1514,-2.9936,-2.8614,-2.7813,-2.6856,-2.5663,-2.4879,-2.443,-2.4204,-2.3754,-2.3117,-2.2362,-2.1873,-2.1264,-2.0559,-2.053,-2.053,-2.053,-2.053,-2.0496,-2.046,-2.046,-2.0426,-2.0392,-2.0388,-2.0354,-2.0254,-2.0076,-1.9904,-1.9797,-1.9876,-1.9929,-1.9929,-2.0049,-1.9879,-1.9413,-1.9208,-1.9148,-1.9127,-1.9049,-1.9046,-1.9442,-1.9381,-1.9334,-1.9478,-1.9604,-1.9656,-1.9656,-1.9759,-1.9811,-1.9811,-1.9759,-1.9759,-1.9965,-2.022,-2.0398,-2.0472,-2.0871,-2.097,-2.0772,-2.0921,-2.1166,-2.1215,-2.165,-2.1935,-2.1983,-2.217,-2.2217,-2.2077,-2.1983,-2.1888,-2.165,-2.1602,-2.1602,-2.1554,-2.1554,-2.1458,-2.1361,-2.1301,-2.1345,-2.1485,-2.1542,-2.1107,-5.2674,-5.205,-5.1793,-5.0872,-4.9358,-4.8207,-4.712,-4.6018,-4.4769,-4.3497,-4.2347,-4.1371,-4.0776,-4.0485,-4.0238,-4.007,-3.9952,-3.9986,-3.9834,-3.9547,-3.9009,-3.8522,-3.8202,-3.7486,-3.707,-3.687,-3.6158,-3.5794,-3.5728,-3.4937,-3.399,-3.2789,-3.1182,-3.0069,-2.9353,-2.798,-2.7052,-2.6633,-2.5288,-2.4415,-2.4055,-2.4017,-2.3417,-2.2202,-2.2186,-2.1615,-2.0412,-2.0323,-2.0354,-2.0323,-2.0323,-2.0323,-2.032,-2.0323,-2.0289,-2.032,-2.032,-2.0254,-2.015,-1.994,-1.9827,-1.9858,-2.0325,-2.0617,-2.0647,-2.1156,-2.0899,-1.9841,-1.973,-1.9764,-1.9501,-1.9921,-2.0047,-1.9786,-1.9935,-2.0016,-1.9786,-1.9811,-1.9759,-1.9811,-1.9811,-1.9862,-1.9939,-1.999,-2.0144,-2.0472,-2.0723,-2.0997,-2.1068,-2.1458,-2.1698,-2.165,-2.1698,-2.1746,-2.1793,-2.217,-2.2477,-2.2523,-2.2706,-2.2809,-2.2655,-2.2609,-2.2431,-2.2123,-2.2077,-2.2077,-2.203,-2.203,-2.1888,-2.187,-2.1876,-2.198,-2.1949,-2.2015,-2.1683,-5.3004,-5.2674,-5.2197,-5.0977,-4.9236,-4.8239,-4.7404,-4.6649,-4.5462,-4.4261,-4.3054,-4.1919,-4.1077,-4.0387,-4.0188,-4.0087,-4.0087,-4.0087,-4.0037,-3.9884,-3.9581,-3.9345,-3.909,-3.8455,-3.8037,-3.792,-3.717,-3.6521,-3.6007,-3.4972,-3.386,-3.2688,-3.1684,-3.0842,-3.0001,-2.8808,-2.789,-2.7368,-2.6321,-2.5332,-2.4371,-2.3631,-2.3009,-2.2435,-2.1749,-2.1152,-2.0576,-2.0218,-2.001,-2.001,-2.0115,-2.0185,-2.0185,-2.0289,-2.0354,-2.0354,-2.0354,-2.0508,-2.0844,-2.0624,-2.0691,-2.1054,-2.1203,-2.1306,-2.1306,-2.1545,-2.1347,-2.0803,-2.0665,-2.0674,-2.057,-2.065,-2.065,-2.0497,-2.0442,-2.0321,-2.0067,-2.0016,-2.0016,-2.0016,-2.0016,-2.0067,-2.0144,-2.0321,-2.0573,-2.0822,-2.1166,-2.1506,-2.1554,-2.1935,-2.2245,-2.2263,-2.2449,-2.2449,-2.2385,-2.2586,-2.3033,-2.3368,-2.3652,-2.3652,-2.356,-2.3514,-2.3305,-2.2626,-2.2552,-2.2505,-2.2338,-2.232,-2.2208,-2.2339,-2.2612,-2.2747,-2.2373,-2.2397,-2.2124,-5.3408,-5.3115,-5.2344,-5.1046,-4.9487,-4.8525,-4.7716,-4.7026,-4.5868,-4.4729,-4.3687,-4.2324,-4.1305,-4.0578,-4.0239,-4.0087,-4.0087,-4.0087,-4.0037,-3.9935,-3.9935,-3.9884,-3.9765,-3.9277,-3.8975,-3.8875,-3.8087,-3.7103,-3.6009,-3.4954,-3.3802,-3.2755,-3.1987,-3.131,-3.0532,-2.9546,-2.8725,-2.8011,-2.725,-2.6303,-2.5166,-2.3879,-2.3041,-2.2694,-2.1754,-2.1186,-2.0985,-2.0392,-2.0104,-2.014,-2.0172,-2.0189,-2.022,-2.0392,-2.0621,-2.0808,-2.0805,-2.105,-2.1703,-2.1473,-2.15,-2.1948,-2.1934,-2.1964,-2.1994,-2.2113,-2.2163,-2.207,-2.1875,-2.1756,-2.1453,-2.1276,-2.1164,-2.1064,-2.0822,-2.0623,-2.0321,-2.0321,-2.0321,-2.0321,-2.0321,-2.0321,-2.0422,-2.0772,-2.1068,-2.1264,-2.1698,-2.203,-2.2077,-2.2402,-2.2752,-2.2752,-2.3139,-2.333,-2.3103,-2.3343,-2.3759,-2.4217,-2.4574,-2.4621,-2.4481,-2.4481,-2.4183,-2.3467,-2.3235,-2.2896,-2.2655,-2.2562,-2.2664,-2.2889,-2.3152,-2.3206,-2.2789,-2.272,-2.2323,-5.3922,-5.3115,-5.2344,-5.1339,-5.0253,-4.924,-4.8135,-4.6926,-4.5717,-4.4803,-4.4026,-4.2449,-4.1478,-4.1068,-4.0426,-4.0087,-4.0087,-4.0087,-4.0087,-4.0087,-4.0087,-4.0087,-4.0087,-4.0054,-4.002,-3.9834,-3.8975,-3.7535,-3.564,-3.4981,-3.4123,-3.281,-3.1951,-3.1236,-3.0788,-3.0081,-2.9395,-2.8599,-2.7889,-2.7171,-2.6393,-2.5196,-2.3969,-2.2933,-2.2634,-2.2284,-2.1753,-2.1091,-2.0842,-2.1027,-2.0628,-2.0457,-2.0494,-2.0761,-2.121,-2.1782,-2.1774,-2.1949,-2.243,-2.2224,-2.2095,-2.213,-2.2486,-2.2664,-2.2694,-2.3113,-2.331,-2.339,-2.3155,-2.2703,-2.1915,-2.1868,-2.1683,-2.1286,-2.1068,-2.0871,-2.0597,-2.0623,-2.0597,-2.0649,-2.0753,-2.0983,-2.1027,-2.1313,-2.1609,-2.1848,-2.2245,-2.254,-2.2615,-2.2888,-2.3126,-2.3288,-2.382,-2.4354,-2.417,-2.4187,-2.4591,-2.5082,-2.5349,-2.5491,-2.5414,-2.526,-2.4764,-2.4329,-2.406,-2.3659,-2.3126,-2.3008,-2.3252,-2.3365,-2.3226,-2.316,-2.2883,-2.2724,-2.2273,-5.3482,-5.3151,-5.2307,-5.1376,-5.0326,-4.9349,-4.8163,-4.6916,-4.6164,-4.5207,-4.4302,-4.3443,-4.2346,-4.1204,-4.0933,-4.0527,-4.0121,-4.0087,-4.0087,-4.0087,-4.0087,-4.0087,-4.0087,-4.0087,-4.0087,-4.002,-3.9564,-3.8413,-3.6763,-3.5444,-3.4355,-3.3498,-3.2437,-3.1713,-3.1343,-3.0633,-2.9918,-2.9235,-2.8577,-2.7709,-2.6741,-2.6219,-2.5348,-2.4086,-2.3155,-2.2737,-2.2686,-2.2095,-2.1627,-2.1445,-2.1412,-2.1268,-2.0988,-2.147,-2.1888,-2.2043,-2.2283,-2.2603,-2.3117,-2.2932,-2.2958,-2.3376,-2.3496,-2.3534,-2.3553,-2.3661,-2.3696,-2.3653,-2.3509,-2.3142,-2.2834,-2.2517,-2.217,-2.1793,-2.1602,-2.141,-2.1215,-2.1118,-2.1251,-2.1703,-2.2052,-2.2423,-2.2515,-2.2572,-2.2595,-2.2828,-2.2844,-2.29,-2.3036,-2.3524,-2.3954,-2.4118,-2.4654,-2.5342,-2.5741,-2.523,-2.5277,-2.5705,-2.6001,-2.5952,-2.5904,-2.5904,-2.5541,-2.4897,-2.4674,-2.4346,-2.3769,-2.3386,-2.3661,-2.3498,-2.3363,-2.3127,-2.2834,-2.2519,-2.1901,-5.3225,-5.3115,-5.2637,-5.1595,-5.0362,-4.9604,-4.8424,-4.6987,-4.6411,-4.5591,-4.4716,-4.4163,-4.3129,-4.1982,-4.1677,-4.1305,-4.073,-4.0324,-4.0087,-4.0087,-4.0087,-4.0087,-4.0087,-4.0087,-4.0087,-4.0037,-3.9696,-3.8805,-3.7405,-3.6011,-3.4762,-3.3768,-3.2854,-3.2209,-3.1682,-3.1117,-3.0522,-2.9894,-2.9235,-2.8389,-2.742,-2.6958,-2.6451,-2.5652,-2.4572,-2.3834,-2.3661,-2.3033,-2.2674,-2.2492,-2.2452,-2.2273,-2.2053,-2.2442,-2.2762,-2.2881,-2.3016,-2.3362,-2.3834,-2.365,-2.3703,-2.4162,-2.4109,-2.4024,-2.3982,-2.394,-2.3909,-2.3824,-2.3683,-2.348,-2.3348,-2.3038,-2.2661,-2.2263,-2.2105,-2.1999,-2.1945,-2.1952,-2.2303,-2.2825,-2.3261,-2.3612,-2.3844,-2.3659,-2.368,-2.3942,-2.3821,-2.3772,-2.3922,-2.4354,-2.4848,-2.4924,-2.5431,-2.6004,-2.6296,-2.6109,-2.6079,-2.6525,-2.6494,-2.6474,-2.6394,-2.6423,-2.6197,-2.557,-2.509,-2.4841,-2.4446,-2.4013,-2.3767,-2.3559,-2.3335,-2.3085,-2.2641,-2.2087,-2.1642,-5.3225,-5.3188,-5.3188,-5.2071,-5.0508,-5.0112,-4.8892,-4.714,-4.6447,-4.5835,-4.5182,-4.4403,-4.3707,-4.322,-4.2557,-4.2252,-4.188,-4.0865,-4.029,-4.0223,-4.0087,-4.0087,-4.0087,-4.0087,-4.0087,-4.0037,-3.9487,-3.8558,-3.7426,-3.6557,-3.5388,-3.3851,-3.323,-3.2488,-3.1569,-3.148,-3.115,-3.0462,-2.9834,-2.9312,-2.8725,-2.7629,-2.7079,-2.7134,-2.6638,-2.5827,-2.4647,-2.4013,-2.3847,-2.3962,-2.3594,-2.3479,-2.3553,-2.3617,-2.3805,-2.4108,-2.4148,-2.4263,-2.4552,-2.4503,-2.4399,-2.4388,-2.4254,-2.4212,-2.4109,-2.4078,-2.4078,-2.3982,-2.3872,-2.367,-2.3656,-2.357,-2.3259,-2.2706,-2.2637,-2.2696,-2.3005,-2.3126,-2.34,-2.3963,-2.4267,-2.4283,-2.4483,-2.4632,-2.4751,-2.4966,-2.5088,-2.5082,-2.5052,-2.5371,-2.5568,-2.5734,-2.6153,-2.6662,-2.6803,-2.6881,-2.711,-2.7238,-2.7056,-2.6902,-2.6843,-2.6792,-2.6586,-2.6025,-2.5654,-2.5317,-2.4688,-2.423,-2.3834,-2.3612,-2.3348,-2.3044,-2.2714,-2.2312,-2.1841,-5.3225,-5.3225,-5.3225,-5.2108,-5.0472,-5.0185,-4.8928,-4.6987,-4.6447,-4.5905,-4.5372,-4.4883,-4.4238,-4.3491,-4.3132,-4.2807,-4.2281,-4.176,-4.1339,-4.0865,-4.0358,-4.0087,-4.0087,-4.0087,-3.9986,-3.9781,-3.9435,-3.8854,-3.7987,-3.6972,-3.5833,-3.4842,-3.36,-3.2732,-3.2168,-3.1721,-3.118,-3.0552,-3.0453,-2.9931,-2.8958,-2.8697,-2.8222,-2.7566,-2.7619,-2.7347,-2.6659,-2.5854,-2.5214,-2.4612,-2.4427,-2.4174,-2.3949,-2.4109,-2.4291,-2.4324,-2.495,-2.5246,-2.5279,-2.5567,-2.5555,-2.5234,-2.5206,-2.4958,-2.4503,-2.4472,-2.4431,-2.4326,-2.442,-2.4519,-2.4477,-2.4656,-2.4381,-2.3751,-2.3601,-2.3739,-2.4249,-2.471,-2.5027,-2.5286,-2.5609,-2.5972,-2.6068,-2.5937,-2.5716,-2.5855,-2.5734,-2.5485,-2.561,-2.6045,-2.6273,-2.6333,-2.6841,-2.7171,-2.721,-2.7119,-2.7136,-2.7255,-2.713,-2.7026,-2.7003,-2.6951,-2.6776,-2.6504,-2.6103,-2.5621,-2.4915,-2.4412,-2.4006,-2.3644,-2.3296,-2.3071,-2.2882,-2.2591,-2.2128,-5.3225,-5.3225,-5.3225,-5.2291,-5.0836,-5.033,-4.9109,-4.7461,-4.6552,-4.587,-4.5441,-4.5123,-4.4613,-4.3986,-4.3842,-4.3584,-4.3158,-4.2841,-4.2455,-4.188,-4.0933,-4.0493,-4.0426,-4.0189,-3.9986,-3.9677,-3.9468,-3.904,-3.8432,-3.747,-3.6542,-3.5546,-3.4421,-3.3394,-3.2676,-3.2108,-3.1569,-3.1084,-3.0895,-3.0516,-2.9885,-2.9592,-2.9211,-2.8638,-2.8735,-2.8608,-2.8216,-2.7697,-2.6867,-2.5811,-2.5392,-2.5034,-2.464,-2.4789,-2.489,-2.5041,-2.5399,-2.5811,-2.5963,-2.6262,-2.643,-2.6143,-2.6188,-2.6115,-2.5654,-2.556,-2.5446,-2.5319,-2.5413,-2.5438,-2.5319,-2.5408,-2.5325,-2.5077,-2.4717,-2.4846,-2.5336,-2.5979,-2.625,-2.6367,-2.663,-2.6916,-2.696,-2.6865,-2.6612,-2.6753,-2.6504,-2.6236,-2.6422,-2.6722,-2.6871,-2.6991,-2.723,-2.744,-2.753,-2.7408,-2.7233,-2.7078,-2.7003,-2.6951,-2.6846,-2.6846,-2.6759,-2.6467,-2.6115,-2.5656,-2.5024,-2.4486,-2.3989,-2.362,-2.3487,-2.3319,-2.3262,-2.2888,-2.2546,-5.3225,-5.3225,-5.3225,-5.2584,-5.1493,-5.0584,-4.9433,-4.8068,-4.687,-4.5974,-4.5441,-4.5123,-4.4797,-4.4575,-4.4451,-4.4384,-4.4418,-4.3809,-4.347,-4.3031,-4.2083,-4.1339,-4.1035,-4.0527,-4.0121,-3.9729,-3.9554,-3.9148,-3.8567,-3.8051,-3.7277,-3.6094,-3.5368,-3.4425,-3.3276,-3.2676,-3.2227,-3.1829,-3.1394,-3.1189,-3.1159,-3.0534,-3.0082,-3.0259,-2.9932,-2.9675,-2.9493,-2.9189,-2.8537,-2.7278,-2.6484,-2.6114,-2.5938,-2.5675,-2.5726,-2.5996,-2.5895,-2.6236,-2.6567,-2.6865,-2.6891,-2.6985,-2.7137,-2.7232,-2.6989,-2.6904,-2.682,-2.651,-2.651,-2.6335,-2.6138,-2.6105,-2.6206,-2.6452,-2.5961,-2.5864,-2.6258,-2.6849,-2.7056,-2.7144,-2.7233,-2.7284,-2.7386,-2.7327,-2.7348,-2.7419,-2.741,-2.735,-2.753,-2.759,-2.7649,-2.785,-2.8008,-2.8098,-2.8308,-2.8204,-2.8024,-2.7971,-2.7665,-2.7302,-2.6963,-2.6875,-2.6939,-2.6644,-2.6349,-2.58,-2.5406,-2.5052,-2.4681,-2.4494,-2.4216,-2.3891,-2.3717,-2.3471,-2.3304,-5.3225,-5.3225,-5.3225,-5.2584,-5.1639,-5.1129,-4.9892,-4.8247,-4.7435,-4.6463,-4.5545,-4.5123,-4.4865,-4.4643,-4.4553,-4.4553,-4.4485,-4.435,-4.4248,-4.4113,-4.3301,-4.2185,-4.1407,-4.1035,-4.0526,-3.9967,-3.9673,-3.9255,-3.8733,-3.823,-3.7467,-3.6656,-3.5888,-3.5034,-3.4212,-3.3216,-3.2675,-3.2432,-3.2114,-3.1726,-3.1482,-3.1581,-3.1462,-3.1214,-3.09,-3.0794,-3.0771,-2.9889,-2.8933,-2.8081,-2.7701,-2.7336,-2.7033,-2.675,-2.6556,-2.6467,-2.6803,-2.7009,-2.7302,-2.7844,-2.8104,-2.7973,-2.8169,-2.8146,-2.763,-2.7598,-2.74,-2.7169,-2.7212,-2.7226,-2.6994,-2.7091,-2.7229,-2.731,-2.7031,-2.6952,-2.713,-2.739,-2.7488,-2.7458,-2.7488,-2.7518,-2.7658,-2.7658,-2.7658,-2.7679,-2.779,-2.788,-2.8188,-2.8338,-2.8368,-2.8876,-2.9116,-2.9086,-2.9116,-2.9009,-2.8931,-2.8907,-2.8591,-2.8023,-2.7506,-2.7015,-2.7195,-2.7263,-2.7081,-2.6638,-2.6459,-2.6256,-2.5906,-2.5262,-2.4874,-2.4543,-2.4641,-2.4565,-2.4372,-5.3225,-5.3225,-5.3225,-5.2804,-5.2076,-5.152,-5.0469,-4.921,-4.8211,-4.7125,-4.6063,-4.5603,-4.5103,-4.4643,-4.4553,-4.4553,-4.4553,-4.4553,-4.4553,-4.4519,-4.4079,-4.3064,-4.1982,-4.1644,-4.1219,-4.0422,-4.0146,-3.9661,-3.9018,-3.8455,-3.7854,-3.7263,-3.6471,-3.5676,-3.488,-3.4091,-3.3457,-3.3214,-3.2898,-3.2598,-3.2509,-3.2384,-3.2297,-3.2031,-3.1769,-3.17,-3.1748,-3.1013,-3.0037,-2.8926,-2.8167,-2.7648,-2.739,-2.7051,-2.6873,-2.6809,-2.7196,-2.7457,-2.7937,-2.8545,-2.8884,-2.8914,-2.9124,-2.9101,-2.8884,-2.8721,-2.8553,-2.8275,-2.8271,-2.8015,-2.7684,-2.7678,-2.771,-2.761,-2.7829,-2.7859,-2.767,-2.756,-2.7709,-2.7889,-2.8008,-2.8128,-2.8338,-2.8449,-2.8449,-2.8509,-2.8547,-2.8727,-2.8936,-2.8996,-2.9146,-2.9564,-2.9744,-2.9594,-2.9535,-2.9426,-2.9431,-2.952,-2.9262,-2.8689,-2.837,-2.773,-2.774,-2.7923,-2.7707,-2.757,-2.7384,-2.7033,-2.6303,-2.574,-2.5396,-2.5285,-2.5418,-2.5296,-2.5126,-5.3225,-5.3225,-5.3225,-5.306,-5.2615,-5.181,-5.1045,-5.0281,-4.9164,-4.7893,-4.6823,-4.6357,-4.5648,-4.4688,-4.4823,-4.4688,-4.4587,-4.4553,-4.4688,-4.4722,-4.4621,-4.4012,-4.3031,-4.2523,-4.1963,-4.1249,-4.1023,-4.0408,-3.9653,-3.8985,-3.8408,-3.777,-3.7175,-3.6352,-3.5462,-3.4879,-3.4515,-3.4061,-3.3628,-3.3635,-3.3637,-3.3309,-3.3016,-3.2994,-3.2514,-3.2262,-3.2256,-3.2027,-3.125,-2.9583,-2.8391,-2.7902,-2.7506,-2.6954,-2.6964,-2.7257,-2.7408,-2.7748,-2.834,-2.867,-2.9106,-2.9451,-2.9761,-3.0076,-2.9956,-2.9913,-2.987,-2.9528,-2.9278,-2.9044,-2.8541,-2.8112,-2.8,-2.812,-2.8427,-2.8389,-2.8,-2.782,-2.8008,-2.8577,-2.8697,-2.9049,-2.9409,-2.9619,-2.9559,-2.9132,-2.9199,-2.9325,-2.9505,-2.9654,-2.9804,-3.0073,-3.0073,-2.9924,-2.9869,-2.9869,-2.9873,-2.9907,-2.9703,-2.9385,-2.9474,-2.9009,-2.8752,-2.8615,-2.8539,-2.8339,-2.8005,-2.7448,-2.6854,-2.644,-2.6165,-2.6072,-2.6034,-2.5802,-2.5578,-5.3225,-5.3225,-5.3225,-5.306,-5.2761,-5.2318,-5.1513,-5.0495,-4.9764,-4.866,-4.7617,-4.709,-4.6397,-4.5466,-4.5432,-4.5162,-4.4756,-4.4756,-4.4857,-4.5432,-4.5466,-4.5365,-4.4654,-4.3842,-4.2828,-4.2112,-4.1923,-4.1305,-4.0446,-3.9764,-3.9032,-3.804,-3.7417,-3.6722,-3.6013,-3.5307,-3.4941,-3.4699,-3.4271,-3.4287,-3.4509,-3.4242,-3.3974,-3.411,-3.3369,-3.2579,-3.206,-3.1821,-3.1422,-3.0814,-3.0067,-2.9169,-2.8467,-2.8092,-2.7898,-2.7875,-2.7984,-2.8143,-2.8332,-2.8809,-2.9137,-2.963,-3.0008,-3.0076,-3.0238,-3.0718,-3.077,-3.0583,-3.0593,-3.0217,-2.9541,-2.9328,-2.9079,-2.9079,-2.9282,-2.9455,-2.9358,-2.9192,-2.9169,-2.9349,-2.9462,-2.9629,-2.981,-2.9931,-2.99,-2.9756,-2.9823,-2.9918,-3.0073,-3.0313,-3.0462,-3.0642,-3.0702,-3.0642,-3.0612,-3.0556,-3.0556,-3.047,-3.0264,-3.0175,-3.0208,-3.0089,-2.9655,-2.9545,-2.9493,-2.9142,-2.8685,-2.8318,-2.7793,-2.7407,-2.6915,-2.6756,-2.654,-2.6263,-2.6177,-5.3225,-5.3225,-5.3225,-5.306,-5.2761,-5.2499,-5.1874,-5.1066,-5.047,-4.9463,-4.8377,-4.7877,-4.718,-4.6244,-4.621,-4.5974,-4.5703,-4.5635,-4.5838,-4.6177,-4.621,-4.621,-4.6143,-4.5331,-4.435,-4.3098,-4.2665,-4.2097,-4.1255,-4.0403,-3.956,-3.8599,-3.7785,-3.6937,-3.6414,-3.5734,-3.5488,-3.5398,-3.4912,-3.4877,-3.5167,-3.4892,-3.477,-3.4872,-3.4388,-3.3738,-3.3163,-3.2914,-3.2297,-3.1608,-3.1068,-3.0417,-2.9558,-2.9184,-2.893,-2.8828,-2.8828,-2.9032,-2.9235,-2.9552,-3.0021,-3.0384,-3.0739,-3.0965,-3.1165,-3.1569,-3.1518,-3.1291,-3.1133,-3.0842,-3.0099,-2.9726,-2.9648,-2.9732,-3.0081,-3.031,-3.0334,-3.0068,-2.9931,-3.0142,-3.0371,-3.0552,-3.0643,-3.0667,-3.0764,-3.0915,-3.0865,-3.0874,-3.0934,-3.1087,-3.1091,-3.1183,-3.136,-3.139,-3.139,-3.1302,-3.1213,-3.1153,-3.1034,-3.0947,-3.1006,-3.0827,-3.0532,-3.0336,-3.0192,-2.9834,-2.9369,-2.8994,-2.8471,-2.7855,-2.7374,-2.7242,-2.7151,-2.7072,-2.7105,-5.3225,-5.3225,-5.3225,-5.306,-5.2761,-5.2536,-5.2126,-5.1672,-5.1105,-5.011,-4.9158,-4.8747,-4.808,-4.7267,-4.7073,-4.698,-4.6811,-4.6718,-4.6684,-4.698,-4.7014,-4.7073,-4.7005,-4.6767,-4.5987,-4.4079,-4.3765,-4.316,-4.2066,-4.1067,-4.0328,-3.9541,-3.8253,-3.7371,-3.6723,-3.6194,-3.5882,-3.5761,-3.5459,-3.537,-3.5612,-3.5323,-3.5123,-3.4955,-3.4917,-3.4603,-3.4132,-3.3897,-3.3419,-3.2114,-3.1828,-3.1382,-3.0785,-3.0084,-2.9756,-2.9696,-2.9659,-2.9675,-2.9824,-3.033,-3.0817,-3.1469,-3.1726,-3.1931,-3.2039,-3.2183,-3.2125,-3.1935,-3.167,-3.1218,-3.0403,-3.0262,-3.0177,-3.0262,-3.0709,-3.1141,-3.1189,-3.0815,-3.0937,-3.1104,-3.1311,-3.1488,-3.1652,-3.1744,-3.1901,-3.2027,-3.1913,-3.1829,-3.1802,-3.1685,-3.1539,-3.1422,-3.1452,-3.1482,-3.1482,-3.1482,-3.1482,-3.1452,-3.1392,-3.1422,-3.1482,-3.1273,-3.0949,-3.0954,-3.0719,-3.0297,-2.9808,-2.9212,-2.8692,-2.8093,-2.7821,-2.7695,-2.7774,-2.794,-2.7921,-5.3225,-5.3225,-5.3225,-5.306,-5.2761,-5.2499,-5.2209,-5.1808,-5.1298,-5.0749,-5.0133,-4.9792,-4.9056,-4.8343,-4.8148,-4.7749,-4.7325,-4.7174,-4.7344,-4.7835,-4.7903,-4.7997,-4.8114,-4.8114,-4.7442,-4.6486,-4.5659,-4.4508,-4.3126,-4.2285,-4.1329,-4.0254,-3.8982,-3.8058,-3.7312,-3.6499,-3.6064,-3.5937,-3.5695,-3.5763,-3.586,-3.5584,-3.5091,-3.484,-3.4868,-3.4623,-3.45,-3.4232,-3.4023,-3.375,-3.3484,-3.2912,-3.2125,-3.0774,-3.0087,-2.9883,-2.9967,-3.0051,-3.0182,-3.0379,-3.0649,-3.0942,-3.1547,-3.1839,-3.2079,-3.2498,-3.2692,-3.2506,-3.2311,-3.1982,-3.1718,-3.1313,-3.1377,-3.155,-3.1805,-3.2118,-3.2198,-3.2362,-3.2377,-3.2437,-3.2407,-3.2252,-3.2296,-3.2369,-3.2492,-3.2501,-3.2421,-3.2394,-3.2337,-3.2043,-3.1777,-3.1629,-3.1452,-3.1482,-3.1482,-3.1482,-3.1482,-3.1482,-3.1452,-3.1452,-3.1482,-3.1482,-3.1424,-3.1249,-3.0955,-3.0507,-3.0021,-2.9429,-2.9039,-2.8599,-2.8323,-2.8151,-2.8303,-2.8492,-2.8371,-5.3225,-5.3225,-5.3225,-5.306,-5.2806,-5.259,-5.2304,-5.1858,-5.1454,-5.0999,-5.0564,-5.025,-4.9827,-4.9286,-4.9159,-4.886,-4.8446,-4.8294,-4.8498,-4.889,-4.8924,-4.8983,-4.9159,-4.9159,-4.862,-4.7923,-4.7295,-4.6031,-4.4222,-4.3074,-4.2202,-4.1146,-3.9866,-3.8935,-3.8151,-3.7241,-3.6679,-3.6364,-3.5963,-3.5846,-3.61,-3.5734,-3.5399,-3.5278,-3.5187,-3.5003,-3.4698,-3.4607,-3.4364,-3.397,-3.3759,-3.3487,-3.2946,-3.2315,-3.1327,-3.0818,-3.0668,-3.0724,-3.0835,-3.1134,-3.1543,-3.1852,-3.2215,-3.2602,-3.2866,-3.3223,-3.3315,-3.3022,-3.256,-3.2302,-3.1992,-3.1944,-3.1826,-3.2,-3.2497,-3.2962,-3.3308,-3.3779,-3.3841,-3.3692,-3.3256,-3.2897,-3.2554,-3.2715,-3.2931,-3.2946,-3.2932,-3.2904,-3.2877,-3.27,-3.2404,-3.2163,-3.2073,-3.1717,-3.1687,-3.1569,-3.1539,-3.1482,-3.1482,-3.1482,-3.1571,-3.1601,-3.1541,-3.1424,-3.1073,-3.0921,-3.0315,-2.9778,-2.9443,-2.9255,-2.9188,-2.9184,-2.9061,-2.8997,-2.8973,-5.3225,-5.3225,-5.3225,-5.306,-5.285,-5.2635,-5.2397,-5.2005,-5.1672,-5.1263,-5.0803,-5.062,-5.0397,-5.0137,-5.0022,-4.9873,-4.9825,-4.958,-4.9605,-4.9722,-4.978,-4.9907,-5.0022,-4.9988,-4.9677,-4.9022,-4.8541,-4.7476,-4.5336,-4.4023,-4.298,-4.1917,-4.0849,-3.9942,-3.9186,-3.8175,-3.7606,-3.704,-3.639,-3.6027,-3.5876,-3.594,-3.594,-3.591,-3.591,-3.5607,-3.512,-3.5059,-3.4785,-3.4422,-3.4149,-3.3967,-3.3785,-3.3694,-3.3125,-3.2168,-3.1958,-3.1987,-3.2103,-3.2334,-3.2645,-3.3005,-3.3419,-3.3794,-3.409,-3.4174,-3.4122,-3.3719,-3.3263,-3.288,-3.2719,-3.2425,-3.2425,-3.2631,-3.3284,-3.3903,-3.4135,-3.4547,-3.4935,-3.4652,-3.4053,-3.3709,-3.3494,-3.3501,-3.381,-3.3644,-3.3628,-3.363,-3.3602,-3.3724,-3.3454,-3.3089,-3.2758,-3.2191,-3.1895,-3.1687,-3.1627,-3.1482,-3.1541,-3.1629,-3.1691,-3.178,-3.181,-3.1959,-3.1901,-3.1716,-3.0927,-3.039,-3.0377,-3.0365,-3.0281,-3.0105,-2.9947,-2.9905,-2.9782,-5.3225,-5.3225,-5.3225,-5.3103,-5.2937,-5.268,-5.2536,-5.234,-5.1907,-5.1571,-5.1367,-5.1141,-5.0927,-5.0729,-5.0453,-5.0341,-5.0228,-5.0057,-5.0057,-5.0285,-5.0341,-5.0509,-5.064,-5.0694,-5.0495,-4.9994,-4.9378,-4.7694,-4.6167,-4.5244,-4.4178,-4.301,-4.1902,-4.0895,-4.0163,-3.9181,-3.8481,-3.7999,-3.7122,-3.6255,-3.5799,-3.5739,-3.5704,-3.5679,-3.5679,-3.5619,-3.5439,-3.5379,-3.5224,-3.5224,-3.5224,-3.4921,-3.4502,-3.4352,-3.3993,-3.3484,-3.3275,-3.3245,-3.3216,-3.3276,-3.3484,-3.3833,-3.4302,-3.4767,-3.4999,-3.5131,-3.5163,-3.5197,-3.4654,-3.4072,-3.3689,-3.3783,-3.3815,-3.3903,-3.4168,-3.4523,-3.4847,-3.5394,-3.5754,-3.5691,-3.5106,-3.4955,-3.4727,-3.4727,-3.467,-3.4469,-3.4296,-3.4419,-3.439,-3.4513,-3.4542,-3.4173,-3.3597,-3.3026,-3.273,-3.243,-3.2193,-3.1897,-3.1869,-3.1958,-3.2168,-3.2437,-3.2706,-3.2796,-3.2763,-3.2579,-3.2028,-3.1632,-3.1499,-3.135,-3.1108,-3.0937,-3.0865,-3.0722,-3.0596,-5.3225,-5.3225,-5.3225,-5.3103,-5.298,-5.2893,-5.2672,-5.248,-5.2246,-5.2005,-5.1758,-5.1607,-5.1454,-5.1263,-5.0964,-5.0857,-5.0803,-5.053,-5.0585,-5.0803,-5.0857,-5.1017,-5.1211,-5.1211,-5.1052,-5.0768,-5.0195,-4.9305,-4.7683,-4.6133,-4.4942,-4.4131,-4.2986,-4.204,-4.1246,-4.0193,-3.9455,-3.8811,-3.7886,-3.7074,-3.67,-3.6543,-3.6394,-3.6105,-3.6064,-3.5878,-3.5609,-3.5489,-3.5489,-3.5489,-3.5489,-3.54,-3.513,-3.504,-3.4891,-3.4741,-3.4622,-3.4262,-3.3634,-3.3728,-3.391,-3.4239,-3.4593,-3.4961,-3.5419,-3.5705,-3.5705,-3.5475,-3.508,-3.4709,-3.4329,-3.4149,-3.403,-3.4241,-3.4876,-3.5146,-3.5478,-3.606,-3.6428,-3.6334,-3.6209,-3.5935,-3.5661,-3.5478,-3.5357,-3.5239,-3.5396,-3.5734,-3.5641,-3.5608,-3.5484,-3.5267,-3.4654,-3.3897,-3.3691,-3.3452,-3.3304,-3.3064,-3.2976,-3.3066,-3.2946,-3.3185,-3.3395,-3.3513,-3.3508,-3.3291,-3.3015,-3.2645,-3.2358,-3.2096,-3.1858,-3.1685,-3.1516,-3.132,-3.1123,-5.3225,-5.3225,-5.3225,-5.3146,-5.306,-5.298,-5.2886,-5.2663,-5.2526,-5.2304,-5.2114,-5.2018,-5.1969,-5.1822,-5.1586,-5.1434,-5.1383,-5.1123,-5.1228,-5.1331,-5.1434,-5.1586,-5.1722,-5.1722,-5.1571,-5.1331,-5.0929,-5.022,-4.9063,-4.7569,-4.622,-4.5377,-4.4103,-4.3255,-4.243,-4.1373,-4.041,-3.9339,-3.85,-3.7835,-3.7459,-3.7323,-3.7091,-3.682,-3.667,-3.6417,-3.5878,-3.5789,-3.5789,-3.5489,-3.5489,-3.5459,-3.54,-3.54,-3.537,-3.531,-3.528,-3.4981,-3.4412,-3.4267,-3.4364,-3.4637,-3.5087,-3.5743,-3.6253,-3.6238,-3.6238,-3.626,-3.5828,-3.5357,-3.4908,-3.4729,-3.4699,-3.4942,-3.5309,-3.5614,-3.5919,-3.638,-3.6747,-3.6685,-3.6622,-3.6658,-3.635,-3.6104,-3.6042,-3.6042,-3.6381,-3.6845,-3.681,-3.6585,-3.655,-3.633,-3.5743,-3.5043,-3.4747,-3.457,-3.4392,-3.4151,-3.4061,-3.4,-3.3878,-3.3845,-3.3995,-3.4143,-3.4226,-3.4248,-3.4056,-3.3587,-3.3168,-3.293,-3.2681,-3.2396,-3.2128,-3.1909,-3.169,-5.3225,-5.3225,-5.3225,-5.3225,-5.3146,-5.3023,-5.298,-5.293,-5.268,-5.2627,-5.2499,-5.2408,-5.2315,-5.2268,-5.2114,-5.2018,-5.2018,-5.1722,-5.1772,-5.192,-5.2054,-5.2066,-5.215,-5.2114,-5.1969,-5.1622,-5.128,-5.0875,-5.025,-4.8907,-4.7578,-4.6439,-4.5263,-4.4476,-4.352,-4.2302,-4.0984,-3.9941,-3.9123,-3.8508,-3.8008,-3.7653,-3.7464,-3.7375,-3.7285,-3.7045,-3.6447,-3.6417,-3.6237,-3.5759,-3.5669,-3.5639,-3.5699,-3.5549,-3.5519,-3.5489,-3.5489,-3.531,-3.507,-3.5105,-3.5507,-3.5917,-3.6353,-3.6742,-3.7176,-3.7313,-3.7408,-3.7245,-3.6735,-3.6442,-3.623,-3.6105,-3.555,-3.5488,-3.5613,-3.5891,-3.6168,-3.6445,-3.6723,-3.6907,-3.6877,-3.6723,-3.6785,-3.6537,-3.6504,-3.6473,-3.6864,-3.7389,-3.7626,-3.7488,-3.7552,-3.7361,-3.6774,-3.6285,-3.59,-3.5661,-3.5419,-3.506,-3.488,-3.4759,-3.4634,-3.4693,-3.4658,-3.4865,-3.504,-3.5121,-3.508,-3.4471,-3.3946,-3.3779,-3.3479,-3.3129,-3.2775,-3.2489,-3.2273,-5.3225,-5.3225,-5.3225,-5.3225,-5.3225,-5.3146,-5.3066,-5.298,-5.2893,-5.2806,-5.2717,-5.2635,-5.2672,-5.2627,-5.2499,-5.2361,-5.2397,-5.2257,-5.2257,-5.2293,-5.234,-5.2387,-5.2387,-5.2246,-5.2054,-5.1808,-5.1418,-5.1017,-5.0515,-4.9642,-4.9193,-4.8014,-4.6562,-4.5275,-4.4224,-4.2944,-4.1559,-4.0676,-3.9971,-3.9404,-3.9083,-3.8702,-3.8422,-3.8042,-3.8003,-3.7674,-3.7165,-3.7075,-3.6896,-3.6626,-3.6297,-3.6178,-3.5998,-3.5789,-3.5579,-3.5549,-3.5549,-3.5489,-3.5489,-3.5554,-3.5748,-3.6289,-3.6723,-3.7181,-3.7658,-3.7658,-3.7658,-3.7567,-3.7361,-3.6907,-3.6538,-3.6196,-3.5852,-3.5785,-3.5879,-3.607,-3.6289,-3.6476,-3.6631,-3.6693,-3.66,-3.6445,-3.6662,-3.6785,-3.6876,-3.6966,-3.7417,-3.786,-3.8059,-3.823,-3.823,-3.823,-3.7729,-3.7374,-3.708,-3.6748,-3.6474,-3.6091,-3.5703,-3.5554,-3.5491,-3.5329,-3.5353,-3.5559,-3.5554,-3.5365,-3.5234,-3.5067,-3.4735,-3.4332,-3.4128,-3.3922,-3.3479,-3.3058,-3.2917,-5.3225,-5.3225,-5.3225,-5.3225,-5.3225,-5.3225,-5.3182,-5.306,-5.306,-5.3017,-5.293,-5.2893,-5.2893,-5.285,-5.2806,-5.268,-5.259,-5.2536,-5.249,-5.2526,-5.248,-5.248,-5.2387,-5.2246,-5.2005,-5.1808,-5.1418,-5.0964,-5.0585,-5.008,-4.9571,-4.8907,-4.7943,-4.6614,-4.5197,-4.3363,-4.2071,-4.1386,-4.0715,-4.0191,-3.9869,-3.9523,-3.9272,-3.8762,-3.8691,-3.8332,-3.7913,-3.7674,-3.7524,-3.7255,-3.6985,-3.6806,-3.6537,-3.6237,-3.5878,-3.5759,-3.5609,-3.5519,-3.5489,-3.5683,-3.5876,-3.6414,-3.6816,-3.7181,-3.7539,-3.7658,-3.7599,-3.7508,-3.721,-3.6907,-3.6414,-3.61,-3.5846,-3.5718,-3.5752,-3.5879,-3.6037,-3.6226,-3.6352,-3.6476,-3.6445,-3.6569,-3.6937,-3.721,-3.7476,-3.7653,-3.7943,-3.8343,-3.8711,-3.8788,-3.8788,-3.8733,-3.8613,-3.839,-3.8197,-3.7826,-3.7463,-3.7033,-3.6679,-3.6474,-3.6384,-3.6133,-3.5752,-3.5688,-3.5589,-3.5489,-3.5359,-3.5228,-3.503,-3.4802,-3.4534,-3.4332,-3.4196,-3.3785,-3.3687,-5.3225,-5.3225,-5.3225,-5.3225,-5.3225,-5.3225,-5.3225,-5.3146,-5.3146,-5.3146,-5.3182,-5.3146,-5.3146,-5.3103,-5.3017,-5.2893,-5.2761,-5.2672,-5.2581,-5.2536,-5.248,-5.248,-5.234,-5.215,-5.1772,-5.1622,-5.1175,-5.0803,-5.053,-4.9999,-4.9649,-4.9411,-4.8707,-4.7934,-4.6928,-4.469,-4.3008,-4.1944,-4.1216,-4.067,-4.0191,-3.9839,-3.9535,-3.9331,-3.92,-3.8871,-3.8542,-3.8392,-3.8182,-3.7823,-3.7554,-3.7404,-3.7315,-3.6776,-3.6507,-3.6447,-3.5878,-3.5609,-3.5519,-3.5812,-3.6163,-3.6476,-3.6877,-3.7181,-3.7421,-3.7539,-3.7449,-3.7329,-3.6968,-3.6631,-3.6258,-3.5973,-3.5718,-3.5653,-3.5688,-3.5816,-3.5943,-3.61,-3.6289,-3.6507,-3.6662,-3.6846,-3.7238,-3.7653,-3.8001,-3.8286,-3.8567,-3.8876,-3.9202,-3.9255,-3.9169,-3.9255,-3.9202,-3.8985,-3.8733,-3.8678,-3.839,-3.8059,-3.7653,-3.7298,-3.6937,-3.6569,-3.6258,-3.5879,-3.5688,-3.5653,-3.5554,-3.5489,-3.5228,-3.503,-3.4898,-3.4698,-3.4631,-3.4496,-3.4332,-5.3225,-5.3225,-5.3225,-5.3225,-5.3225,-5.3225,-5.3225,-5.3225,-5.3225,-5.3225,-5.3225,-5.3225,-5.3225,-5.3146,-5.306,-5.2937,-5.2893,-5.268,-5.259,-5.2526,-5.234,-5.2198,-5.2054,-5.1722,-5.1434,-5.1175,-5.0803,-5.0418,-5.008,-4.9708,-4.9471,-4.929,-4.9012,-4.827,-4.7095,-4.5405,-4.414,-4.2908,-4.205,-4.1279,-4.0462,-3.998,-3.9727,-3.9655,-3.9481,-3.926,-3.902,-3.899,-3.8811,-3.8542,-3.8302,-3.8063,-3.7943,-3.7464,-3.7105,-3.6985,-3.6507,-3.5974,-3.5899,-3.6037,-3.6414,-3.6693,-3.6968,-3.7241,-3.7449,-3.748,-3.7389,-3.7241,-3.6969,-3.6631,-3.6196,-3.591,-3.5718,-3.5718,-3.5752,-3.5879,-3.6006,-3.6133,-3.6321,-3.66,-3.6845,-3.7358,-3.7828,-3.823,-3.8567,-3.8788,-3.9094,-3.9309,-3.9573,-3.9573,-3.9573,-3.9625,-3.9573,-3.9415,-3.9309,-3.9148,-3.8931,-3.8567,-3.823,-3.7886,-3.7476,-3.7058,-3.6631,-3.6321,-3.607,-3.5846,-3.5718,-3.5554,-3.5489,-3.5294,-3.5185,-3.509,-3.4964,-3.4868,-3.4735,-5.3225,-5.3225,-5.3225,-5.3225,-5.3225,-5.3225,-5.3225,-5.3225,-5.3225,-5.3225,-5.3225,-5.3225,-5.3182,-5.3103,-5.306,-5.2886,-5.2842,-5.259,-5.2397,-5.2246,-5.192,-5.1772,-5.1485,-5.1175,-5.091,-5.0694,-5.0363,-5.0057,-4.9884,-4.953,-4.929,-4.9107,-4.8923,-4.8534,-4.7554,-4.648,-4.5179,-4.4041,-4.3218,-4.2291,-4.1403,-4.0668,-4.0152,-3.9858,-3.9553,-3.9451,-3.9409,-3.9439,-3.9409,-3.926,-3.905,-3.8721,-3.8542,-3.8182,-3.7793,-3.7554,-3.7278,-3.6869,-3.6953,-3.7182,-3.7654,-3.7934,-3.7616,-3.7421,-3.7567,-3.7599,-3.7449,-3.7241,-3.7125,-3.6909,-3.6626,-3.6307,-3.6455,-3.6421,-3.658,-3.6804,-3.6846,-3.6939,-3.6971,-3.7246,-3.7326,-3.7854,-3.8399,-3.8788,-3.9202,-3.9362,-3.9573,-3.9729,-3.9833,-3.9833,-3.9833,-3.9833,-3.9866,-3.9763,-3.9606,-3.952,-3.9309,-3.9094,-3.8832,-3.8626,-3.8001,-3.7594,-3.7178,-3.6785,-3.6507,-3.6224,-3.5846,-3.5653,-3.5644,-3.5699,-3.5687,-3.5532,-3.5323,-3.5317,-3.5274,-5.3225,-5.3225,-5.3225,-5.3225,-5.3225,-5.3225,-5.3225,-5.3225,-5.3225,-5.3225,-5.3182,-5.3146,-5.3103,-5.298,-5.2937,-5.2798,-5.248,-5.2268,-5.2174,-5.1844,-5.1489,-5.1298,-5.1088,-5.071,-5.0453,-5.0228,-4.9999,-4.9708,-4.9649,-4.935,-4.9107,-4.908,-4.9018,-4.8697,-4.8178,-4.7525,-4.6255,-4.5245,-4.4391,-4.34,-4.241,-4.1767,-4.1127,-4.0527,-4.007,-3.9866,-3.9661,-3.9571,-3.9439,-3.9451,-3.9421,-3.9379,-3.92,-3.8781,-3.8582,-3.8301,-3.7903,-3.8055,-3.82,-3.8461,-3.8968,-3.9089,-3.8451,-3.8003,-3.8057,-3.8248,-3.8166,-3.7928,-3.781,-3.759,-3.7364,-3.7602,-3.7872,-3.7938,-3.8034,-3.8145,-3.8122,-3.812,-3.8112,-3.8098,-3.804,-3.8343,-3.8898,-3.9309,-3.9606,-3.9677,-3.9781,-3.9833,-3.9935,-3.9986,-3.9986,-3.9986,-3.9986,-4.0002,-3.9933,-4.0083,-4.0247,-4.0113,-3.9797,-3.9467,-3.878,-3.8348,-3.8166,-3.7867,-3.7187,-3.6722,-3.6615,-3.623,-3.6014,-3.6034,-3.6231,-3.6052,-3.5932,-3.5962,-3.6015,-5.3225,-5.3225,-5.3225,-5.3225,-5.3225,-5.3225,-5.3225,-5.3225,-5.3225,-5.3146,-5.306,-5.306,-5.2893,-5.2725,-5.2627,-5.248,-5.2198,-5.1943,-5.205,-5.1776,-5.1314,-5.122,-5.0906,-5.0553,-5.008,-4.9801,-4.9624,-4.9419,-4.929,-4.9107,-4.9046,-4.9018,-4.9018,-4.8894,-4.8702,-4.8409,-4.7364,-4.6421,-4.5633,-4.4577,-4.3617,-4.2903,-4.2231,-4.1659,-4.083,-4.0523,-4.0359,-3.9926,-3.9805,-3.9715,-3.9828,-3.9869,-3.9809,-3.9627,-3.9446,-3.8879,-3.8849,-3.9,-3.8862,-3.9251,-3.9847,-4.0312,-3.9946,-3.9876,-3.9747,-3.9564,-3.9294,-3.8959,-3.881,-3.8685,-3.8521,-3.867,-3.8982,-3.9175,-3.9305,-3.9344,-3.9313,-3.9431,-3.9386,-3.9192,-3.9121,-3.9095,-3.9581,-3.9573,-3.9781,-3.9935,-4.0071,-4.0138,-4.0071,-4.0155,-4.0257,-4.0257,-4.0324,-4.0357,-4.0713,-4.0897,-4.1096,-4.1225,-4.0788,-4.0481,-4.0245,-3.9877,-3.9505,-3.8928,-3.8215,-3.7805,-3.7527,-3.7147,-3.6778,-3.688,-3.7045,-3.6716,-3.6507,-3.6537,-3.6716,-5.3225,-5.3225,-5.3225,-5.3225,-5.3225,-5.3146,-5.3103,-5.3103,-5.3103,-5.298,-5.285,-5.285,-5.2672,-5.2444,-5.234,-5.2294,-5.2222,-5.2038,-5.2095,-5.2116,-5.1442,-5.1512,-5.1242,-5.0867,-5.0412,-5.0025,-4.9664,-4.9447,-4.9209,-4.9046,-4.9018,-4.9018,-4.9018,-4.8956,-4.8861,-4.8702,-4.8346,-4.76,-4.675,-4.5759,-4.4825,-4.4053,-4.3537,-4.286,-4.1893,-4.1553,-4.1316,-4.0861,-4.077,-4.077,-4.0913,-4.0903,-4.0649,-4.0375,-4.02,-3.9818,-4.0003,-4.008,-4.019,-4.0547,-4.0956,-4.1355,-4.1624,-4.1835,-4.1416,-4.101,-4.0393,-3.987,-3.9942,-3.9945,-3.9785,-3.9685,-4.0004,-4.0323,-4.0388,-4.0515,-4.0635,-4.0813,-4.0684,-4.0475,-4.0348,-4.0154,-4.0132,-4.0086,-4.0054,-4.0138,-4.0392,-4.0663,-4.0493,-4.0257,-4.0493,-4.0663,-4.073,-4.0832,-4.1238,-4.1644,-4.1861,-4.1923,-4.1661,-4.1421,-4.1498,-4.1124,-4.0495,-3.9898,-3.9251,-3.8867,-3.8407,-3.805,-3.7698,-3.7767,-3.7773,-3.7614,-3.7345,-3.7165,-3.7375,-5.3225,-5.3225,-5.3225,-5.3225,-5.3146,-5.306,-5.298,-5.2937,-5.2974,-5.2806,-5.259,-5.2545,-5.2351,-5.2054,-5.2099,-5.2157,-5.2183,-5.2126,-5.2319,-5.2577,-5.2002,-5.1863,-5.1816,-5.1532,-5.089,-5.0493,-5.0091,-4.9622,-4.9154,-4.9018,-4.9018,-4.9018,-4.9018,-4.9018,-4.8956,-4.8894,-4.8668,-4.8413,-4.7768,-4.7012,-4.605,-4.5245,-4.4605,-4.3702,-4.3055,-4.2633,-4.2456,-4.2352,-4.2352,-4.2395,-4.2417,-4.2252,-4.1789,-4.1357,-4.1086,-4.1013,-4.1158,-4.1393,-4.1625,-4.2078,-4.2619,-4.3088,-4.3487,-4.3535,-4.3079,-4.2216,-4.1559,-4.1193,-4.1238,-4.1117,-4.0928,-4.1023,-4.1279,-4.1533,-4.1691,-4.1811,-4.2015,-4.2026,-4.1799,-4.1521,-4.1188,-4.1057,-4.1028,-4.1017,-4.0949,-4.0696,-4.0798,-4.1204,-4.117,-4.0798,-4.0967,-4.1271,-4.1305,-4.1508,-4.2083,-4.2422,-4.2489,-4.2537,-4.2463,-4.2488,-4.2545,-4.2005,-4.1362,-4.0938,-4.0547,-3.9785,-3.9203,-3.8934,-3.8689,-3.8379,-3.8382,-3.8492,-3.8302,-3.8063,-3.8123,-5.3225,-5.3225,-5.3225,-5.3225,-5.3146,-5.3023,-5.2893,-5.268,-5.2663,-5.249,-5.2315,-5.2173,-5.1884,-5.1521,-5.2038,-5.2147,-5.1864,-5.23,-5.2631,-5.2605,-5.2261,-5.2306,-5.2217,-5.1851,-5.1282,-5.0909,-5.0371,-4.9763,-4.9255,-4.9086,-4.9018,-4.9018,-4.9018,-4.9018,-4.9018,-4.8956,-4.8894,-4.8832,-4.8547,-4.8032,-4.7176,-4.6568,-4.5885,-4.5246,-4.4629,-4.3925,-4.3625,-4.3283,-4.3127,-4.3043,-4.3325,-4.327,-4.3183,-4.3025,-4.2679,-4.237,-4.2449,-4.2648,-4.3008,-4.3428,-4.394,-4.4512,-4.4787,-4.4797,-4.4364,-4.3462,-4.2861,-4.2654,-4.2472,-4.2291,-4.2201,-4.233,-4.2459,-4.2648,-4.2867,-4.307,-4.3264,-4.3074,-4.2846,-4.2523,-4.2186,-4.2025,-4.1963,-4.188,-4.1813,-4.1813,-4.1847,-4.2049,-4.2083,-4.1914,-4.1982,-4.2185,-4.2049,-4.2286,-4.2861,-4.32,-4.3267,-4.3538,-4.3597,-4.362,-4.3597,-4.3032,-4.2426,-4.2248,-4.182,-4.0959,-4.0344,-4.022,-3.9841,-3.9243,-3.9083,-3.9253,-3.9451,-3.926,-3.926,-5.2894,-5.3188,-5.3225,-5.3225,-5.3146,-5.3017,-5.2806,-5.2545,-5.234,-5.2066,-5.1835,-5.1772,-5.1521,-5.107,-5.17,-5.2053,-5.181,-5.2451,-5.2929,-5.2955,-5.2827,-5.2867,-5.2634,-5.2399,-5.2029,-5.1623,-5.0574,-4.983,-4.9458,-4.912,-4.9018,-4.9018,-4.9018,-4.9018,-4.9018,-4.9018,-4.8956,-4.8894,-4.8832,-4.858,-4.8098,-4.7471,-4.6929,-4.6389,-4.584,-4.5199,-4.5065,-4.4749,-4.4685,-4.4503,-4.4718,-4.4665,-4.4505,-4.4285,-4.3997,-4.3808,-4.3812,-4.3976,-4.4237,-4.456,-4.5041,-4.552,-4.5796,-4.5644,-4.5596,-4.4749,-4.3872,-4.3628,-4.3277,-4.307,-4.2949,-4.3047,-4.3141,-4.3262,-4.3416,-4.3529,-4.3756,-4.382,-4.3732,-4.371,-4.3259,-4.2787,-4.2658,-4.2252,-4.2185,-4.2219,-4.2388,-4.276,-4.2828,-4.2929,-4.3031,-4.3064,-4.2929,-4.3166,-4.3741,-4.3978,-4.4045,-4.4294,-4.4497,-4.4249,-4.399,-4.3814,-4.3535,-4.308,-4.2553,-4.2078,-4.1591,-4.1148,-4.0539,-3.9847,-3.9869,-4.0046,-4.0244,-4.0337,-4.0367,-5.2307,-5.3004,-5.3151,-5.3225,-5.3146,-5.293,-5.2717,-5.2499,-5.2114,-5.1622,-5.128,-5.1315,-5.0999,-5.0864,-5.128,-5.1622,-5.2104,-5.2769,-5.3301,-5.3545,-5.3515,-5.3347,-5.3314,-5.3315,-5.2773,-5.2063,-5.1116,-5.0439,-4.9932,-4.956,-4.9255,-4.9086,-4.9018,-4.9018,-4.9018,-4.9018,-4.9018,-4.8956,-4.8894,-4.8832,-4.8517,-4.8163,-4.7638,-4.7167,-4.6791,-4.6442,-4.6442,-4.641,-4.641,-4.6325,-4.6144,-4.6118,-4.5991,-4.5698,-4.5308,-4.5114,-4.5016,-4.518,-4.5374,-4.5503,-4.589,-4.6175,-4.6386,-4.6435,-4.6421,-4.5917,-4.5094,-4.4608,-4.4256,-4.3805,-4.3747,-4.3654,-4.3713,-4.3831,-4.3889,-4.3948,-4.4236,-4.4406,-4.4463,-4.4519,-4.4113,-4.3572,-4.3267,-4.2861,-4.276,-4.276,-4.2929,-4.3301,-4.3606,-4.3741,-4.3876,-4.3842,-4.3707,-4.4079,-4.4485,-4.4451,-4.4418,-4.4451,-4.4497,-4.444,-4.4384,-4.4155,-4.3831,-4.3476,-4.3052,-4.2684,-4.2236,-4.1767,-4.1137,-4.0646,-4.07,-4.091,-4.0889,-4.101,-4.14,-5.1499,-5.227,-5.2931,-5.3188,-5.3146,-5.293,-5.2672,-5.2408,-5.2018,-5.1607,-5.1105,-5.0675,-5.0397,-5.0126,-5.1365,-5.1878,-5.1936,-5.2895,-5.3377,-5.3551,-5.3551,-5.3484,-5.3518,-5.3484,-5.301,-5.2401,-5.1792,-5.1217,-5.0439,-4.9999,-4.956,-4.9052,-4.9018,-4.9018,-4.9018,-4.9018,-4.9018,-4.9018,-4.8956,-4.8894,-4.8707,-4.8356,-4.8098,-4.7704,-4.7437,-4.7235,-4.7066,-4.7134,-4.7202,-4.7272,-4.734,-4.7441,-4.7309,-4.7079,-4.6684,-4.6356,-4.629,-4.629,-4.6388,-4.6452,-4.6711,-4.7458,-4.7575,-4.7301,-4.7188,-4.6929,-4.6271,-4.6001,-4.5446,-4.4432,-4.4173,-4.4015,-4.4039,-4.4212,-4.427,-4.4327,-4.4497,-4.4553,-4.4553,-4.4553,-4.4418,-4.4215,-4.4147,-4.391,-4.391,-4.391,-4.3876,-4.4181,-4.4147,-4.4384,-4.4609,-4.4451,-4.435,-4.4418,-4.4553,-4.4553,-4.4519,-4.4553,-4.4621,-4.4598,-4.4541,-4.4384,-4.4097,-4.4171,-4.3718,-4.3258,-4.2784,-4.2643,-4.2254,-4.1921,-4.1792,-4.1778,-4.1684,-4.1746,-4.2059]}]]